[[{"header":{"parameterUnit":"m.s-1","parameterCategory":1,"la1":30.6,"la2":28.766,"lo1":-90.7593,"lo2":-88.6598,"dy":0.0162,"dx":0.0183,"nx":116,"ny":114,"refTime":"2023-07-14T12:00:00:Z","depth":0,"parameterNumber":2,"parameterNumberName":"U-component_of_WINDS"},"data":[0.0,0.0,0.0,0.0,0.0,0.0,0.0,0.0,0.0,0.0,0.0,0.0,0.0,0.0,0.0,0.0,0.0,0.0,0.0,0.0,0.0,0.0,0.0,0.0,0.0,0.0,0.0,0.0,0.0,0.0,0.0,0.0,0.0,0.0,0.0,0.0,0.0,0.0,0.0,0.0,0.0,0.0,0.0,0.0,0.0,0.0,0.0,0.0,0.0,0.0,0.0,0.0,0.0,0.0,0.0,0.0,0.0,0.0,0.0,0.0,0.0,0.0,0.0,0.0,0.0,0.0,0.0,0.0,0.0,0.0,0.0,0.0,0.0,0.0,0.0,0.0,0.0,0.0,0.0,0.0,0.0,0.0,0.0,0.0,0.0,0.0,0.0,0.0,0.0,0.0,0.0,0.0,0.0,0.0,0.0,0.0,0.0,0.0,0.0,0.0,0.0,0.0,0.0,0.0,0.0,0.0,0.0,0.0,0.0,0.0,0.0,0.0,0.0,0.0,0.0,0.0,0.0,0.0,0.0,0.0,0.0,0.0,0.0,0.0,0.0,0.0,0.0,0.0,0.0,0.0,0.0,0.0,0.0,0.0,0.0,0.0,0.0,0.0,0.0,0.0,0.0,0.0,0.0,0.0,0.0,0.0,0.0,0.0,0.0,0.0,0.0,0.0,0.0,0.0,0.0,0.0,0.0,0.0,0.0,0.0,0.0,0.0,0.0,0.0,0.0,0.0,0.0,0.0,0.0,0.0,0.0,0.0,0.0,0.0,0.0,0.0,0.0,0.0,0.0,0.0,0.0,0.0,0.0,0.0,0.0,0.0,0.0,0.0,0.0,0.0,0.0,0.0,0.0,0.0,0.0,0.0,0.0,0.0,0.0,0.0,0.0,0.0,0.0,0.0,0.0,0.0,0.0,0.0,0.0,0.0,0.0,0.0,0.0,0.0,0.0,0.0,0.0,0.0,0.0,0.0,0.0,0.0,0.0,0.0,0.0,0.0,0.0,0.0,0.0,0.0,0.0,0.0,0.0,0.0,0.0,0.0,0.0,0.0,0.0,0.0,0.0,0.0,0.0,0.0,0.0,0.0,0.0,0.0,0.0,0.0,0.0,0.0,0.0,0.0,0.0,0.0,0.0,0.0,0.0,0.0,0.0,0.0,0.0,0.0,0.0,0.0,0.0,0.0,0.0,0.0,0.0,0.0,0.0,0.0,0.0,0.0,0.0,0.0,0.0,0.0,0.0,0.0,0.0,0.0,0.0,0.0,0.0,0.0,0.0,0.0,0.0,0.0,0.0,0.0,0.0,0.0,0.0,0.0,0.0,0.0,0.0,0.0,0.0,0.0,0.0,0.0,0.0,0.0,0.0,0.0,0.0,0.0,0.0,0.0,0.0,0.0,0.0,0.0,0.0,0.0,0.0,0.0,0.0,0.0,0.0,0.0,0.0,0.0,0.0,0.0,0.0,0.0,0.0,0.0,0.0,0.0,0.0,0.0,0.0,0.0,0.0,0.0,0.0,0.0,0.0,0.0,0.0,0.0,0.0,0.0,0.0,0.0,0.0,0.0,0.0,0.0,0.0,0.0,0.0,0.0,0.0,0.0,0.0,0.0,0.0,0.0,0.0,0.0,0.0,0.0,0.0,0.0,0.0,0.0,0.0,0.0,0.0,0.0,0.0,0.0,0.0,0.0,0.0,0.0,0.0,0.0,0.0,0.0,0.0,0.0,0.0,0.0,0.0,0.0,0.0,0.0,0.0,0.0,0.0,0.0,0.0,0.0,0.0,0.0,0.0,0.0,0.0,0.0,0.0,0.0,0.0,0.0,0.0,0.0,0.0,0.0,0.0,0.0,0.0,0.0,0.0,0.0,0.0,0.0,0.0,0.0,0.0,0.0,0.0,0.0,0.0,0.0,0.0,0.0,0.0,0.0,0.0,0.0,0.0,0.0,0.0,0.0,0.0,0.0,0.0,0.0,0.0,0.0,0.0,0.0,0.0,0.0,0.0,0.0,0.0,0.0,0.0,0.0,0.0,0.0,0.0,0.0,0.0,0.0,0.0,0.0,0.0,0.0,0.0,0.0,0.0,0.0,0.0,0.0,0.0,0.0,0.0,0.0,0.0,0.0,0.0,0.0,0.0,0.0,0.0,0.0,0.0,0.0,0.0,0.0,0.0,0.0,0.0,0.0,0.0,0.0,0.0,0.0,0.0,0.0,0.0,0.0,0.0,0.0,0.0,0.0,0.0,0.0,0.0,0.0,0.0,0.0,0.0,0.0,0.0,0.0,0.0,0.0,0.0,0.0,0.0,0.0,0.0,0.0,0.0,0.0,0.0,0.0,0.0,0.0,0.0,0.0,0.0,0.0,0.0,0.0,0.0,0.0,0.0,0.0,0.0,0.0,0.0,0.0,0.0,0.0,0.0,0.0,0.0,0.0,0.0,0.0,0.0,0.0,0.0,0.0,0.0,0.0,0.0,0.0,0.0,0.0,0.0,0.0,0.0,0.0,0.0,0.0,0.0,0.0,0.0,0.0,0.0,0.0,0.0,0.0,0.0,0.0,0.0,0.0,0.0,0.0,0.0,0.0,0.0,0.0,0.0,0.0,0.0,0.0,0.0,0.0,0.0,0.0,0.0,0.0,0.0,0.0,0.0,0.0,0.0,0.0,0.0,0.0,0.0,0.0,0.0,0.0,0.0,0.0,0.0,0.0,0.0,0.0,0.0,0.0,0.0,0.0,0.0,0.0,0.0,0.0,0.0,0.0,0.0,0.0,0.0,0.0,0.0,0.0,0.0,0.0,0.0,0.0,0.0,0.0,0.0,0.0,0.0,0.0,0.0,0.0,0.0,0.0,0.0,0.0,0.0,0.0,0.0,0.0,0.0,0.0,0.0,0.0,0.0,0.0,0.0,0.0,0.0,0.0,0.0,0.0,0.0,0.0,0.0,0.0,0.0,0.0,0.0,0.0,0.0,0.0,0.0,0.0,0.0,0.0,0.0,0.0,0.0,0.0,0.0,0.0,0.0,0.0,0.0,0.0,0.0,0.0,0.0,0.0,0.0,0.0,0.0,0.0,0.0,0.0,0.0,0.0,0.0,0.0,0.0,0.0,0.0,0.0,0.0,0.0,0.0,0.0,0.0,0.0,0.0,0.0,0.0,0.0,0.0,0.0,0.0,0.0,0.0,0.0,0.0,0.0,0.0,0.0,0.0,0.0,0.0,0.0,0.0,0.0,0.0,0.0,0.0,0.0,0.0,0.0,0.0,0.0,0.0,0.0,0.0,0.0,0.0,0.0,0.0,0.0,0.0,0.0,0.0,0.0,0.0,0.0,0.0,0.0,0.0,0.0,0.0,0.0,0.0,0.0,0.0,0.0,0.0,0.0,0.0,0.0,0.0,0.0,0.0,0.0,0.0,0.0,0.0,0.0,0.0,0.0,0.0,0.0,0.0,0.0,0.0,0.0,0.0,0.0,0.0,0.0,0.0,0.0,0.0,0.0,0.0,0.0,0.0,0.0,0.0,0.0,0.0,0.0,0.0,0.0,0.0,0.0,0.0,0.0,0.0,0.0,0.0,0.0,0.0,0.0,0.0,0.0,0.0,0.0,0.0,0.0,0.0,0.0,0.0,0.0,0.0,0.0,0.0,0.0,0.0,0.0,0.0,0.0,0.0,0.0,0.0,0.0,0.0,0.0,0.0,0.0,0.0,0.0,0.0,0.0,0.0,0.0,0.0,0.0,0.0,0.0,0.0,0.0,0.0,0.0,0.0,0.0,0.0,0.0,0.0,0.0,0.0,0.0,0.0,0.0,0.0,0.0,0.0,0.0,0.0,0.0,0.0,0.0,0.0,0.0,0.0,0.0,0.0,0.0,0.0,0.0,0.0,0.0,0.0,0.0,0.0,0.0,0.0,0.0,0.0,0.0,0.0,0.0,0.0,0.0,0.0,0.0,0.0,0.0,0.0,0.0,0.0,0.0,0.0,0.0,0.0,0.0,0.0,0.0,0.0,0.0,0.0,0.0,0.0,0.0,0.0,0.0,0.0,0.0,0.0,0.0,0.0,0.0,0.0,0.0,0.0,0.0,0.0,0.0,0.0,0.0,0.0,0.0,0.0,0.0,0.0,0.0,0.0,0.0,0.0,0.0,0.0,0.0,0.0,0.0,0.0,0.0,0.0,0.0,0.0,0.0,0.0,0.0,0.0,0.0,0.0,0.0,0.0,0.0,0.0,0.0,0.0,0.0,0.0,0.0,0.0,0.0,0.0,0.0,0.0,0.0,0.0,0.0,0.0,0.0,0.0,0.0,0.0,0.0,0.0,0.0,0.0,0.0,0.0,0.0,0.0,0.0,0.0,0.0,0.0,0.0,0.0,0.0,0.0,0.0,0.0,0.0,0.0,0.0,0.0,0.0,0.0,0.0,0.0,0.0,0.0,0.0,0.0,0.0,0.0,0.0,0.0,0.0,0.0,0.0,0.0,0.0,0.0,0.0,0.0,0.0,0.0,0.0,0.0,0.0,0.0,0.0,0.0,0.0,0.0,0.0,0.0,0.0,0.0,0.0,0.0,0.0,0.0,0.0,0.0,0.0,0.0,0.0,0.0,0.0,0.0,0.0,0.0,0.0,0.0,0.0,0.0,0.0,0.0,0.0,0.0,0.0,0.0,0.0,0.0,0.0,0.0,0.0,0.0,0.0,0.0,0.0,0.0,0.0,0.0,0.0,0.0,0.0,0.0,0.0,0.0,0.0,0.0,0.0,0.0,0.0,0.0,0.0,0.0,0.0,0.0,0.0,0.0,0.0,0.0,0.0,0.0,0.0,0.0,0.0,0.0,0.0,0.0,0.0,0.0,0.0,0.0,0.0,0.0,0.0,0.0,0.0,0.0,0.0,0.0,0.0,0.0,0.0,0.0,0.0,0.0,0.0,0.0,0.0,0.0,0.0,0.0,0.0,0.0,0.0,0.0,0.0,0.0,0.0,0.0,0.0,0.0,0.0,0.0,0.0,0.0,0.0,0.0,0.0,0.0,0.0,0.0,0.0,0.0,0.0,0.0,0.0,0.0,0.0,0.0,0.0,0.0,0.0,0.0,0.0,0.0,0.0,0.0,0.0,0.0,0.0,0.0,0.0,0.0,0.0,0.0,0.0,0.0,0.0,0.0,0.0,0.0,0.0,0.0,0.0,0.0,0.0,0.0,0.0,0.0,0.0,0.0,0.0,0.0,0.0,0.0,0.0,0.0,0.0,0.0,0.0,0.0,0.0,0.0,0.0,0.0,0.0,0.0,0.0,0.0,0.0,0.0,0.0,0.0,0.0,0.0,0.0,0.0,0.0,0.0,0.0,0.0,0.0,0.0,0.0,0.0,0.0,0.0,0.0,0.0,0.0,0.0,0.0,0.0,0.0,0.0,0.0,0.0,0.0,0.0,0.0,0.0,0.0,0.0,0.0,0.0,0.0,0.0,0.0,0.0,0.0,0.0,0.0,0.0,0.0,0.0,0.0,0.0,0.0,0.0,0.0,0.0,0.0,0.0,0.0,0.0,0.0,0.0,0.0,0.0,0.0,0.0,0.0,0.0,0.0,0.0,0.0,0.0,0.0,0.0,0.0,0.0,0.0,0.0,0.0,0.0,0.0,0.0,0.0,0.0,0.0,0.0,0.0,0.0,0.0,0.0,0.0,0.0,0.0,0.0,0.0,0.0,0.0,0.0,0.0,0.0,0.0,0.0,0.0,0.0,0.0,0.0,0.0,0.0,0.0,0.0,0.0,0.0,0.0,0.0,0.0,0.0,0.0,0.0,0.0,0.0,0.0,0.0,0.0,0.0,0.0,0.0,0.0,0.0,0.0,0.0,0.0,0.0,0.0,0.0,0.0,0.0,0.0,0.0,0.0,0.0,0.0,0.0,0.0,0.0,0.0,0.0,0.0,0.0,0.0,0.0,0.0,0.0,0.0,0.0,0.0,0.0,0.0,0.0,0.0,0.0,0.0,0.0,0.0,0.0,0.0,0.0,0.0,0.0,0.0,0.0,0.0,0.0,0.0,0.0,0.0,0.0,0.0,0.0,0.0,0.0,0.0,0.0,0.0,0.0,0.0,0.0,0.0,0.0,0.0,-3.2093,0.0,0.0,0.0,0.0,0.0,0.0,0.0,0.0,0.0,0.0,0.0,0.0,0.0,0.0,0.0,0.0,0.0,0.0,0.0,0.0,0.0,0.0,0.0,0.0,0.0,0.0,0.0,0.0,0.0,0.0,0.0,0.0,0.0,0.0,0.0,0.0,0.0,0.0,0.0,0.0,0.0,0.0,0.0,0.0,0.0,0.0,0.0,0.0,0.0,0.0,0.0,0.0,0.0,0.0,0.0,0.0,0.0,0.0,0.0,0.0,0.0,0.0,0.0,0.0,0.0,0.0,0.0,0.0,0.0,0.0,0.0,0.0,0.0,0.0,0.0,0.0,0.0,0.0,0.0,0.0,0.0,0.0,0.0,0.0,0.0,0.0,0.0,0.0,0.0,0.0,0.0,0.0,0.0,0.0,0.0,0.0,0.0,0.0,0.0,0.0,0.0,0.0,0.0,0.0,0.0,0.0,0.0,0.0,0.0,0.0,0.0,0.0,0.0,0.0,0.0,0.0,-3.3139,0.0,0.0,0.0,0.0,0.0,0.0,0.0,0.0,0.0,0.0,0.0,0.0,0.0,0.0,0.0,0.0,0.0,0.0,0.0,0.0,0.0,0.0,0.0,0.0,0.0,0.0,0.0,0.0,0.0,0.0,0.0,0.0,0.0,0.0,0.0,0.0,0.0,0.0,0.0,0.0,0.0,0.0,0.0,0.0,0.0,0.0,0.0,0.0,0.0,0.0,0.0,0.0,0.0,0.0,0.0,0.0,0.0,0.0,0.0,0.0,0.0,0.0,0.0,0.0,0.0,0.0,0.0,0.0,0.0,0.0,0.0,0.0,0.0,0.0,0.0,0.0,0.0,0.0,0.0,0.0,0.0,0.0,0.0,0.0,0.0,0.0,0.0,0.0,0.0,0.0,0.0,0.0,0.0,0.0,0.0,0.0,0.0,0.0,0.0,0.0,0.0,0.0,0.0,0.0,0.0,0.0,0.0,0.0,0.0,0.0,-3.8564,-3.8527,-3.8417,-3.8216,-3.697,-3.6198,-3.5733,0.0,0.0,0.0,0.0,0.0,0.0,0.0,0.0,0.0,0.0,0.0,0.0,0.0,0.0,0.0,0.0,0.0,0.0,0.0,0.0,0.0,0.0,0.0,0.0,0.0,0.0,0.0,0.0,0.0,0.0,0.0,0.0,0.0,0.0,0.0,0.0,0.0,0.0,0.0,-3.4659,-3.4659,-3.4605,-3.4534,-3.4672,0.0,0.0,0.0,0.0,0.0,0.0,0.0,0.0,0.0,0.0,0.0,0.0,0.0,0.0,0.0,0.0,0.0,0.0,0.0,0.0,0.0,0.0,0.0,0.0,0.0,0.0,0.0,0.0,0.0,0.0,0.0,0.0,0.0,0.0,0.0,0.0,0.0,0.0,0.0,0.0,0.0,0.0,0.0,-2.9502,-3.0244,0.0,0.0,0.0,0.0,0.0,0.0,0.0,0.0,0.0,0.0,0.0,0.0,0.0,0.0,-4.0907,-4.1642,-4.2016,-4.1996,-4.1763,-4.1627,-4.1607,-4.1422,-4.1357,-4.1283,-4.0453,0.0,-3.6998,-3.6164,0.0,0.0,0.0,0.0,0.0,0.0,0.0,0.0,0.0,0.0,0.0,0.0,0.0,0.0,0.0,0.0,0.0,0.0,0.0,0.0,0.0,0.0,0.0,0.0,0.0,0.0,0.0,0.0,0.0,0.0,0.0,0.0,0.0,0.0,0.0,0.0,-3.3389,-3.5029,-3.627,-3.6676,-3.708,-3.7503,-3.758,-3.6589,-3.4818,-3.4482,0.0,0.0,0.0,0.0,0.0,0.0,0.0,0.0,0.0,0.0,0.0,0.0,0.0,0.0,0.0,0.0,0.0,0.0,0.0,0.0,0.0,0.0,0.0,0.0,0.0,0.0,0.0,0.0,0.0,0.0,0.0,0.0,0.0,0.0,0.0,0.0,0.0,0.0,0.0,-3.0046,-3.1017,-3.1758,-3.2502,-3.3264,0.0,0.0,0.0,0.0,0.0,0.0,0.0,0.0,0.0,-4.1159,-4.1894,-4.2627,-4.336,-4.4062,-4.4582,-4.4946,-4.4774,-4.4436,-4.3988,-4.3899,-4.3602,-4.3111,-4.2727,-4.1917,-4.0748,-3.8719,-3.7633,-3.7173,0.0,0.0,0.0,0.0,0.0,-3.5451,0.0,0.0,0.0,0.0,0.0,0.0,0.0,0.0,0.0,0.0,0.0,0.0,0.0,0.0,0.0,-2.7287,0.0,0.0,0.0,0.0,0.0,0.0,0.0,0.0,0.0,0.0,0.0,-3.3438,-3.5154,-3.6582,-3.7723,-3.8267,-3.8828,-3.9388,-3.9388,-3.8,-3.5625,-3.5432,-3.4866,0.0,0.0,0.0,0.0,0.0,0.0,0.0,0.0,0.0,0.0,0.0,0.0,0.0,0.0,0.0,0.0,0.0,0.0,0.0,0.0,0.0,0.0,0.0,0.0,0.0,0.0,0.0,0.0,0.0,0.0,0.0,0.0,0.0,0.0,0.0,0.0,0.0,0.0,-3.1779,-3.2533,-3.3276,-3.4191,-3.5017,0.0,0.0,0.0,0.0,0.0,0.0,-4.1286,-4.1986,-4.2681,-4.3445,-4.4369,-4.5094,-4.5601,-4.627,-4.6831,-4.7346,-4.7203,-4.6837,-4.6247,-4.6223,-4.581,-4.5169,-4.4857,-4.455,-4.4034,-4.1238,-3.962,-3.8863,-3.8481,-3.7853,0.0,-3.6922,-3.6814,-3.6753,0.0,0.0,0.0,0.0,0.0,0.0,0.0,0.0,0.0,0.0,0.0,0.0,0.0,0.0,-2.7842,-2.7961,-2.8109,-2.8276,0.0,0.0,0.0,0.0,0.0,0.0,0.0,0.0,0.0,-3.6298,-3.6467,-3.7346,-3.8807,-3.886,-3.8959,-3.9122,-3.9122,-3.8674,-3.7883,-3.7183,-3.6408,-3.5547,0.0,0.0,0.0,0.0,0.0,0.0,0.0,0.0,0.0,0.0,0.0,0.0,0.0,0.0,0.0,0.0,0.0,0.0,0.0,0.0,0.0,0.0,0.0,0.0,0.0,0.0,0.0,0.0,0.0,0.0,0.0,0.0,0.0,0.0,0.0,0.0,0.0,0.0,0.0,-3.4784,-3.6157,0.0,0.0,0.0,0.0,-4.1361,-4.1357,-4.198,-4.356,-4.4286,-4.4993,-4.5799,-4.7094,-4.7814,-4.7826,-4.8427,-4.876,-4.8795,-4.867,-4.8559,-4.8524,-4.8397,-4.825,-4.8033,-4.7351,-4.6515,-4.5517,-4.3204,-4.1777,-4.0954,-4.0134,-3.9254,-3.8486,-3.8351,-3.8203,-3.8094,0.0,0.0,0.0,0.0,0.0,0.0,0.0,0.0,0.0,0.0,0.0,0.0,0.0,-2.8443,-2.9267,-2.9293,-3.0233,-3.086,-3.0903,0.0,0.0,0.0,0.0,0.0,0.0,0.0,-3.5641,-3.6364,-3.7958,-3.9051,-3.969,-4.016,-4.0413,-4.0458,-4.0458,-4.0084,-3.9445,-3.8211,-3.7268,-3.6478,-3.5407,-3.4389,0.0,0.0,0.0,0.0,0.0,0.0,0.0,0.0,0.0,0.0,0.0,0.0,0.0,0.0,0.0,0.0,0.0,0.0,0.0,0.0,0.0,0.0,0.0,0.0,0.0,0.0,0.0,0.0,0.0,0.0,0.0,0.0,0.0,0.0,0.0,0.0,0.0,-3.7033,-3.7962,0.0,0.0,-4.1033,-4.1877,-4.2976,-4.3863,-4.4839,-4.5928,-4.6538,-4.7214,-4.7962,-4.8879,-4.9596,-5.0128,-5.0716,-5.1273,-5.1794,-5.1148,-5.0576,-5.0084,-4.9442,-4.8811,-4.8269,-4.7839,-4.7472,-4.7062,-4.608,-4.4397,-4.2375,-4.1985,-4.1604,-4.1216,-4.1085,-4.0992,-4.0967,0.0,0.0,0.0,0.0,0.0,0.0,0.0,0.0,0.0,0.0,0.0,-2.7064,-2.8126,-2.948,-3.0423,-3.0711,-3.1681,-3.2289,-3.2318,0.0,0.0,0.0,0.0,0.0,0.0,-3.5611,-3.6696,-3.7391,-3.9295,-4.0412,-4.0758,-4.1528,-4.1898,-4.1922,-4.1922,-4.1597,-4.0989,-3.9742,-3.8491,-3.7286,-3.6513,-3.5424,-3.416,0.0,0.0,0.0,0.0,0.0,0.0,0.0,0.0,0.0,0.0,0.0,0.0,0.0,0.0,0.0,0.0,0.0,0.0,0.0,0.0,0.0,0.0,0.0,0.0,0.0,0.0,0.0,0.0,0.0,0.0,0.0,0.0,0.0,0.0,0.0,-3.8077,-3.9309,-4.0058,-4.0961,-4.2219,-4.3202,-4.4073,-4.4899,-4.6068,-4.7053,-4.7811,-4.868,-4.9383,-4.9831,-5.0724,-5.1485,-5.1988,-5.2365,-5.2803,-5.3313,-5.272,-5.2109,-5.1545,-5.0675,-4.9918,-4.9286,-4.8868,-4.846,-4.8107,-4.7956,-4.6505,-4.4351,-4.3811,-4.3373,-4.296,-4.2626,-4.2462,-4.2409,0.0,0.0,0.0,0.0,0.0,0.0,0.0,0.0,0.0,0.0,-2.6818,-2.7982,-2.9569,-3.0448,-3.1274,-3.2143,-3.2248,-3.2294,-3.2361,-3.2361,0.0,0.0,0.0,0.0,-3.5594,-3.6644,-3.7952,-3.954,-4.0479,-4.1309,-4.2043,-4.2844,-4.3222,-4.3304,-4.3304,-4.3068,-4.2573,-4.177,-4.0176,-3.8126,-3.7358,-3.6549,-3.5669,0.0,0.0,0.0,0.0,0.0,0.0,0.0,0.0,0.0,0.0,0.0,0.0,0.0,0.0,0.0,0.0,0.0,0.0,0.0,0.0,0.0,0.0,0.0,0.0,0.0,0.0,0.0,0.0,0.0,0.0,0.0,0.0,0.0,-3.8168,-3.8413,-3.9256,-4.1469,-4.2425,-4.3156,-4.3827,-4.5215,-4.6386,-4.721,-4.7906,-4.8556,-4.9141,-5.068,-5.1491,-5.1378,-5.2711,-5.3422,-5.3422,-5.3328,-5.3289,-5.3289,-5.3225,-5.3123,-5.2927,-5.2158,-5.1638,-5.1298,-5.057,-4.9671,-4.8712,-4.8678,-4.803,-4.6952,-4.5595,-4.4511,-4.361,-4.2896,-4.2545,-4.2422,0.0,0.0,0.0,0.0,0.0,0.0,0.0,0.0,0.0,0.0,-2.6931,-2.8046,-3.0124,-3.1058,-3.1909,-3.2772,-3.3291,-3.3591,-3.36,0.0,0.0,0.0,0.0,0.0,-3.6179,-3.7868,-3.9245,-4.0233,-4.1206,-4.2102,-4.2879,-4.3103,-4.3214,-4.3239,-4.3239,-4.3175,-4.3062,-4.241,-4.1497,-4.0333,-3.8526,-3.7338,-3.6549,0.0,0.0,0.0,0.0,0.0,0.0,0.0,0.0,0.0,0.0,0.0,0.0,0.0,0.0,0.0,0.0,0.0,0.0,0.0,0.0,0.0,0.0,0.0,0.0,0.0,0.0,0.0,0.0,0.0,0.0,0.0,0.0,-3.7814,-3.8267,-4.0236,-4.185,-4.2443,-4.405,-4.5416,-4.6197,-4.7075,-4.79,-4.8663,-4.9886,-5.0659,-5.0848,-5.213,-5.2862,-5.2835,-5.3602,-5.4055,-5.4055,-5.4577,-5.4875,-5.4858,-5.418,-5.3813,-5.3737,-5.2747,-5.2252,-5.2146,-5.1701,-5.1344,-5.1012,-5.0239,-4.9746,-4.9263,-4.7236,-4.6243,-4.5896,-4.5693,-4.5579,-4.5551,0.0,0.0,0.0,0.0,0.0,0.0,0.0,0.0,0.0,0.0,-2.6971,-2.8128,-3.075,-3.1501,-3.2265,-3.342,-3.3874,-3.4101,-3.4101,0.0,0.0,0.0,0.0,-3.6688,-3.7325,-3.8926,-4.0163,-4.0954,-4.2249,-4.3156,-4.3672,-4.3983,-4.4113,-4.4113,-4.4113,-4.3999,-4.3796,-4.3485,-4.2811,-4.1752,-4.0188,-3.8725,-3.7393,-3.6622,-3.536,-3.3864,-3.2995,-3.1931,-3.075,-2.9372,0.0,0.0,0.0,0.0,0.0,0.0,0.0,0.0,0.0,0.0,0.0,0.0,0.0,0.0,0.0,0.0,0.0,0.0,0.0,0.0,0.0,0.0,0.0,0.0,-3.8751,-3.9768,-4.0058,-4.1685,-4.3289,-4.4518,-4.5739,-4.6919,-4.7982,-4.9043,-4.981,-5.0182,-5.162,-5.2404,-5.2298,-5.3276,-5.3834,-5.3778,-5.443,-5.4805,-5.4805,-5.5279,-5.5478,-5.5354,-5.4809,-5.4481,-5.4361,-5.3398,-5.2883,0.0,-5.222,-5.1929,-5.174,-5.1125,-5.0813,0.0,0.0,0.0,0.0,0.0,-4.6756,-4.665,0.0,0.0,0.0,0.0,0.0,0.0,0.0,0.0,0.0,0.0,0.0,-2.8205,-3.1142,-3.1566,-3.2249,-3.3808,-3.3962,-3.3995,0.0,0.0,0.0,-3.5562,-3.6264,-3.7308,-3.869,-3.9834,-4.089,-4.186,-4.3357,-4.4191,-4.4449,-4.5087,-4.5397,-4.5397,-4.5397,-4.5113,-4.462,-4.4667,-4.392,-4.2643,-4.1993,-4.0393,-3.8286,-3.7527,-3.6773,-3.5876,-3.3806,-3.3029,-3.2688,-3.0575,0.0,0.0,0.0,0.0,0.0,0.0,0.0,0.0,0.0,0.0,0.0,0.0,0.0,0.0,0.0,0.0,0.0,0.0,0.0,0.0,0.0,0.0,0.0,0.0,-4.0312,-4.2039,-4.2985,-4.3224,-4.4266,-4.6892,-4.742,-4.8089,-4.9442,-5.0941,-5.1818,-5.1772,-5.3114,-5.3813,-5.3538,0.0,0.0,0.0,0.0,-5.5771,-5.5771,-5.5741,-5.5646,-5.5461,-5.5414,-5.5214,-5.4884,-5.416,-5.3594,-5.3175,-5.2492,-5.2013,-5.1728,-5.1643,-5.143,-5.1014,-4.8937,-4.8142,-4.8071,-4.728,-4.6903,0.0,0.0,0.0,0.0,0.0,0.0,0.0,0.0,0.0,0.0,-2.648,-2.6835,-2.7883,-3.037,-3.0656,-3.1286,-3.2834,-3.3078,-3.3419,0.0,0.0,-3.5447,-3.5578,-3.7245,-3.8589,-3.9469,-4.0595,-4.1929,-4.3467,-4.3889,-4.4466,-4.5173,-4.5328,-4.5397,-4.5397,-4.5397,-4.5354,-4.5191,-4.4842,-4.4167,-4.3293,-4.2777,-4.1552,-3.9888,-3.8584,-3.7641,-3.6835,-3.5244,-3.3989,-3.2909,-3.1897,-3.1259,-3.0737,-2.9849,0.0,0.0,0.0,0.0,0.0,0.0,0.0,0.0,0.0,0.0,0.0,0.0,0.0,0.0,0.0,0.0,0.0,0.0,0.0,0.0,-4.0582,-4.1751,-4.3326,-4.5946,-4.6323,-4.6556,-4.7138,-4.8781,-5.0234,-5.1137,-5.2083,-5.287,-5.3309,-5.4124,-5.4517,-5.4303,-5.549,0.0,-5.6157,-5.6947,-5.7368,-5.7368,-5.718,-5.71,-5.7052,0.0,0.0,-5.5681,-5.5255,-5.4682,-5.3967,-5.354,-5.3341,-5.3224,-5.2449,-5.1774,-5.1083,-5.0067,-4.9661,-4.9576,-4.8742,-4.838,-4.8301,0.0,0.0,0.0,0.0,0.0,0.0,0.0,0.0,0.0,0.0,-2.6711,-2.7686,-3.0038,-3.0354,-3.0879,-3.2054,-3.2626,0.0,0.0,-3.5009,-3.5742,-3.6118,-3.7727,-3.8941,-3.9687,-4.1118,-4.2285,-4.3208,-4.4109,-4.4807,-4.53,-4.5371,-4.5397,-4.5397,-4.5397,-4.5397,-4.5406,-4.5234,-4.451,-4.3489,-4.3313,-4.2361,-4.0889,-3.9488,-3.8494,-3.7668,-3.6256,-3.5129,-3.4125,-3.2939,-3.217,-3.157,-3.0792,-3.0093,-2.9483,0.0,0.0,0.0,0.0,0.0,0.0,0.0,0.0,0.0,0.0,0.0,0.0,0.0,0.0,-3.6159,0.0,0.0,-4.0669,-4.1817,-4.3286,-4.4964,-4.6838,-4.7763,-4.8406,-4.8799,-4.9823,-5.0976,-5.2172,-5.2993,-5.3673,-5.4258,-5.4955,-5.5415,-5.5555,-5.6222,-5.6771,-5.7193,-5.7596,-5.7759,-5.7666,-5.7555,-5.743,-5.7254,-5.7079,-5.6759,-5.6349,-5.6055,-5.5461,-5.4626,-5.4361,-5.399,-5.3584,-5.3094,-5.2689,-5.2283,-5.1505,-5.098,-5.0526,-4.9658,-4.931,-4.9098,0.0,0.0,0.0,0.0,0.0,0.0,0.0,0.0,0.0,0.0,0.0,-2.7302,-2.9493,-2.984,-3.0314,0.0,0.0,0.0,0.0,-3.4868,-3.5871,-3.6685,-3.7875,-3.8956,-3.9904,-4.1452,-4.2424,-4.2745,-4.4258,-4.5059,-4.5203,-4.5344,-4.5397,-4.5397,-4.5397,-4.5397,-4.5397,-4.5399,-4.4644,-4.3506,-4.3493,-4.2736,-4.1451,-4.0094,-3.9186,-3.8447,-3.6951,-3.6003,-3.5259,-3.382,-3.2967,-3.2363,-3.1574,-3.0964,-3.0514,-3.0424,-2.9959,0.0,0.0,0.0,0.0,0.0,0.0,0.0,0.0,0.0,-3.5412,-3.617,-3.7361,-3.8361,-3.8616,-4.0794,-4.262,-4.2844,-4.4739,-4.6485,-4.7342,-4.8657,-4.981,-5.0637,-5.0869,-5.153,-5.2957,-5.3796,-5.4447,-5.4962,-5.5724,-5.627,-5.6591,-5.6894,-5.7368,-5.8018,-5.8127,-5.8104,-5.7961,-5.7866,-5.7706,-5.7465,-5.7432,-5.7232,-5.6946,-5.6762,-5.6182,-5.5246,-5.4907,-5.4279,-5.3501,-5.3501,-5.3501,-5.3433,-5.274,-5.2099,-5.1441,-5.0419,-4.9937,-4.964,0.0,0.0,0.0,0.0,0.0,0.0,0.0,0.0,0.0,0.0,0.0,0.0,0.0,0.0,0.0,0.0,0.0,0.0,-3.2997,-3.4415,-3.5691,-3.6659,-3.7678,-3.9009,-4.0632,-4.1631,-4.2588,-4.3552,-4.4531,-4.5059,-4.5203,-4.5344,-4.5397,-4.5397,-4.5397,-4.5397,-4.5363,-4.4836,-4.4183,-4.3454,-4.2934,-4.2263,-4.1446,-4.0049,-3.9499,-3.9211,-3.7147,-3.5969,-3.5266,-3.4451,-3.3736,-3.3066,-3.2367,-3.2115,-3.1924,-3.1276,0.0,-3.0969,-3.0963,-3.1553,0.0,-3.3159,-3.3948,-3.4758,0.0,0.0,-3.6855,-3.7604,-3.8365,-3.9319,-4.0757,-4.1794,-4.2898,-4.4313,-4.5855,-4.7395,-4.8829,-4.9817,-5.0673,-5.1458,-5.219,-5.2957,-5.3787,-5.4616,-5.5266,-5.5724,-5.652,-5.6864,-5.6626,-5.7965,-5.8773,-5.886,-5.9316,-5.9584,-5.9534,-5.9241,-5.9092,-5.9059,-5.8873,-5.8341,-5.7501,-5.7347,-5.6781,-5.5825,-5.4974,-5.4211,-5.3501,-5.3501,-5.3501,-5.345,-5.3196,-5.3044,-5.2792,-5.1212,-5.0476,-5.0192,0.0,0.0,0.0,0.0,0.0,0.0,0.0,0.0,0.0,0.0,0.0,0.0,0.0,0.0,0.0,0.0,0.0,0.0,-3.2721,-3.3928,-3.5252,-3.6626,-3.7652,-3.8816,-4.0113,-4.1009,-4.1707,-4.223,-4.3659,-4.4399,-4.4453,-4.5111,-4.5397,-4.5397,-4.5397,-4.5156,-4.4734,-4.4483,-4.3754,-4.2725,-4.2538,-4.1822,-4.0745,-3.9831,-3.9247,-3.8616,-3.6931,-3.5935,0.0,0.0,-3.3818,-3.3253,-3.2972,-3.2625,-3.2242,-3.1924,-3.1541,0.0,-3.2347,0.0,0.0,0.0,-3.6134,-3.6884,-3.7548,-3.8291,-3.8923,-3.923,-3.9839,-4.0679,-4.1773,-4.291,-4.4043,0.0,-4.6704,-4.8068,-4.9133,-4.9971,-5.0798,-5.1601,-5.2796,-5.3671,-5.3966,-5.4741,-5.5391,-5.5848,-5.6644,-5.7164,-5.7311,-5.8386,-5.9211,-5.9633,-5.9736,-5.9781,-5.9668,-5.9419,-5.9234,-5.9132,-5.8961,-5.8668,-5.829,-5.7994,-5.7373,-5.6398,-5.5125,-5.4414,-5.411,-5.3687,-5.3501,-5.3467,-5.3264,-5.311,-5.2873,-5.1629,-5.1092,-5.0924,0.0,0.0,0.0,0.0,0.0,0.0,0.0,0.0,0.0,0.0,0.0,0.0,0.0,0.0,0.0,0.0,0.0,0.0,0.0,-3.3272,-3.4558,-3.6315,-3.7079,-3.8074,-3.9308,-4.0201,-4.0802,-4.1152,-4.2728,-4.3534,-4.3603,-4.4362,-4.4751,-4.4803,-4.4803,-4.4492,-4.3983,-4.3759,-4.3101,-4.2168,-4.1846,-4.115,-4.0224,-3.9396,-3.8619,-3.7815,-3.6699,-3.5883,0.0,0.0,-3.3771,-3.3232,-3.3277,-3.2972,-3.2571,-3.2599,-3.2369,-3.2429,-3.3778,0.0,0.0,-3.6768,-3.7928,-3.8796,-3.9229,-3.9929,-4.0503,-4.0503,-4.1072,-4.1727,-4.2264,-4.3596,-4.4781,-4.5374,-4.7176,-4.8693,-4.9222,-5.0191,-5.1048,-5.1619,-5.3064,-5.4001,-5.4001,-5.4937,-5.5622,-5.5865,-5.6857,-5.7523,-5.7772,-5.8773,-5.9513,-6.0008,-5.9846,-5.9668,-5.9537,-5.9319,-5.9132,-5.9012,-5.8875,-5.8788,-5.8701,-5.8295,-5.7637,-5.6748,-5.5666,-5.4972,-5.4549,-5.4025,-5.3636,-5.3382,-5.3195,-5.3007,-5.2732,-5.2024,-5.1772,-5.1637,0.0,0.0,0.0,0.0,0.0,0.0,0.0,0.0,0.0,0.0,0.0,0.0,0.0,0.0,0.0,0.0,0.0,0.0,0.0,-3.2335,-3.3612,-3.5562,-3.5669,-3.6561,-3.8411,-3.9291,-4.0167,-4.1004,-4.2053,-4.261,-4.274,-4.2963,-4.315,-4.3276,-4.3276,-4.3241,-4.3172,-4.2413,-4.2116,-4.2057,-4.0591,-4.0103,-4.0132,-3.8615,-3.767,-3.7057,-3.6504,0.0,0.0,0.0,-3.3657,-3.3026,-3.3232,-3.3292,0.0,-3.3345,-3.39,-3.4663,0.0,0.0,-3.7859,-3.7862,-3.9013,-4.0146,-4.0146,-4.0734,-4.1286,-4.1286,-4.1797,-4.229,-4.2308,-4.3554,-4.4603,-4.4621,-4.7242,-4.9257,-4.9293,-5.0673,-5.1672,-5.169,-5.3064,-5.4001,0.0,-5.5437,-5.6209,-5.5918,-5.737,-5.8124,-5.7838,-5.9247,-5.999,-5.9829,-5.9685,-5.9504,-5.9319,-5.9132,-5.9012,-5.9012,-5.8875,-5.8718,-5.849,-5.808,-5.7492,-5.6799,-5.6748,-5.5919,-5.4583,-5.4566,-5.4024,-5.3179,-5.2972,-5.2799,-5.2589,-5.2412,-5.2376,-5.2277,0.0,0.0,0.0,0.0,0.0,0.0,0.0,0.0,0.0,0.0,0.0,0.0,0.0,0.0,0.0,0.0,0.0,0.0,0.0,-3.1526,-3.2772,-3.4584,-3.5257,-3.6214,-3.7518,-3.7987,-3.8665,-3.9539,-4.0536,-4.1316,-4.1844,-4.2646,-4.303,-4.3081,-4.3139,-4.2896,-4.2396,-4.212,-4.1429,-4.051,-4.006,-3.9354,-3.8469,-3.8133,-3.7239,-3.6108,0.0,0.0,0.0,0.0,0.0,-3.3013,-3.3075,-3.3497,-3.4065,-3.4636,-3.4995,-3.5483,-3.6764,0.0,-3.8294,-3.9784,-4.0554,-4.1054,-4.1497,-4.1797,-4.1973,-4.1973,-4.2149,-4.2448,-4.3001,-4.3929,-4.4763,-4.532,-4.7581,-4.9293,-4.9293,-5.0691,-5.1886,-5.2422,-5.3403,0.0,0.0,0.0,0.0,-5.6673,-5.7582,-5.825,-5.8579,-5.9545,-6.0025,-5.9796,-5.9685,-5.9504,-5.9319,-5.9081,-5.8961,-5.8875,-5.8561,-5.8295,-5.8116,-5.7954,-5.7746,-5.7492,-5.7019,-5.6241,-5.5294,-5.4803,-5.4041,-5.3179,-5.2972,-5.2764,-5.2589,-5.2445,-5.2409,-5.234,0.0,0.0,0.0,0.0,0.0,0.0,0.0,0.0,0.0,0.0,0.0,0.0,0.0,0.0,0.0,0.0,0.0,0.0,0.0,0.0,-3.1887,-3.334,-3.4309,-3.526,-3.6224,-3.6761,-3.7475,-3.8337,-3.9023,-3.967,-4.0245,-4.0929,-4.1275,-4.1356,-4.1454,-4.1226,-4.0784,-4.0784,-4.0198,-3.9307,-3.9116,-3.8468,-3.7559,-3.7206,-3.6315,0.0,0.0,0.0,0.0,0.0,0.0,-3.3003,-3.3319,-3.4026,-3.4934,-3.6047,-3.6354,-3.6695,-3.8259,-3.8887,-3.9515,-4.1228,-4.1674,-4.185,-4.2575,-4.2501,-4.2308,-4.2308,-4.2308,-4.2448,-4.2983,-4.3907,-4.4763,-4.5302,-4.7563,-4.9293,-4.9293,-5.0923,-5.234,-5.284,-5.3796,0.0,0.0,0.0,0.0,-5.708,-5.7664,-5.8277,-5.8966,-5.9622,-5.9911,-5.9716,-5.9586,-5.9386,-5.92,-5.9047,-5.8892,-5.8683,-5.8384,-5.808,-5.7881,-5.7881,-5.7881,-5.7865,-5.7391,-5.6782,-5.6019,-5.5224,-5.4308,-5.3445,-5.2969,-5.2659,-5.2535,-5.2445,-5.2409,-5.2409,0.0,0.0,0.0,0.0,0.0,0.0,0.0,0.0,0.0,0.0,0.0,0.0,0.0,0.0,0.0,0.0,0.0,0.0,0.0,0.0,0.0,-3.1882,-3.2856,-3.3749,-3.4576,-3.5542,-3.6484,-3.7392,-3.753,-3.7756,-3.8101,-3.8101,-3.8184,-3.838,-3.838,-3.8465,-3.8594,-3.8594,-3.856,-3.8474,-3.7789,-3.7487,-3.733,-3.5931,0.0,0.0,0.0,0.0,0.0,0.0,0.0,0.0,0.0,-3.4906,-3.5922,-3.7486,-3.7971,-3.8331,-3.9817,-4.0783,-4.1515,-4.2257,-4.2397,-4.2555,-4.334,-4.2876,-4.2308,-4.2308,-4.2308,-4.2308,0.0,0.0,-4.4603,-4.4603,-4.7242,-4.9293,-4.9293,-5.1369,-5.2911,0.0,0.0,0.0,0.0,0.0,0.0,-5.714,0.0,-5.8347,-5.9018,-5.9526,-5.9716,-5.957,-5.9386,-5.92,-5.9012,-5.8978,-5.8823,-5.849,-5.826,-5.8063,-5.7881,-5.7881,-5.7881,-5.7881,-5.7881,-5.7476,-5.6712,-5.5808,-5.4856,-5.3908,-5.2976,-5.2532,-5.2409,-5.2409,-5.2409,-5.2409,0.0,0.0,0.0,0.0,0.0,0.0,0.0,0.0,0.0,0.0,0.0,0.0,0.0,0.0,0.0,0.0,0.0,0.0,0.0,0.0,0.0,0.0,0.0,0.0,0.0,0.0,0.0,0.0,-3.6007,-3.6719,-3.7953,-3.8054,-3.8125,-3.8178,-3.8271,-3.8385,-3.8447,-3.8447,-3.8183,-3.7771,0.0,-3.6805,-3.5794,0.0,0.0,0.0,0.0,0.0,0.0,0.0,0.0,0.0,0.0,-3.6398,-3.7256,-3.8275,-3.8953,-3.9722,-4.131,-4.1882,-4.2364,-4.3679,-4.3607,-4.3251,-4.3444,-4.2876,-4.2308,-4.2308,-4.2308,-4.2308,0.0,0.0,0.0,-4.4603,-4.7242,0.0,-4.9293,-5.1369,0.0,-5.3513,0.0,-5.5192,-5.5621,-5.6451,0.0,0.0,-5.8382,-5.8969,-5.9564,-5.9741,-5.9683,-5.9386,-5.9319,-5.92,-5.9012,-5.8754,-5.8508,-5.826,-5.808,-5.7971,-5.7881,-5.7881,-5.7881,-5.7881,-5.7881,-5.7403,-5.6566,-5.6309,-5.5255,-5.3745,-5.3525,-5.3,-5.2409,-5.2409,-5.2409,-5.2409,0.0,0.0,0.0,0.0,0.0,0.0,0.0,0.0,0.0,0.0,0.0,0.0,0.0,0.0,0.0,0.0,0.0,0.0,0.0,0.0,0.0,0.0,0.0,0.0,0.0,0.0,0.0,0.0,0.0,0.0,-3.5943,-3.6017,-3.6061,-3.6128,-3.6195,-3.6283,-3.6397,-3.6397,0.0,0.0,0.0,0.0,0.0,0.0,0.0,0.0,0.0,0.0,0.0,0.0,0.0,-3.5616,-3.6613,-3.7702,-3.8772,-3.9575,0.0,-4.1234,-4.2483,-4.3054,-4.3607,-4.4821,-4.43,-4.3568,-4.3907,-4.3108,-4.2308,-4.2308,-4.2308,0.0,0.0,0.0,0.0,0.0,0.0,0.0,-4.9221,-5.1503,-5.3336,0.0,-5.4719,0.0,-5.6275,-5.6982,-5.7686,0.0,-5.8786,-5.9222,-5.9761,-5.9748,-5.9602,-5.9319,-5.92,-5.9098,-5.8892,-5.8631,-5.8419,-5.8188,-5.8007,-5.7881,-5.7881,-5.7881,-5.7845,-5.7772,0.0,-5.7426,-5.6801,-5.6426,-5.5606,-5.4605,-5.3848,-5.3277,-5.2788,-5.2489,-5.2409,-5.2409,0.0,0.0,0.0,0.0,0.0,0.0,0.0,0.0,0.0,0.0,0.0,0.0,0.0,0.0,0.0,0.0,0.0,0.0,0.0,0.0,0.0,0.0,0.0,0.0,0.0,0.0,0.0,0.0,0.0,0.0,0.0,0.0,0.0,0.0,0.0,0.0,0.0,0.0,0.0,0.0,0.0,0.0,0.0,0.0,0.0,0.0,0.0,0.0,0.0,0.0,-3.5951,-3.7428,-3.7665,-3.8808,-4.0235,-4.102,-4.1823,-4.2662,-4.3572,-4.4264,-4.4942,-4.5766,-4.4803,-4.38,-4.4442,-4.3322,-4.2126,-4.2126,0.0,-4.2106,-4.2106,0.0,-4.4434,-4.4541,0.0,-4.8975,-4.9064,-5.1695,-5.3599,-5.359,-5.4934,-5.6151,-5.6799,-5.7545,-5.8246,-5.8917,-5.9057,-5.9295,-5.9746,-5.9652,-5.947,-5.9285,-5.9047,-5.8892,-5.8753,-5.8561,-5.8367,-5.8152,-5.7991,-5.7881,-5.7881,-5.7881,-5.7772,-5.7588,0.0,0.0,-5.7202,-5.6396,-5.59,-5.5563,-5.41,-5.345,-5.3202,-5.2605,-5.2409,-5.2409,0.0,0.0,0.0,0.0,0.0,0.0,0.0,0.0,0.0,0.0,0.0,0.0,0.0,0.0,0.0,0.0,0.0,0.0,0.0,0.0,0.0,0.0,0.0,0.0,0.0,0.0,0.0,0.0,0.0,0.0,0.0,0.0,0.0,0.0,0.0,0.0,0.0,0.0,0.0,0.0,0.0,0.0,0.0,0.0,0.0,0.0,0.0,0.0,0.0,0.0,-3.5914,-3.7442,-3.8193,-3.9551,-4.1056,-4.1841,-4.2662,-4.3607,-4.5017,-4.5499,-4.5784,-4.6587,-4.5588,-4.4442,-4.4567,-4.2894,0.0,0.0,-4.1238,-4.1197,-4.1079,-4.2317,0.0,-4.4245,0.0,0.0,0.0,0.0,-5.3545,0.0,0.0,0.0,0.0,0.0,0.0,0.0,0.0,0.0,-5.9619,-5.9453,-5.9268,-5.9047,-5.8909,-5.8736,-5.8561,-5.8331,-5.8152,-5.7954,-5.7918,-5.7881,-5.7881,-5.7735,-5.7625,-5.7588,0.0,0.0,-5.7046,-5.6892,-5.5975,-5.4713,-5.4427,-5.3599,-5.2539,-5.2423,-5.2409,-5.2409,0.0,0.0,0.0,0.0,0.0,0.0,0.0,0.0,0.0,0.0,0.0,0.0,0.0,0.0,0.0,0.0,0.0,0.0,0.0,0.0,0.0,0.0,0.0,0.0,0.0,0.0,0.0,0.0,0.0,0.0,0.0,0.0,0.0,0.0,0.0,0.0,0.0,0.0,0.0,0.0,0.0,0.0,0.0,0.0,0.0,0.0,0.0,0.0,0.0,0.0,-3.6066,-3.7985,-3.8937,-4.037,-4.1877,-4.268,-4.3483,-4.4317,-4.5499,-4.6105,-4.6409,-4.6373,-4.5481,-4.4478,-4.4021,0.0,0.0,0.0,-4.0567,-4.0387,-4.0734,0.0,0.0,0.0,0.0,0.0,0.0,0.0,0.0,0.0,0.0,0.0,0.0,0.0,0.0,0.0,0.0,0.0,0.0,-5.9234,-5.9064,-5.8892,-5.8806,-5.8631,-5.8348,-5.826,-5.8116,-5.7881,-5.7881,-5.7881,-5.7881,-5.7698,-5.7551,-5.7439,0.0,0.0,-5.6801,-5.6435,-5.5795,-5.4986,-5.4208,-5.3516,-5.287,-5.2523,-5.2409,-5.239,0.0,0.0,0.0,0.0,0.0,0.0,0.0,0.0,0.0,0.0,0.0,0.0,0.0,0.0,0.0,0.0,0.0,0.0,0.0,0.0,0.0,0.0,0.0,0.0,0.0,0.0,0.0,0.0,0.0,0.0,0.0,0.0,0.0,0.0,0.0,0.0,0.0,0.0,0.0,0.0,0.0,0.0,0.0,0.0,0.0,0.0,0.0,0.0,0.0,0.0,-3.6197,-3.8437,-3.9233,-4.0651,-4.2213,-4.3194,-4.4014,-4.4759,-4.5544,-4.6328,-4.6715,-4.5926,-4.5125,-4.4266,-4.3259,-4.1816,0.0,0.0,-3.9755,-3.956,-4.0332,0.0,0.0,0.0,0.0,0.0,0.0,0.0,0.0,0.0,0.0,0.0,0.0,0.0,0.0,0.0,0.0,0.0,0.0,-5.9098,-5.8927,-5.8788,-5.8753,-5.8561,-5.8188,-5.8152,-5.808,-5.7881,-5.7881,-5.7881,-5.7881,-5.7662,-5.7439,-5.7289,0.0,0.0,0.0,-5.5918,-5.5499,-5.5218,-5.3894,-5.3318,-5.3135,-5.2572,-5.2409,-5.2373,0.0,0.0,0.0,0.0,0.0,0.0,0.0,0.0,0.0,0.0,0.0,0.0,0.0,0.0,0.0,0.0,0.0,0.0,0.0,0.0,0.0,0.0,0.0,0.0,0.0,0.0,0.0,0.0,0.0,0.0,0.0,0.0,0.0,0.0,0.0,0.0,0.0,0.0,0.0,0.0,0.0,0.0,0.0,0.0,0.0,0.0,0.0,0.0,0.0,0.0,0.0,-3.8329,-3.8419,-3.9673,-4.1436,-4.303,0.0,0.0,-4.5409,-4.6122,-4.646,-4.5716,-4.4913,-4.3939,-4.2455,0.0,0.0,-3.8702,-3.8468,-3.8639,-3.9311,-4.0102,-4.135,0.0,0.0,-4.6088,0.0,0.0,0.0,0.0,0.0,0.0,0.0,0.0,0.0,0.0,0.0,0.0,0.0,-5.9012,-5.8927,-5.8788,-5.8631,-5.8419,-5.8188,-5.8044,-5.7918,-5.7881,-5.7881,-5.7881,-5.7881,-5.7514,-5.7327,-5.7289,0.0,0.0,0.0,-5.5918,-5.5201,-5.4506,-5.3732,-5.3036,-5.2473,-5.2407,-5.2409,-5.2373,0.0,0.0,0.0,0.0,0.0,0.0,0.0,0.0,0.0,0.0,0.0,0.0,0.0,0.0,0.0,0.0,0.0,0.0,0.0,0.0,0.0,0.0,0.0,0.0,0.0,0.0,0.0,0.0,0.0,0.0,0.0,0.0,0.0,0.0,0.0,0.0,0.0,0.0,0.0,0.0,0.0,0.0,0.0,0.0,0.0,0.0,0.0,0.0,0.0,0.0,0.0,0.0,-3.7972,-3.8775,0.0,0.0,-4.3087,-4.3824,-4.4627,-4.5007,-4.5037,-4.4253,-4.3811,-4.3151,-4.1531,0.0,0.0,-3.837,-3.784,-3.787,-3.8975,-3.9427,-4.0526,-4.3237,0.0,0.0,0.0,0.0,0.0,0.0,0.0,0.0,0.0,0.0,0.0,0.0,0.0,0.0,0.0,0.0,-5.8806,-5.8631,-5.8419,-5.8224,-5.8044,-5.7918,-5.7881,-5.7881,-5.7881,-5.7881,-5.7881,-5.7476,-5.7289,0.0,0.0,0.0,0.0,-5.5218,-5.449,-5.3781,-5.3069,-5.2622,-5.2409,-5.2409,-5.2302,-5.2211,0.0,0.0,0.0,0.0,0.0,0.0,0.0,0.0,0.0,0.0,0.0,0.0,0.0,0.0,0.0,0.0,0.0,0.0,0.0,0.0,0.0,0.0,0.0,0.0,0.0,0.0,0.0,0.0,0.0,0.0,0.0,0.0,0.0,0.0,0.0,0.0,0.0,0.0,0.0,0.0,0.0,0.0,0.0,0.0,0.0,0.0,0.0,0.0,0.0,0.0,0.0,0.0,0.0,0.0,0.0,0.0,-4.2164,-4.29,-4.366,-4.4026,-4.3986,-4.3204,-4.2833,-4.2229,0.0,0.0,0.0,-3.7895,-3.7296,-3.7381,-3.8818,-3.9076,-3.9957,-4.2723,0.0,-4.5167,0.0,0.0,0.0,0.0,0.0,0.0,0.0,0.0,0.0,0.0,0.0,0.0,0.0,0.0,-5.8561,-5.8419,-5.826,-5.8116,-5.7881,-5.7881,-5.7881,-5.7881,-5.7881,-5.7881,-5.7881,-5.7476,-5.7289,0.0,0.0,0.0,0.0,-5.4787,-5.408,-5.3334,-5.2655,-5.2409,-5.2409,-5.2409,-5.2266,-5.2066,0.0,0.0,0.0,0.0,0.0,0.0,0.0,0.0,0.0,0.0,0.0,0.0,0.0,0.0,0.0,0.0,0.0,0.0,0.0,0.0,0.0,0.0,0.0,0.0,0.0,0.0,0.0,-2.77,-2.8583,0.0,0.0,0.0,0.0,0.0,0.0,0.0,0.0,0.0,0.0,0.0,0.0,0.0,0.0,0.0,0.0,0.0,0.0,0.0,0.0,0.0,0.0,0.0,0.0,0.0,0.0,0.0,-4.1287,-4.1978,-4.2714,-4.3399,-4.3728,-4.2991,-4.2201,-4.1218,0.0,0.0,0.0,-3.6986,-3.6809,-3.726,-3.8729,-3.8986,-3.9752,-4.2044,-4.3036,0.0,0.0,0.0,0.0,0.0,0.0,0.0,0.0,0.0,0.0,0.0,0.0,0.0,0.0,0.0,-5.8224,-5.8188,-5.8188,-5.8116,-5.7881,-5.7881,-5.7881,-5.7881,-5.7881,-5.7881,-5.7881,-5.7476,0.0,0.0,0.0,0.0,0.0,-5.4787,-5.408,-5.3334,-5.2655,-5.2409,-5.2409,-5.2409,-5.2266,-5.2066,0.0,0.0,0.0,0.0,0.0,0.0,0.0,0.0,0.0,0.0,0.0,0.0,0.0,0.0,0.0,0.0,0.0,0.0,0.0,0.0,0.0,0.0,0.0,0.0,0.0,0.0,-2.7176,-2.8583,-2.8856,-2.9653,-3.0852,0.0,0.0,0.0,0.0,0.0,0.0,0.0,0.0,0.0,0.0,0.0,0.0,0.0,0.0,0.0,0.0,0.0,0.0,0.0,0.0,0.0,0.0,0.0,0.0,-3.7877,0.0,0.0,-4.0383,-4.059,-4.0709,-4.0481,-4.0235,-3.974,-3.866,0.0,0.0,-3.6902,-3.6725,-3.7175,-3.8599,-3.8855,-3.9579,-4.1773,-4.277,0.0,0.0,0.0,0.0,0.0,0.0,0.0,0.0,0.0,0.0,0.0,0.0,0.0,0.0,0.0,0.0,-5.8188,-5.808,-5.7954,-5.7881,-5.7881,-5.7881,-5.7881,-5.7881,-5.7881,-5.7881,0.0,0.0,0.0,0.0,0.0,0.0,-5.4589,-5.3798,-5.2688,-5.2473,-5.2409,-5.2409,-5.2409,-5.2194,-5.1904,0.0,0.0,0.0,0.0,0.0,0.0,0.0,0.0,0.0,0.0,0.0,0.0,0.0,0.0,0.0,0.0,0.0,0.0,0.0,0.0,0.0,0.0,0.0,0.0,0.0,-2.6468,-2.7159,-2.8516,-2.8839,-2.9619,-3.0784,-3.1072,-3.119,0.0,0.0,0.0,0.0,0.0,0.0,0.0,0.0,0.0,-3.119,0.0,0.0,0.0,0.0,0.0,0.0,0.0,0.0,0.0,0.0,0.0,0.0,0.0,-3.7114,-3.8079,0.0,-3.9284,-3.9284,-3.9242,-3.9031,0.0,0.0,0.0,0.0,0.0,0.0,-3.697,-3.8402,-3.8612,-3.929,-4.1508,-4.2498,0.0,0.0,0.0,0.0,0.0,0.0,0.0,0.0,0.0,0.0,0.0,0.0,0.0,0.0,0.0,0.0,-5.808,-5.7971,-5.7881,-5.7881,-5.7881,-5.7881,-5.7881,-5.7881,-5.7881,-5.7881,0.0,0.0,0.0,0.0,0.0,0.0,-5.449,-5.3682,-5.2409,-5.2409,-5.2409,-5.239,-5.2302,-5.2086,-5.1778,0.0,0.0,0.0,0.0,0.0,0.0,0.0,0.0,0.0,0.0,0.0,0.0,0.0,0.0,0.0,0.0,0.0,0.0,0.0,0.0,0.0,0.0,0.0,0.0,0.0,-2.6434,-2.6923,-2.7767,-2.86,-2.9416,-3.0192,-3.0886,-3.119,-3.119,-3.119,0.0,0.0,0.0,0.0,0.0,0.0,0.0,0.0,0.0,0.0,0.0,0.0,0.0,0.0,0.0,0.0,0.0,0.0,0.0,0.0,0.0,0.0,0.0,0.0,-3.907,0.0,0.0,0.0,0.0,0.0,0.0,0.0,0.0,0.0,0.0,-3.8117,-3.8282,-3.8941,-4.1212,-4.2202,0.0,0.0,0.0,0.0,0.0,0.0,0.0,0.0,0.0,0.0,0.0,0.0,0.0,0.0,0.0,0.0,0.0,-5.7881,-5.7881,-5.7881,-5.7881,-5.7881,-5.7881,-5.7881,-5.7881,-5.7881,0.0,0.0,0.0,0.0,0.0,0.0,-5.4423,-5.3632,-5.2409,-5.2409,-5.2409,-5.239,-5.2175,-5.1977,-5.1778,0.0,0.0,0.0,0.0,0.0,0.0,0.0,0.0,0.0,0.0,0.0,0.0,0.0,0.0,0.0,0.0,0.0,0.0,0.0,0.0,0.0,0.0,0.0,0.0,0.0,-2.6434,-2.7174,-2.854,-2.8854,-2.967,-3.0954,-3.1123,-3.119,-3.119,-3.119,-3.119,0.0,0.0,0.0,0.0,0.0,0.0,0.0,0.0,0.0,0.0,-3.1312,-3.1426,0.0,0.0,0.0,0.0,0.0,0.0,0.0,0.0,-3.4579,-3.5623,-3.6222,0.0,-3.7286,-3.7265,-3.7126,-3.6983,0.0,0.0,0.0,0.0,0.0,0.0,0.0,-3.8213,-3.8941,-4.1212,0.0,0.0,0.0,0.0,0.0,0.0,0.0,0.0,0.0,0.0,0.0,0.0,0.0,0.0,0.0,0.0,0.0,0.0,-5.7881,-5.7881,-5.7881,-5.7881,-5.7881,-5.7881,-5.7881,-5.7881,0.0,0.0,0.0,0.0,0.0,0.0,0.0,-5.3914,-5.3169,-5.2409,-5.2409,-5.2409,-5.239,-5.2175,-5.1977,-5.1778,0.0,0.0,0.0,0.0,0.0,0.0,0.0,0.0,0.0,0.0,0.0,0.0,0.0,0.0,0.0,0.0,0.0,0.0,0.0,0.0,0.0,0.0,0.0,0.0,-2.6241,-2.6364,-2.7188,-2.8736,-2.8864,-2.9698,-3.119,-3.119,-3.119,-3.119,-3.119,-3.119,0.0,0.0,0.0,0.0,0.0,0.0,0.0,0.0,0.0,0.0,-3.1274,-3.1351,0.0,-3.1521,-3.1634,-3.1727,0.0,0.0,0.0,0.0,-3.3509,-3.4303,-3.5031,-3.5951,-3.6681,-3.6623,-3.6602,-3.6582,-3.6398,0.0,0.0,0.0,0.0,0.0,0.0,0.0,0.0,0.0,0.0,0.0,0.0,0.0,0.0,0.0,0.0,0.0,0.0,0.0,0.0,0.0,0.0,0.0,0.0,0.0,0.0,0.0,0.0,-5.7881,-5.7881,-5.7881,-5.7881,-5.7881,-5.7881,-5.7845,0.0,0.0,0.0,0.0,0.0,0.0,-5.3943,-5.3566,-5.3003,-5.2409,-5.2409,-5.2409,-5.2338,-5.2086,-5.1904,-5.1741,0.0,0.0,0.0,0.0,0.0,0.0,0.0,0.0,0.0,0.0,0.0,0.0,0.0,0.0,0.0,0.0,0.0,0.0,0.0,0.0,0.0,0.0,0.0,-2.6202,-2.6202,-2.6375,-2.7199,-2.8659,-2.8873,-2.9724,-3.1171,-3.119,-3.119,-3.119,-3.119,-3.119,0.0,0.0,0.0,0.0,-3.119,0.0,0.0,0.0,0.0,0.0,0.0,0.0,0.0,-3.1443,-3.1479,-3.1498,-3.1498,0.0,0.0,0.0,0.0,0.0,-3.4318,-3.5552,-3.6422,-3.6426,-3.6419,-3.6377,-3.6208,0.0,0.0,0.0,0.0,0.0,0.0,-3.8552,0.0,0.0,0.0,0.0,0.0,0.0,0.0,0.0,0.0,0.0,0.0,0.0,0.0,0.0,0.0,0.0,0.0,0.0,0.0,0.0,0.0,0.0,-5.7471,-5.778,-5.7831,-5.7693,-5.7693,-5.7516,-5.7197,-5.6355,0.0,0.0,0.0,0.0,-5.34,-5.3301,-5.2904,-5.2409,-5.2409,-5.2409,-5.2338,-5.1941,-5.1778,-5.1741,0.0,0.0,0.0,0.0,0.0,0.0,0.0,0.0,0.0,0.0,0.0,0.0,0.0,0.0,0.0,0.0,0.0,0.0,0.0,0.0,0.0,0.0,-2.6202,-2.6202,-2.6202,-2.6874,-2.7661,-2.8529,-2.9338,-3.0174,-3.1035,-3.1151,-3.119,-3.119,-3.119,-3.119,-3.119,-3.119,-3.119,-3.119,-3.119,0.0,0.0,0.0,0.0,0.0,0.0,0.0,0.0,-3.1315,-3.1406,-3.1498,-3.1498,0.0,0.0,0.0,0.0,0.0,-3.3652,-3.4517,-3.5334,-3.593,-3.6084,-3.6062,-3.6041,-3.5949,0.0,0.0,0.0,0.0,0.0,0.0,0.0,0.0,0.0,0.0,0.0,0.0,0.0,0.0,0.0,0.0,0.0,0.0,0.0,0.0,0.0,0.0,0.0,0.0,0.0,0.0,0.0,0.0,0.0,-5.7111,-5.7504,-5.6715,-5.6715,-5.627,-5.5467,-5.5185,-5.5025,0.0,0.0,0.0,-5.3367,-5.2788,-5.2473,-5.2409,-5.2409,-5.2409,-5.2338,-5.1941,-5.1778,-5.1741,0.0,0.0,0.0,0.0,0.0,0.0,0.0,0.0,0.0,0.0,0.0,0.0,0.0,0.0,0.0,0.0,0.0,0.0,0.0,0.0,0.0,-2.6041,-2.6061,-2.6115,-2.6202,-2.6954,-2.7722,-2.8491,-2.9323,-3.0157,-3.0995,-3.1151,-3.119,-3.119,-3.119,-3.119,-3.119,-3.119,-3.119,-3.119,0.0,0.0,0.0,0.0,0.0,0.0,0.0,0.0,0.0,0.0,-3.1288,-3.1344,-3.1344,0.0,0.0,0.0,0.0,0.0,-3.323,-3.3807,-3.4351,-3.5457,-3.5861,-3.6078,-3.6422,-3.639,-3.6474,0.0,0.0,0.0,0.0,0.0,0.0,0.0,0.0,0.0,0.0,0.0,0.0,0.0,0.0,0.0,0.0,0.0,0.0,0.0,0.0,0.0,0.0,0.0,0.0,0.0,0.0,0.0,0.0,-5.5948,-5.6152,-5.5761,-5.5761,-5.5467,-5.4898,-5.4425,-5.4133,0.0,0.0,-5.2854,-5.2837,-5.2523,-5.2409,-5.2409,-5.2409,-5.2409,-5.2338,-5.1941,-5.1668,-5.1445,0.0,0.0,0.0,0.0,0.0,0.0,0.0,0.0,0.0,0.0,0.0,0.0,0.0,0.0,0.0,0.0,0.0,0.0,0.0,0.0,-2.5862,-2.5897,-2.5954,-2.6026,-2.615,-2.7081,-2.7867,-2.8489,-2.9409,-3.0226,-3.0975,-3.1092,-3.1151,-3.1151,-3.119,-3.119,-3.119,-3.1171,-3.1151,-3.1151,0.0,0.0,0.0,0.0,0.0,0.0,0.0,0.0,0.0,0.0,0.0,0.0,0.0,0.0,0.0,-3.1131,-3.1131,-3.1452,-3.2934,-3.3339,-3.3671,-3.5099,-3.5797,-3.623,-3.6672,-3.6844,-3.7064,0.0,0.0,0.0,0.0,0.0,0.0,0.0,0.0,0.0,0.0,0.0,0.0,0.0,0.0,0.0,0.0,0.0,0.0,0.0,0.0,0.0,0.0,0.0,0.0,0.0,0.0,0.0,0.0,-5.4486,-5.457,-5.4756,-5.4756,-5.4565,-5.4216,-5.3634,-5.3313,-5.3152,-5.2605,-5.2409,-5.2409,-5.2409,-5.2409,-5.2409,-5.2409,-5.2338,-5.223,-5.1868,-5.1483,-5.1183,0.0,0.0,0.0,0.0,0.0,0.0,0.0,0.0,0.0,0.0,0.0,0.0,0.0,0.0,0.0,0.0,0.0,0.0,0.0,0.0,-2.5772,-2.5881,-2.5899,-2.5936,-2.6026,-2.7524,-2.8343,-2.8409,-2.9886,-3.0723,-3.0912,-3.0975,-3.1015,-3.1015,-3.1151,-3.119,-3.119,-3.1072,-3.1015,-3.0995,-3.0952,0.0,0.0,0.0,0.0,0.0,0.0,0.0,0.0,0.0,0.0,0.0,0.0,0.0,-3.0932,-3.0932,-3.0932,-3.123,-3.2718,-3.312,-3.3471,-3.4962,-3.5887,-3.6461,-3.6427,-3.6973,-3.7627,-3.8203,0.0,0.0,0.0,0.0,0.0,0.0,0.0,0.0,0.0,0.0,0.0,0.0,0.0,0.0,0.0,0.0,0.0,0.0,0.0,0.0,0.0,0.0,0.0,0.0,0.0,0.0,0.0,0.0,-5.2997,-5.3809,-5.3809,-5.3368,-5.2558,-5.2509,-5.2492,-5.2456,-5.2442,-5.2409,-5.2409,-5.2409,-5.2409,-5.2409,-5.2409,-5.2158,-5.1831,-5.161,-5.1387,-5.1183,0.0,0.0,0.0,0.0,0.0,0.0,0.0,0.0,0.0,0.0,0.0,0.0,0.0,0.0,0.0,0.0,0.0,0.0,0.0,0.0,-2.5659,-2.5712,-2.5752,-2.5791,-2.5811,-2.7443,-2.8513,-2.9019,-3.0152,-3.0733,-3.0773,-3.0892,-3.0952,-3.0952,-3.0992,-3.1012,-3.1012,-3.0972,-3.0952,-3.0932,-3.0831,-3.079,0.0,0.0,0.0,0.0,0.0,0.0,0.0,0.0,-3.0892,-3.0892,0.0,-3.0892,-3.0892,-3.0892,-3.1227,-3.1813,-3.2813,-3.3433,-3.413,-3.5515,-3.6434,0.0,0.0,-3.7577,-3.8344,-3.9362,-3.945,0.0,0.0,0.0,0.0,0.0,0.0,0.0,0.0,0.0,0.0,0.0,0.0,0.0,0.0,0.0,0.0,0.0,0.0,0.0,0.0,0.0,0.0,0.0,0.0,0.0,0.0,0.0,-5.2558,-5.2879,-5.2879,-5.271,-5.2409,-5.2409,-5.2409,-5.2409,-5.2409,-5.2409,-5.2409,-5.2409,-5.2409,-5.239,-5.2283,-5.205,-5.1778,-5.1573,-5.1387,-5.1183,0.0,0.0,0.0,0.0,0.0,0.0,0.0,0.0,0.0,0.0,0.0,0.0,0.0,0.0,0.0,0.0,0.0,0.0,0.0,-2.5597,-2.5597,-2.5597,-2.564,-2.5796,-2.6026,-2.7158,-2.8165,-2.9029,-2.9875,-3.0301,-3.0301,-3.0439,-3.05,-3.05,-3.0791,-3.0892,-3.0892,-3.0851,-3.0851,-3.0831,-3.0692,-3.063,0.0,0.0,0.0,0.0,0.0,0.0,0.0,0.0,-3.0688,-3.0688,0.0,0.0,0.0,0.0,-3.1204,-3.1931,-3.2679,-3.3411,-3.4263,-3.5669,0.0,0.0,-3.7494,-3.8266,-3.9166,-4.0007,-4.0416,-4.0934,-4.1996,0.0,0.0,0.0,0.0,0.0,0.0,0.0,0.0,0.0,0.0,0.0,0.0,0.0,0.0,0.0,0.0,0.0,0.0,0.0,0.0,0.0,0.0,0.0,0.0,0.0,-5.2409,-5.2409,-5.2409,-5.2409,-5.2409,-5.2409,-5.2409,-5.2409,-5.2409,-5.2409,-5.2409,-5.2409,-5.2409,-5.2373,-5.2086,-5.1904,-5.1778,-5.1499,-5.1312,-5.1183,0.0,0.0,0.0,0.0,0.0,0.0,0.0,0.0,0.0,0.0,0.0,0.0,0.0,0.0,0.0,0.0,0.0,0.0,0.0,-2.5597,-2.5597,-2.5597,-2.5597,-2.5962,-2.6779,-2.6795,-2.7251,-2.8207,-2.9013,-2.938,-2.938,-2.9536,-2.9596,-2.9629,-3.05,-3.0892,-3.0892,-3.0753,-3.0692,-3.0692,-3.0568,-3.0464,-3.0396,0.0,0.0,0.0,0.0,0.0,0.0,0.0,-3.0189,-3.0189,0.0,0.0,0.0,0.0,-3.0729,-3.1472,-3.221,-3.2892,-3.376,0.0,0.0,0.0,-3.7576,-3.8964,-4.0071,-3.9931,-4.0919,-4.1975,-4.2504,0.0,0.0,0.0,0.0,0.0,0.0,0.0,0.0,0.0,0.0,0.0,0.0,0.0,0.0,0.0,0.0,0.0,0.0,0.0,0.0,0.0,0.0,0.0,0.0,0.0,-5.2409,-5.2409,-5.2409,-5.2409,-5.2409,-5.2409,-5.2409,-5.2409,-5.2409,-5.2409,-5.2409,-5.2409,-5.2409,-5.2338,-5.1961,-5.1778,-5.1741,-5.1333,-5.1183,-5.1183,0.0,0.0,0.0,0.0,0.0,0.0,0.0,0.0,0.0,0.0,0.0,0.0,0.0,0.0,0.0,0.0,0.0,0.0,0.0,-2.5597,-2.5597,-2.5597,-2.5597,-2.5713,-2.5945,-2.6512,-2.7251,-2.8207,-2.8533,-2.8707,-2.8707,-2.8727,-2.9012,-2.9457,-2.9729,-3.0131,-3.0609,-3.0589,-3.0526,-3.0501,-3.0459,-3.0359,-3.0253,0.0,0.0,0.0,0.0,0.0,0.0,0.0,0.0,0.0,0.0,0.0,0.0,-3.0189,-3.1073,-3.2128,-3.2341,-3.3252,0.0,-3.6004,0.0,0.0,0.0,-3.9535,0.0,0.0,-4.1831,-4.2568,0.0,0.0,0.0,0.0,0.0,0.0,0.0,0.0,0.0,0.0,0.0,0.0,0.0,0.0,0.0,0.0,0.0,0.0,0.0,0.0,0.0,0.0,0.0,0.0,0.0,0.0,0.0,-5.2409,-5.2409,-5.2409,-5.2409,-5.2409,-5.2409,-5.2409,-5.2409,-5.2409,-5.2409,-5.2409,-5.2409,-5.2338,-5.1961,-5.1778,-5.1741,-5.1333,-5.1183,-5.1183,0.0,0.0,0.0,0.0,0.0,0.0,0.0,0.0,0.0,0.0,0.0,0.0,0.0,0.0,0.0,0.0,0.0,0.0,0.0,0.0,-2.5597,-2.5597,-2.5597,-2.5597,-2.5597,-2.6084,-2.664,-2.7216,-2.7624,-2.7866,-2.7869,-2.7869,-2.8119,-2.8588,-2.9152,-2.9625,-3.0046,-3.0348,-3.0401,-3.0333,-3.0333,-3.0231,-3.0124,0.0,0.0,0.0,0.0,0.0,0.0,0.0,0.0,0.0,0.0,0.0,0.0,-3.0076,-3.1081,-3.2176,-3.2176,-3.3413,0.0,-3.6131,-3.6678,-3.7476,-3.9498,0.0,0.0,0.0,0.0,0.0,0.0,0.0,0.0,0.0,0.0,0.0,0.0,0.0,0.0,0.0,0.0,0.0,0.0,0.0,0.0,0.0,0.0,0.0,0.0,0.0,0.0,0.0,0.0,0.0,0.0,0.0,0.0,-5.1529,-5.1529,-5.1661,-5.1978,-5.2277,-5.2409,-5.2409,-5.2409,-5.2409,-5.2409,-5.2409,-5.2409,-5.2338,-5.1961,-5.1778,-5.1741,-5.1333,-5.1183,-5.1183,0.0,0.0,0.0,0.0,0.0,0.0,0.0,0.0,0.0,0.0,-2.522,0.0,0.0,0.0,0.0,0.0,0.0,0.0,0.0,0.0,-2.5597,-2.5597,-2.5597,-2.5597,-2.5597,-2.5661,-2.5682,-2.5682,-2.6498,-2.6937,-2.6996,-2.6996,-2.7085,-2.733,-2.8619,-2.9217,-2.9333,-2.9996,-3.0246,-3.0167,-3.0167,-3.0103,-2.9995,-2.9995,0.0,0.0,0.0,0.0,0.0,0.0,0.0,0.0,-2.9858,-2.9858,-2.9858,-2.9858,-3.0764,-3.1774,-3.1774,0.0,0.0,0.0,0.0,0.0,0.0,0.0,0.0,0.0,0.0,0.0,0.0,0.0,0.0,0.0,0.0,0.0,0.0,0.0,0.0,0.0,0.0,0.0,0.0,0.0,0.0,0.0,0.0,0.0,0.0,0.0,0.0,0.0,0.0,0.0,0.0,0.0,0.0,0.0,-5.0169,-5.0551,-5.1232,-5.1943,-5.2359,-5.2409,-5.2409,-5.2409,-5.2409,-5.2409,-5.2409,-5.2338,-5.1961,-5.1778,-5.1741,-5.1333,-5.1183,-5.1183,0.0,0.0,0.0,0.0,0.0,0.0,0.0,0.0,0.0,0.0,0.0,0.0,0.0,0.0,0.0,0.0,0.0,0.0,0.0,0.0,-2.5597,-2.5597,-2.5597,-2.5597,-2.5597,-2.56,-2.5619,-2.5619,-2.5971,-2.6145,-2.6163,-2.6163,-2.6477,-2.7071,-2.7367,-2.8119,-2.9165,-2.9313,-2.9644,-3.0038,-3.0038,-2.9995,-2.9924,-2.9924,-2.9902,0.0,0.0,0.0,0.0,0.0,0.0,0.0,-2.9586,-2.9586,-2.9586,-2.9586,-3.0557,-3.1646,0.0,-3.3159,0.0,0.0,0.0,0.0,0.0,0.0,0.0,0.0,0.0,0.0,0.0,0.0,0.0,0.0,0.0,0.0,0.0,0.0,0.0,0.0,0.0,0.0,0.0,0.0,0.0,0.0,0.0,0.0,0.0,0.0,0.0,0.0,0.0,0.0,0.0,-4.9739,-4.9912,0.0,-5.0135,-5.0286,-5.0469,-5.1181,-5.1862,-5.2409,-5.2409,-5.2409,-5.2409,-5.2409,-5.2409,-5.2338,-5.1961,-5.1778,-5.1741,-5.1333,-5.1183,-5.1183,0.0,0.0,0.0,0.0,0.0,0.0,0.0,0.0,0.0,0.0,0.0,0.0,0.0,0.0,0.0,0.0,0.0,0.0,0.0,0.0,0.0,0.0,-2.5505,-2.5486,-2.5464,-2.5464,-2.5464,-2.5464,-2.5562,-2.5677,-2.5791,-2.5791,-2.604,-2.6506,-2.7175,-2.7876,-2.8568,-2.9254,-2.9696,-2.9946,-2.9946,-2.988,-2.9792,-2.9792,-2.9748,-2.972,-2.972,0.0,0.0,0.0,0.0,0.0,0.0,0.0,-2.956,-2.9879,-3.0703,-3.1565,0.0,0.0,0.0,0.0,0.0,0.0,0.0,0.0,0.0,0.0,0.0,0.0,0.0,0.0,0.0,0.0,0.0,0.0,0.0,0.0,0.0,0.0,0.0,0.0,0.0,0.0,0.0,0.0,0.0,0.0,0.0,0.0,0.0,0.0,0.0,0.0,-4.8274,-4.8584,-4.8789,-4.8857,-4.9043,-4.9342,-4.9723,-5.0783,-5.1713,-5.2409,-5.2409,-5.2409,-5.2409,-5.2409,-5.2338,-5.2247,-5.1941,-5.1741,-5.161,-5.1296,-5.1183,-5.1183,0.0,0.0,0.0,0.0,0.0,0.0,0.0,0.0,0.0,0.0,0.0,0.0,0.0,0.0,0.0,0.0,0.0,0.0,0.0,0.0,0.0,0.0,-2.5378,-2.5355,-2.5294,-2.5294,-2.5294,-2.5294,0.0,0.0,0.0,-2.5786,-2.5877,-2.6052,-2.7339,-2.7968,-2.8135,-2.9269,-2.981,-2.9858,-2.9852,-2.9748,-2.9675,-2.9675,-2.9586,-2.9496,-2.9496,-2.9496,-2.9473,-2.9473,0.0,0.0,0.0,0.0,-2.9555,-3.0264,-3.0879,-3.1498,0.0,0.0,0.0,0.0,0.0,0.0,0.0,0.0,0.0,0.0,0.0,0.0,0.0,0.0,0.0,0.0,0.0,0.0,0.0,0.0,0.0,0.0,0.0,0.0,0.0,0.0,0.0,0.0,0.0,0.0,0.0,0.0,0.0,0.0,0.0,0.0,-4.7149,-4.7369,-4.7521,-4.7688,-4.7886,-4.8398,-4.9144,-5.0353,-5.1398,-5.2227,-5.2359,-5.2409,-5.2409,-5.2409,-5.2283,-5.2066,-5.1868,-5.1684,-5.1462,-5.1258,-5.1183,-5.1183,0.0,0.0,0.0,0.0,0.0,0.0,0.0,0.0,0.0,0.0,0.0,0.0,0.0,0.0,0.0,0.0,0.0,0.0,-2.5298,0.0,0.0,-2.5298,-2.5298,-2.5314,-2.5294,-2.5294,-2.5294,-2.5294,0.0,0.0,0.0,0.0,0.0,-2.6441,-2.7227,-2.7978,-2.8681,-2.8769,-2.914,-2.972,-2.9608,-2.9541,-2.9518,-2.9518,-2.9518,-2.9496,-2.9496,-2.9434,-2.9328,-2.9328,-2.9236,0.0,0.0,0.0,-2.9303,-3.0022,-3.0718,-3.139,0.0,0.0,0.0,0.0,0.0,0.0,0.0,0.0,0.0,0.0,0.0,0.0,0.0,0.0,0.0,0.0,0.0,0.0,0.0,0.0,0.0,0.0,0.0,0.0,0.0,0.0,0.0,0.0,0.0,0.0,0.0,0.0,0.0,0.0,0.0,0.0,-4.6927,-4.7149,-4.7335,-4.7537,-4.7836,-4.8398,-4.911,-4.9309,-5.0137,-5.1498,-5.2127,-5.2409,-5.2409,-5.2409,-5.2283,-5.2066,-5.1868,-5.1684,-5.1462,-5.1258,-5.1183,-5.1183,0.0,0.0,0.0,0.0,0.0,0.0,0.0,0.0,0.0,0.0,0.0,0.0,0.0,0.0,0.0,-2.4926,-2.5045,-2.5143,-2.5201,-2.5259,-2.5275,-2.5201,-2.5201,-2.5182,-2.5123,-2.506,-2.5021,0.0,0.0,0.0,0.0,-2.6814,-2.7121,0.0,0.0,-2.8212,-2.8598,-2.895,-2.9297,-2.9586,-2.9518,-2.945,-2.9389,-2.9389,-2.9344,-2.9275,-2.9275,-2.9252,-2.919,-2.919,-2.9144,-2.9154,-2.9501,0.0,0.0,0.0,-3.1312,0.0,-3.2881,0.0,0.0,0.0,0.0,0.0,0.0,0.0,0.0,0.0,0.0,0.0,0.0,0.0,0.0,0.0,0.0,0.0,0.0,0.0,0.0,0.0,0.0,0.0,0.0,0.0,0.0,0.0,0.0,0.0,0.0,-4.6333,-4.6528,-4.6738,-4.6842,0.0,-4.6876,-4.7098,-4.7352,-4.7621,-4.7869,-4.8166,-4.8514,-4.8912,-4.9906,-5.1332,-5.1647,-5.2028,-5.2409,-5.2409,-5.2211,-5.1904,-5.1815,-5.1594,-5.1312,-5.1221,-5.1183,-5.1183,0.0,0.0,0.0,0.0,0.0,0.0,0.0,0.0,0.0,0.0,0.0,0.0,0.0,0.0,0.0,0.0,-2.4846,-2.493,-2.5009,-2.5143,-2.5182,-2.5088,-2.5048,-2.4989,-2.4946,-2.4822,0.0,0.0,0.0,0.0,-2.5965,-2.7239,-2.7832,0.0,-2.8375,-2.8642,-2.8696,-2.9233,-2.945,-2.9434,-2.9366,-2.9393,-2.946,-2.9437,-2.9477,-2.9517,-2.9517,-2.9517,-2.9517,-2.9517,-2.9517,-2.9611,-3.0049,-3.0197,0.0,0.0,0.0,0.0,0.0,0.0,0.0,0.0,0.0,0.0,0.0,0.0,0.0,0.0,0.0,0.0,0.0,0.0,0.0,0.0,0.0,0.0,0.0,0.0,0.0,0.0,0.0,0.0,0.0,0.0,0.0,0.0,0.0,0.0,0.0,-4.5681,-4.5824,-4.6067,-4.6205,-4.6308,-4.6392,-4.6741,-4.7173,-4.7654,-4.782,-4.7968,-4.8017,-4.858,-4.9525,-5.075,-5.1149,-5.163,-5.2108,-5.2272,-5.2122,-5.1778,-5.1741,-5.152,-5.1183,-5.1183,-5.1183,-5.1183,0.0,0.0,0.0,0.0,0.0,0.0,0.0,0.0,0.0,0.0,0.0,0.0,-2.4609,-2.4609,-2.4609,-2.4609,-2.4609,-2.4686,-2.4802,-2.4926,-2.5005,-2.5005,-2.4866,0.0,-2.4802,-2.4686,0.0,0.0,0.0,0.0,-2.6658,-2.7375,-2.8061,-2.8732,-2.9104,-2.9325,-2.9448,0.0,-2.9305,-2.9282,-2.9036,-2.9352,-2.994,-2.9835,-3.0167,-3.0703,-3.0703,-3.0703,-3.0703,-3.0703,-3.0703,-3.0719,-3.075,-3.0766,-3.0906,0.0,0.0,0.0,0.0,0.0,0.0,0.0,0.0,0.0,0.0,0.0,0.0,0.0,0.0,0.0,0.0,0.0,0.0,0.0,0.0,0.0,0.0,0.0,0.0,0.0,0.0,0.0,0.0,0.0,0.0,0.0,0.0,0.0,-4.4111,-4.4111,-4.4281,-4.4585,-4.4619,-4.4719,-4.4901,-4.5748,-4.6599,-4.7504,-4.7654,-4.782,-4.8001,-4.805,-4.8481,-4.9293,-5.0667,-5.1332,-5.1396,-5.193,-5.1977,-5.1778,-5.1573,-5.1387,-5.1183,-5.1183,-5.1183,-5.1183,0.0,0.0,0.0,0.0,0.0,0.0,0.0,0.0,0.0,0.0,0.0,0.0,0.0,-2.4482,-2.4539,-2.4539,-2.4584,-2.4609,-2.4666,-2.4726,-2.4731,-2.4731,-2.4706,-2.4666,-2.4666,-2.4584,0.0,0.0,0.0,-2.614,-2.6402,-2.7581,-2.8285,-2.8556,-2.885,-2.9014,-2.9053,-2.899,0.0,0.0,0.0,-2.9889,-3.0514,-3.0454,-3.0585,0.0,0.0,0.0,0.0,-3.0787,-3.0787,-3.0865,-3.1182,-3.1321,-3.1435,-3.2006,-3.2377,0.0,0.0,0.0,0.0,0.0,0.0,0.0,0.0,0.0,0.0,0.0,0.0,0.0,0.0,0.0,0.0,0.0,0.0,0.0,0.0,0.0,0.0,0.0,0.0,0.0,0.0,0.0,0.0,0.0,0.0,0.0,-4.3809,-4.3931,-4.4086,-4.4305,-4.4439,-4.4622,-4.4787,-4.5244,-4.5832,-4.6599,-4.6898,-4.7309,-4.782,-4.7935,-4.815,-4.8448,-4.934,-5.023,-5.1121,-5.1314,-5.1494,-5.161,-5.1536,-5.1387,-5.1183,-5.1183,-5.1183,-5.1183,0.0,0.0,0.0,0.0,0.0,0.0,0.0,0.0,0.0,-2.4124,0.0,0.0,0.0,0.0,-2.4416,-2.4421,-2.4523,-2.4564,-2.4564,-2.4589,-2.4609,-2.4609,-2.4569,-2.4544,-2.4508,-2.4421,-2.4374,0.0,0.0,0.0,0.0,-2.7599,-2.8266,-2.8275,-2.846,-2.8628,0.0,0.0,0.0,-2.9815,0.0,0.0,-3.1001,0.0,0.0,0.0,0.0,0.0,0.0,0.0,0.0,-3.1404,-3.1774,-3.1886,-3.1936,-3.2302,-3.2398,0.0,-3.2398,0.0,0.0,0.0,0.0,0.0,0.0,0.0,0.0,0.0,0.0,0.0,0.0,0.0,0.0,0.0,0.0,0.0,0.0,0.0,0.0,0.0,0.0,0.0,0.0,0.0,0.0,0.0,0.0,0.0,-4.3011,-4.3131,-4.3283,-4.3484,-4.3683,-4.4009,-4.4431,-4.4561,-4.5017,-4.575,-4.6274,-4.6766,-4.7292,-4.7655,-4.7836,-4.7869,-4.8214,-4.9217,-5.0653,-5.0741,-5.1103,-5.1499,-5.1424,-5.1312,-5.1183,-5.1183,-5.1183,-5.1183,0.0,0.0,0.0,0.0,0.0,0.0,0.0,0.0,-2.3982,-2.3982,0.0,0.0,0.0,0.0,0.0,-2.4297,-2.44,-2.4477,-2.4477,-2.4544,-2.4589,-2.4589,-2.4523,-2.4421,-2.4281,-2.4229,-2.4124,0.0,0.0,0.0,0.0,0.0,-2.798,-2.798,-2.798,-2.829,-2.8849,0.0,-2.979,-2.9884,0.0,-3.0937,-3.1432,0.0,0.0,0.0,-3.2373,-3.2444,0.0,-3.2428,0.0,0.0,0.0,-3.2398,-3.2398,-3.2398,-3.2398,-3.2398,0.0,0.0,0.0,0.0,0.0,0.0,0.0,0.0,0.0,0.0,0.0,0.0,0.0,0.0,0.0,0.0,0.0,0.0,0.0,0.0,0.0,0.0,0.0,0.0,0.0,0.0,0.0,0.0,0.0,0.0,-4.1588,-4.1621,-4.1753,-4.2077,-4.2318,-4.2815,-4.367,-4.3686,-4.4156,-4.5049,-4.5717,-4.6159,-4.6405,-4.7126,-4.7487,-4.752,-4.747,-4.8391,-4.9893,-5.0229,-5.0782,-5.1429,-5.1258,-5.1183,-5.1183,-5.1183,-5.1183,-5.1183,0.0,0.0,0.0,0.0,0.0,0.0,0.0,-2.3668,-2.3739,0.0,0.0,0.0,-2.4003,-2.4024,-2.4067,-2.4088,-2.4109,-2.413,-2.413,-2.4151,-2.4172,-2.4172,-2.4151,-2.413,-2.4088,-2.4067,0.0,0.0,0.0,0.0,0.0,0.0,0.0,0.0,-2.7665,-2.8137,-2.8834,-2.9093,0.0,0.0,-3.0834,-3.128,0.0,0.0,0.0,0.0,0.0,-3.3201,-3.3625,0.0,-3.3051,-3.3016,0.0,-3.2315,-3.237,-3.2287,-3.2315,-3.2398,-3.2398,0.0,0.0,0.0,0.0,0.0,0.0,0.0,0.0,0.0,0.0,0.0,0.0,0.0,0.0,0.0,0.0,0.0,0.0,0.0,0.0,0.0,0.0,0.0,0.0,0.0,0.0,0.0,0.0,-4.1588,-4.1588,-4.1752,-4.1899,-4.2077,-4.2318,-4.2573,-4.2894,-4.2894,-4.3298,-4.4075,-4.4415,-4.5131,-4.6208,-4.6552,-4.7012,-4.747,-4.7335,-4.7791,-4.8707,-4.9352,-4.9941,-5.0529,-5.101,-5.1183,-5.1183,-5.1183,-5.1183,-5.1183,0.0,0.0,0.0,0.0,0.0,0.0,-2.3385,-2.3451,-2.3523,0.0,0.0,0.0,-2.3919,-2.3903,-2.394,-2.4003,-2.4003,-2.4003,-2.4003,-2.4003,-2.4003,-2.4003,-2.4277,-2.4392,-2.4321,-2.4534,0.0,0.0,0.0,0.0,0.0,0.0,0.0,0.0,0.0,0.0,0.0,0.0,0.0,0.0,-3.1298,0.0,0.0,-3.2378,-3.2787,0.0,0.0,0.0,-3.4013,-3.3602,-3.3385,0.0,0.0,0.0,0.0,0.0,-3.2247,-3.2315,-3.2398,-3.2398,-3.2398,0.0,0.0,0.0,0.0,0.0,0.0,0.0,0.0,0.0,0.0,0.0,0.0,0.0,0.0,0.0,0.0,0.0,0.0,0.0,0.0,0.0,0.0,0.0,0.0,0.0,-4.0719,-4.0719,-4.0719,-4.0912,-4.1215,-4.1661,-4.1868,-4.2138,-4.2602,-4.2602,-4.2813,-4.3233,-4.3669,-4.448,-4.5569,-4.5961,-4.6566,-4.7251,-4.7149,-4.7292,-4.7747,-4.8751,-4.954,-5.0179,-5.0908,-5.1183,-5.1183,-5.1183,-5.1183,-5.1183,0.0,0.0,0.0,0.0,0.0,0.0,0.0,-2.3275,-2.3319,0.0,-2.3487,-2.3553,-2.3717,-2.3754,-2.3827,-2.4046,-2.4061,-2.4091,-2.4173,-2.4152,-2.4167,-2.4167,-2.4706,-2.4957,-2.4852,-2.5315,0.0,0.0,0.0,0.0,0.0,0.0,0.0,0.0,0.0,0.0,0.0,0.0,0.0,-3.1051,-3.1717,-3.2235,0.0,0.0,-3.3321,0.0,-3.3925,-3.4031,-3.4076,-3.4031,-3.3575,0.0,0.0,0.0,0.0,0.0,-3.2163,-3.2219,-3.2342,-3.2398,-3.2398,0.0,0.0,0.0,-3.2398,-3.3098,0.0,0.0,0.0,0.0,0.0,0.0,0.0,0.0,0.0,0.0,0.0,0.0,0.0,0.0,0.0,0.0,0.0,0.0,0.0,-3.9503,-3.9503,-3.9503,-3.9534,-3.969,-4.0179,-4.0988,-4.1209,-4.1671,-4.2473,-4.2554,-4.2602,-4.2619,-4.325,-4.3962,-4.469,-4.5386,-4.6083,-4.6763,-4.6844,-4.6876,-4.6989,-4.835,-4.9337,-5.0066,-5.0876,-5.1183,-5.1183,-5.1183,-5.1146,-5.1146,-2.2795,0.0,0.0,0.0,0.0,0.0,0.0,-2.3149,-2.3179,-2.3319,-2.3341,-2.3363,-2.3385,-2.3407,-2.3674,-2.435,-2.4395,-2.4649,-2.5265,-2.5187,-2.5141,-2.5141,-2.5135,-2.5153,-2.513,-2.5224,0.0,0.0,0.0,0.0,0.0,0.0,0.0,0.0,0.0,0.0,0.0,0.0,0.0,-3.1115,-3.1738,0.0,-3.2211,-3.2898,-3.357,-3.4137,-3.434,-3.4796,-3.5284,0.0,-3.3985,-3.2968,0.0,0.0,0.0,-3.1898,0.0,0.0,0.0,0.0,0.0,0.0,0.0,0.0,-3.2398,-3.2659,0.0,0.0,0.0,0.0,0.0,0.0,0.0,0.0,0.0,0.0,0.0,0.0,0.0,0.0,0.0,0.0,0.0,0.0,0.0,-3.9503,-3.9503,-3.9581,-3.9737,-3.9768,-3.9987,-4.0437,-4.0982,-4.1476,-4.1776,-4.2342,-4.2602,-4.2602,-4.2748,-4.3185,-4.3945,-4.4658,-4.537,-4.605,-4.6633,-4.6876,-4.6957,-4.7848,-4.8609,-4.937,-5.0681,-5.1183,-5.1183,-5.101,-5.0972,-5.0934,-2.2675,0.0,0.0,0.0,0.0,0.0,0.0,0.0,-2.3007,-2.3179,-2.351,-2.3747,-2.3747,-2.4056,-2.4418,-2.4819,-2.4849,-2.5006,-2.5387,-2.5355,-2.5307,-2.5307,-2.5545,-2.5698,-2.5698,-2.5898,-2.5998,0.0,0.0,0.0,0.0,0.0,0.0,0.0,0.0,0.0,0.0,0.0,-3.0087,-3.1105,-3.1731,0.0,-3.2591,-3.3319,-3.4002,-3.4564,-3.4773,-3.519,-3.5531,-3.4949,-3.4317,0.0,0.0,-3.2435,-3.2191,0.0,-3.194,-3.2122,0.0,0.0,0.0,-3.2398,0.0,0.0,0.0,-3.2496,0.0,0.0,0.0,0.0,0.0,0.0,0.0,0.0,0.0,0.0,0.0,0.0,0.0,0.0,0.0,0.0,0.0,0.0,-3.7449,-3.7449,-3.7765,-3.803,-3.8209,-3.8619,-3.912,-3.9725,-4.0169,-4.0792,-4.1596,-4.1921,-4.2278,-4.2602,-4.2602,-4.2991,-4.3735,-4.4464,-4.516,-4.584,-4.6568,-4.6876,-4.6941,-4.7702,-4.8343,-4.8982,-5.0063,-5.0709,-5.101,-5.082,-5.0743,-5.0743,-2.2532,0.0,0.0,0.0,0.0,0.0,0.0,0.0,-2.2869,-2.319,-2.3764,-2.42,-2.4332,-2.4807,-2.5198,-2.5355,-2.5355,-2.5413,-2.5594,-2.557,-2.5536,-2.5497,-2.5996,-2.6249,-2.6224,-2.6544,-2.67,0.0,0.0,0.0,0.0,0.0,0.0,0.0,0.0,0.0,0.0,0.0,0.0,-3.1054,0.0,-3.242,-3.3111,-3.3853,-3.446,-3.4868,-3.5082,-3.5261,-3.535,-3.4829,0.0,-3.4294,-3.308,-3.2617,0.0,0.0,0.0,0.0,0.0,0.0,0.0,0.0,0.0,-3.2398,0.0,0.0,0.0,0.0,0.0,0.0,0.0,0.0,0.0,0.0,0.0,0.0,0.0,0.0,0.0,0.0,0.0,0.0,0.0,0.0,0.0,-3.5394,-3.5916,-3.6273,-3.6441,-3.724,-3.8052,-3.8818,-3.9256,-4.0056,-4.1191,-4.1466,-4.1857,-4.2392,-4.2538,-4.291,-4.3524,-4.4399,-4.5095,-4.5662,-4.6504,-4.6876,-4.6925,-4.7505,-4.8126,-4.8788,-4.9512,-5.0252,-5.0836,-5.0628,-5.055,-5.0534,-2.2394,-2.2417,0.0,0.0,0.0,0.0,0.0,0.0,-2.2861,-2.3539,-2.3824,-2.4156,-2.4752,-2.483,-2.514,-2.5848,-2.5917,0.0,-2.6916,0.0,-2.6732,-2.6614,-2.6512,-2.6409,-2.6279,-2.6324,-2.6367,-2.6367,0.0,0.0,0.0,0.0,0.0,0.0,-2.8426,0.0,0.0,0.0,-3.038,0.0,-3.1718,-3.2482,0.0,-3.4232,-3.4673,-3.4731,-3.4868,-3.5082,-3.5213,0.0,-3.4837,-3.4384,0.0,-3.2976,-3.2377,0.0,0.0,0.0,0.0,0.0,0.0,0.0,-3.2398,0.0,0.0,0.0,0.0,0.0,0.0,0.0,0.0,0.0,0.0,0.0,0.0,0.0,0.0,0.0,0.0,0.0,0.0,0.0,0.0,0.0,0.0,0.0,-3.5458,-3.5601,-3.5879,-3.6606,-3.7179,-3.7494,-3.8812,-3.9586,-3.9748,-4.098,-4.1644,-4.1725,-4.2326,-4.2635,-4.2764,-4.4172,-4.4836,-4.4982,-4.6309,-4.6876,-4.6892,-4.6784,-4.7552,-4.8788,-4.9512,-5.0123,-5.0628,-5.0418,-5.034,-5.0301,-2.2278,-2.2278,-2.2301,0.0,0.0,0.0,0.0,0.0,0.0,-2.3526,-2.435,-2.5001,0.0,0.0,0.0,-2.6948,0.0,-2.755,0.0,0.0,-2.7517,-2.7102,-2.7005,-2.6751,-2.6313,-2.6233,-2.6179,-2.6179,-2.6111,0.0,0.0,0.0,0.0,0.0,-2.8645,0.0,-2.9435,0.0,0.0,0.0,0.0,0.0,0.0,-3.4109,-3.47,-3.5224,-3.5277,-3.5427,-3.5551,0.0,-3.4955,0.0,0.0,0.0,0.0,0.0,0.0,0.0,0.0,0.0,0.0,0.0,0.0,0.0,-3.237,0.0,-3.179,0.0,0.0,0.0,0.0,0.0,0.0,0.0,0.0,0.0,0.0,0.0,0.0,0.0,0.0,0.0,0.0,0.0,0.0,0.0,0.0,-3.4487,-3.5182,-3.5886,-3.6584,-3.7279,-3.7906,-3.8634,-3.9505,-4.0478,-4.1191,-4.1612,-4.2294,-4.2602,-4.2651,-4.414,-4.4787,-4.4868,-4.6277,-4.6876,-4.6876,-4.6687,-4.7123,-4.8011,-4.8605,-4.9467,-5.0379,-5.0184,-5.005,-5.005,-2.2091,-2.2161,-2.2208,0.0,0.0,0.0,0.0,0.0,0.0,0.0,0.0,0.0,-2.6014,-2.6984,0.0,0.0,-2.8152,-2.8354,0.0,0.0,-2.7983,0.0,0.0,0.0,0.0,-2.6607,-2.6524,-2.6497,0.0,0.0,0.0,0.0,0.0,0.0,0.0,-2.9072,-2.9582,0.0,0.0,-3.1574,-3.2328,-3.3117,-3.3895,-3.4249,-3.4984,-3.5799,-3.5799,-3.58,-3.5751,-3.5247,-3.5115,0.0,-3.3799,0.0,0.0,0.0,0.0,0.0,-3.1784,0.0,0.0,0.0,0.0,0.0,0.0,0.0,0.0,0.0,0.0,0.0,0.0,0.0,0.0,0.0,0.0,0.0,0.0,0.0,0.0,0.0,0.0,0.0,0.0,0.0,0.0,0.0,-3.2629,0.0,-3.4184,-3.5038,-3.5894,-3.6697,-3.7085,-3.7825,-3.8877,-3.9768,-4.0607,-4.132,-4.2002,-4.2408,-4.2651,-4.414,-4.4787,-4.4868,-4.6277,-4.6876,-4.6807,-4.6598,-4.684,-4.736,-4.784,-4.8818,-4.9914,-4.9892,-4.9876,-4.9876,-2.1793,-2.202,0.0,0.0,0.0,0.0,0.0,0.0,0.0,0.0,0.0,0.0,0.0,0.0,0.0,0.0,0.0,-2.8197,-2.8197,0.0,-2.8111,0.0,0.0,-2.7909,0.0,0.0,-2.7661,0.0,0.0,0.0,0.0,0.0,0.0,0.0,0.0,-2.9212,-2.9457,-3.0039,-3.0765,-3.1541,-3.2159,-3.3233,-3.4498,0.0,-3.558,-3.6272,-3.6272,0.0,0.0,-3.5575,-3.5267,0.0,0.0,0.0,0.0,0.0,0.0,0.0,0.0,0.0,0.0,-3.1968,0.0,0.0,0.0,0.0,-3.1213,0.0,0.0,0.0,0.0,0.0,-2.8723,-2.8905,-2.892,0.0,0.0,0.0,0.0,0.0,0.0,0.0,0.0,0.0,0.0,0.0,-3.1928,0.0,-3.2743,-3.4072,-3.4973,-3.525,-3.6594,-3.7311,-3.736,-3.8796,-3.9878,-4.0529,-4.1288,-4.197,-4.2651,-4.414,-4.4787,-4.4868,-4.6277,-4.6772,-4.6582,-4.6404,-4.6606,-4.7177,-4.7684,-4.832,-4.9038,-4.9663,-4.9876,-4.9876,-2.1793,-2.1864,0.0,0.0,0.0,0.0,0.0,-2.3725,0.0,0.0,0.0,0.0,0.0,0.0,-2.8583,0.0,0.0,-2.9245,-2.9245,-2.9183,0.0,0.0,0.0,-2.8183,0.0,0.0,0.0,0.0,0.0,0.0,0.0,0.0,0.0,0.0,0.0,-2.9352,0.0,0.0,0.0,0.0,0.0,-3.422,-3.5208,0.0,0.0,-3.6772,-3.6932,-3.6569,0.0,-3.5592,-3.5142,-3.4633,-3.4006,-3.375,-3.3551,-3.2919,-3.2315,0.0,0.0,0.0,-3.1626,-3.1813,0.0,0.0,0.0,0.0,0.0,0.0,0.0,0.0,0.0,-2.8541,-2.8621,-2.8677,-2.8443,-2.8261,0.0,0.0,0.0,0.0,0.0,0.0,0.0,0.0,0.0,-3.0496,-3.0773,0.0,0.0,-3.3102,-3.3918,-3.5023,-3.6088,-3.6842,-3.7295,-3.8748,-3.9862,-4.0496,-4.1255,-4.1938,-4.2635,-4.3638,-4.4334,-4.4852,-4.569,-4.6249,-4.6598,-4.6278,-4.6259,-4.6473,-4.6972,-4.7609,-4.8367,-4.9505,-4.9876,-4.9876,-2.1664,0.0,0.0,0.0,0.0,0.0,0.0,0.0,0.0,0.0,-2.6821,0.0,-2.819,0.0,-2.9343,0.0,-3.0072,-3.0408,-3.0408,-3.0263,0.0,-2.9316,-2.9181,0.0,0.0,0.0,0.0,0.0,0.0,-2.7965,0.0,0.0,0.0,0.0,0.0,0.0,0.0,0.0,-3.1471,0.0,0.0,-3.4677,0.0,0.0,-3.6653,0.0,0.0,-3.6997,-3.6243,-3.5836,-3.5228,-3.4524,-3.4086,-3.3893,-3.3759,-3.3365,-3.284,-3.2342,-3.2227,-3.1976,0.0,0.0,-3.1756,0.0,-3.2025,0.0,0.0,0.0,0.0,0.0,0.0,0.0,-2.8525,-2.8597,-2.814,-2.763,0.0,-2.6881,0.0,0.0,0.0,0.0,0.0,0.0,-2.8948,-2.9429,-2.9919,-3.0648,0.0,0.0,-3.3136,-3.423,-3.5291,-3.6185,-3.6923,-3.8116,-3.9314,-4.0496,-4.0966,-4.1695,-4.2619,-4.3331,-4.4026,-4.4721,-4.5262,-4.5832,-4.6404,-4.6203,-4.6076,-4.6067,-4.6587,-4.7087,-4.7672,-4.9047,-4.971,-4.9876,0.0,0.0,0.0,0.0,-2.239,0.0,0.0,0.0,-2.5939,0.0,-2.7352,-2.8057,-2.8717,-2.9307,-2.9897,-3.0484,-3.1134,0.0,-3.1485,-3.1285,0.0,0.0,-3.015,-2.9762,-2.9154,0.0,0.0,0.0,0.0,0.0,0.0,0.0,0.0,0.0,-2.8587,0.0,-2.9783,-3.0559,-3.1397,-3.2319,-3.3696,-3.4646,-3.5339,-3.6109,0.0,-3.7891,-3.7891,-3.722,-3.6301,-3.6301,-3.5459,-3.4414,-3.4414,-3.4008,-3.358,-3.3682,-3.3261,-3.2681,-3.2358,-3.2242,-3.2094,-3.1647,0.0,0.0,0.0,0.0,-3.1044,0.0,0.0,0.0,0.0,0.0,0.0,-2.8565,-2.8008,-2.7114,-2.5911,0.0,0.0,0.0,0.0,0.0,0.0,-2.7668,-2.8063,-2.8094,-2.935,-3.0172,0.0,0.0,0.0,-3.286,-3.4253,-3.541,-3.6276,-3.6956,-3.8391,-4.0496,-4.0496,-4.1241,-4.2619,-4.3186,-4.383,-4.4505,-4.5026,-4.5572,-4.6112,-4.6112,-4.5952,-4.5871,-4.6503,-4.6771,-4.6961,-4.8367,-4.9299,-4.9829,-2.1993,-2.2429,-2.2902,0.0,-2.3633,-2.4041,0.0,0.0,0.0,0.0,-2.813,-2.8708,-2.9908,-3.0161,-3.0544,-3.119,-3.1254,0.0,0.0,0.0,0.0,-3.074,-3.0707,-3.0317,-2.9548,-2.9548,0.0,-2.8651,0.0,0.0,-2.8587,0.0,0.0,0.0,0.0,0.0,-3.0242,-3.0596,-3.1792,-3.3539,-3.4531,-3.533,0.0,0.0,-3.72,-3.7701,-3.7853,-3.722,-3.6301,-3.6301,-3.5459,-3.4414,-3.4414,-3.4298,-3.4167,-3.4201,-3.3868,-3.341,-3.3346,-3.2769,-3.2183,-3.205,-3.1811,-3.1626,0.0,0.0,0.0,0.0,0.0,0.0,0.0,0.0,0.0,-2.8444,-2.7512,-2.6333,0.0,0.0,0.0,0.0,0.0,0.0,0.0,0.0,-2.7557,-2.8047,-2.8426,0.0,0.0,0.0,0.0,-3.2579,-3.4159,-3.5368,-3.6088,-3.6896,-3.8391,-4.0496,-4.0496,-4.118,-4.2445,-4.2606,-4.3282,-4.4271,-4.4309,-4.5002,-4.6076,-4.5932,-4.5859,-4.5823,-4.5997,-4.636,-4.6961,-4.8367,-4.8999,-4.9157,-2.2619,0.0,0.0,-2.438,0.0,0.0,-2.5458,0.0,0.0,-2.8436,-2.8889,0.0,-3.0676,-3.0964,-3.1238,-3.1716,-3.1811,0.0,0.0,0.0,0.0,-3.1234,-3.1103,-3.0726,-3.0038,-2.9751,0.0,-2.898,0.0,0.0,-2.8587,0.0,0.0,0.0,0.0,-2.9265,0.0,-3.1261,-3.2477,-3.3985,-3.4862,0.0,0.0,-3.6754,-3.7264,-3.7625,-3.7739,-3.7146,-3.6301,-3.6301,-3.5459,-3.4414,-3.4414,-3.4414,-3.4414,-3.4414,-3.422,-3.397,-3.3776,-3.3084,-3.2386,-3.2227,-3.1797,-3.1467,-3.1626,-3.1727,-3.1554,0.0,0.0,0.0,0.0,0.0,0.0,-2.7572,-2.6903,0.0,0.0,0.0,0.0,0.0,0.0,0.0,0.0,0.0,0.0,0.0,0.0,0.0,0.0,0.0,0.0,0.0,-3.354,-3.4861,-3.591,-3.6398,-3.787,-4.0271,-4.0271,-4.0997,-4.2286,-4.2206,-4.2877,-4.4118,-4.3929,-4.4668,-4.5968,-4.5859,-4.5807,-4.5807,-4.5807,-4.6044,-4.6503,-4.7577,-4.8177,-4.8446,0.0,0.0,0.0,0.0,0.0,0.0,0.0,-2.7189,0.0,-2.8853,0.0,-3.0389,-3.1193,-3.1571,-3.1903,-3.2166,0.0,-3.2668,-3.2668,-3.2489,-3.2176,-3.1705,-3.1515,-3.1137,-3.054,-2.9998,-2.9665,0.0,0.0,0.0,0.0,0.0,0.0,0.0,0.0,0.0,0.0,-3.2093,-3.3198,0.0,-3.489,-3.5611,-3.6286,-3.6782,-3.7226,-3.7572,-3.7586,-3.7092,-3.6431,-3.6344,-3.5517,-3.453,-3.4443,-3.4414,-3.4414,-3.4414,-3.4414,-3.4317,-3.3915,-3.332,-3.274,-3.2357,-3.1827,-3.1426,-3.1468,-3.1626,-3.156,-3.0839,-3.0313,0.0,0.0,0.0,0.0,0.0,0.0,0.0,0.0,0.0,0.0,0.0,0.0,0.0,0.0,0.0,0.0,0.0,0.0,0.0,0.0,0.0,0.0,0.0,-3.2676,0.0,-3.5751,0.0,-3.723,-3.9998,-3.9998,-4.075,-4.2093,-4.1947,-4.2596,-4.3836,-4.3725,-4.4429,-4.5665,-4.5776,-4.5807,-4.5807,-4.5807,-4.5807,-4.5886,-4.6455,-4.7071,-4.764,0.0,0.0,0.0,0.0,0.0,-2.7393,-2.7393,-2.8008,-2.8738,-2.9436,-3.0103,0.0,-3.1619,-3.1771,-3.1999,-3.2546,-3.2506,0.0,0.0,0.0,0.0,-3.2092,-3.2055,-3.1748,-3.1151,-3.1029,-3.0486,0.0,0.0,0.0,0.0,0.0,0.0,0.0,0.0,0.0,-3.1213,-3.2272,0.0,-3.4501,-3.4999,-3.5864,-3.6838,-3.695,-3.7148,-3.738,-3.7534,-3.7379,-3.7056,-3.6504,-3.5807,-3.5145,-3.4574,-3.4414,-3.4414,-3.4414,-3.4414,-3.4385,-3.4302,-3.3893,-3.3366,-3.2754,-3.2326,-3.1916,-3.144,-3.1438,-3.1402,-3.0824,-3.0247,-2.9679,-2.9128,0.0,0.0,0.0,0.0,0.0,0.0,0.0,0.0,0.0,0.0,0.0,0.0,0.0,0.0,0.0,0.0,0.0,0.0,0.0,0.0,0.0,0.0,0.0,0.0,0.0,0.0,-3.9998,-3.9998,-4.0687,-4.1931,-4.1898,-4.2293,-4.2968,-4.3485,-4.4129,-4.4954,-4.5555,-4.5807,-4.5807,-4.5807,-4.5807,-4.5823,-4.5934,-4.606,-4.6266,0.0,0.0,0.0,0.0,0.0,0.0,0.0,-2.9143,0.0,-3.0018,-3.0576,-3.128,-3.203,-3.2042,-3.2151,-3.2497,-3.2395,-3.23,-3.23,-3.2241,-3.2218,-3.2218,-3.2218,0.0,-3.1762,-3.145,-3.1015,-3.0418,0.0,0.0,-2.9048,0.0,0.0,0.0,0.0,-3.0744,0.0,0.0,0.0,-3.4657,-3.5391,-3.6216,-3.6978,-3.6978,-3.7109,-3.7341,-3.7534,-3.7577,-3.7488,-3.6613,-3.5894,-3.529,-3.4617,-3.4414,-3.4414,-3.4414,-3.4414,-3.4414,-3.4414,-3.4016,-3.3459,-3.2835,-3.2348,-3.1884,-3.1412,-3.1351,-3.1348,-3.1134,-3.0351,-2.944,-2.8545,-2.8292,0.0,0.0,0.0,0.0,0.0,0.0,0.0,0.0,0.0,0.0,0.0,0.0,0.0,0.0,0.0,0.0,0.0,0.0,0.0,0.0,0.0,0.0,0.0,0.0,0.0,-3.9752,-3.9752,-4.0436,-4.1752,-4.1752,-4.2099,-4.271,-4.3042,-4.3769,-4.4764,-4.5507,-4.5807,-4.5807,-4.5807,-4.5807,-4.5807,-4.5807,-4.5807,-4.5855,0.0,-2.6592,0.0,0.0,-2.7908,0.0,0.0,-3.012,-3.0595,-3.0595,-3.111,-3.1724,-3.2304,-3.2277,-3.2241,-3.2359,-3.2277,-3.2218,-3.2218,-3.2218,-3.2218,-3.2218,-3.2218,-3.2218,-3.2218,-3.1721,-3.1422,0.0,0.0,0.0,0.0,0.0,0.0,0.0,0.0,0.0,0.0,0.0,-3.4039,-3.4685,-3.5713,-3.6469,-3.6978,-3.6978,-3.7109,-3.7264,-3.7457,-3.7663,-3.7667,-3.6592,-3.5946,-3.5465,-3.4661,-3.4414,-3.4414,-3.4414,-3.4414,-3.4414,-3.4414,-3.4051,-3.3503,-3.2815,-3.2326,-3.1864,-3.1383,-3.1292,-3.1351,-3.1467,-3.0492,-2.9274,-2.8228,-2.8056,0.0,0.0,0.0,0.0,0.0,0.0,0.0,0.0,0.0,0.0,0.0,0.0,0.0,0.0,0.0,0.0,0.0,0.0,0.0,0.0,0.0,0.0,-3.5363,0.0,-3.6769,0.0,-3.9503,-4.023,-4.1588,-4.1588,-4.1904,-4.2457,-4.2616,-4.3453,-4.4764,-4.5349,-4.5665,-4.5807,-4.5807,-4.5807,-4.5807,-4.5807,-4.5807,-4.5807,0.0,0.0,0.0,0.0,0.0,0.0,0.0,-3.0459,-3.1219,-3.1219,-3.1721,-3.2151,-3.2205,-3.2218,-3.2218,-3.2205,-3.2218,-3.2218,-3.2218,-3.2218,-3.2218,-3.2218,-3.2218,-3.2218,-3.2218,-3.2151,-3.1829,0.0,0.0,0.0,0.0,0.0,0.0,0.0,0.0,0.0,0.0,-3.3257,-3.4039,-3.4685,-3.5713,-3.6469,-3.6978,-3.6978,-3.7017,-3.707,-3.7264,-3.7457,-3.7463,-3.641,-3.6114,-3.6011,-3.4791,-3.4414,-3.4414,-3.4414,-3.4414,-3.4414,-3.4414,-3.437,-3.4037,-3.2817,-3.2582,-3.2359,-3.1353,-3.1205,-3.1351,-3.1467,-3.0492,-2.9409,-2.883,-2.8223,-2.79,0.0,0.0,0.0,0.0,0.0,0.0,0.0,0.0,0.0,0.0,0.0,0.0,0.0,0.0,0.0,0.0,0.0,0.0,0.0,0.0,-3.2629,-3.5363,-3.5394,0.0,-3.9503,-3.9503,-4.023,-4.1588,-4.1588,-4.1636,-4.1731,-4.2394,-4.3453,-4.4717,-4.478,-4.5207,-4.5807,-4.5807,-4.5807,-4.5807,-4.5807,-4.5807,-4.5807,0.0,0.0,0.0,0.0,0.0,0.0,0.0,-3.0975,-3.1422,-3.1775,-3.2069,-3.2218,-3.2218,-3.2218,-3.2218,-3.2218,-3.2218,-3.2218,-3.2218,-3.2218,-3.2218,-3.2218,-3.2218,-3.2218,-3.2218,-3.2218,-3.2096,0.0,0.0,0.0,0.0,0.0,0.0,0.0,0.0,-3.2191,-3.2826,-3.3822,-3.4578,-3.5225,-3.6259,-3.6768,-3.6978,-3.6978,-3.6978,-3.7017,-3.7226,-3.7191,-3.6962,-3.6244,-3.6122,-3.6083,-3.4806,-3.4414,-3.4414,-3.4414,-3.4414,-3.4414,-3.4414,-3.4414,-3.4076,-3.2832,-3.2544,-3.2322,-3.1323,-3.1132,-3.1249,-3.1453,-3.0492,-2.9397,-2.879,-2.8192,-2.7865,0.0,0.0,0.0,0.0,0.0,0.0,0.0,0.0,0.0,0.0,0.0,0.0,0.0,0.0,0.0,0.0,0.0,0.0,-3.1167,0.0,-3.2993,-3.5363,-3.5394,-3.6769,-3.9503,-3.9503,-4.023,-4.1588,-4.1588,-4.1588,-4.1636,-4.2363,-4.2995,-4.3532,-4.3943,-4.4527,-4.5144,-4.5144,-4.5428,-4.5807,-4.5807,-4.5807,-4.5807,-2.7963,0.0,-2.898,0.0,-2.9801,-3.033,-3.1165,-3.1436,-3.1707,-3.2151,-3.2218,-3.2218,-3.2218,-3.2218,-3.2218,-3.2218,-3.2218,-3.2218,-3.2218,-3.2218,-3.2218,-3.2218,-3.2218,0.0,-3.2218,-3.2218,-3.2218,-3.2218,-3.1762,0.0,0.0,0.0,0.0,0.0,-3.2028,-3.2544,-3.3179,-3.4179,-3.4938,-3.5585,-3.6584,-3.6978,-3.6978,-3.6978,-3.6978,-3.7003,-3.7013,-3.6902,-3.659,-3.5956,-3.5848,-3.5836,-3.4762,-3.4414,-3.4414,-3.4414,-3.4414,-3.4414,-3.4414,-3.4414,-3.4076,-3.2832,-3.2481,-3.2242,-3.1323,-3.1117,-3.1161,-3.1453,-3.0642,-2.9654,-2.9011,-2.8415,-2.8032,0.0,0.0,0.0,0.0,0.0,0.0,0.0,0.0,0.0,0.0,0.0,0.0,0.0,0.0,0.0,0.0,0.0,0.0,0.0,0.0,0.0,0.0,0.0,-3.6916,-3.944,-3.944,-4.0198,-4.1588,-4.1588,-4.1588,-4.162,-4.2141,-4.2489,-4.2726,-4.3216,-4.3816,-4.4417,-4.4417,-4.4697,-4.5191,-4.5191,-4.5317,-4.5491,-2.8587,-2.9081,-2.9502,-2.9515,-3.0473,-3.1273,-3.13,-3.1789,-3.2205,-3.2218,-3.2218,-3.2218,-3.2218,-3.2218,-3.2218,-3.2218,-3.2218,-3.2218,-3.2218,-3.2218,-3.2218,0.0,0.0,-3.2218,-3.2218,-3.2218,-3.2218,-3.2218,0.0,0.0,-3.2205,0.0,0.0,-3.2205,-3.2218,-3.2544,-3.3179,-3.4179,-3.4938,-3.5585,-3.6584,-3.6978,-3.6978,-3.6978,-3.6978,-3.6947,-3.6533,-3.6546,-3.6533,-3.5482,-3.5247,-3.529,-3.4617,-3.4414,-3.4414,-3.4414,-3.4414,-3.4414,-3.4414,-3.4414,-3.4076,-3.2832,-3.2481,-3.2242,-3.1323,-3.1117,-3.1161,-3.1453,-3.0943,-3.0298,-2.9711,-2.9026,-2.8445,-2.8061,0.0,0.0,0.0,0.0,0.0,0.0,0.0,0.0,0.0,0.0,0.0,0.0,0.0,0.0,0.0,0.0,0.0,-3.1167,-3.2566,0.0,-3.509,-3.5828,-3.7225,-3.9298,-3.9298,-4.0117,-4.1588,-4.1588,-4.1588,-4.1588,-4.1604,-4.2015,-4.2695,-4.2695,-4.3121,-4.3703,-4.3703,-4.3703,-4.3718,-4.3718,-4.4129,-4.4717,-2.9149,-2.938,-2.9774,-3.0568,-3.1029,-3.1436,-3.1829,-3.2096,-3.2218,-3.2218,-3.2218,-3.2218,-3.2218,-3.2218,-3.2218,0.0,-3.2218,-3.2218,0.0,-3.2218,-3.2218,-3.2218,-3.2218,-3.2218,-3.2218,-3.2218,-3.2218,-3.2218,0.0,0.0,0.0,-3.2218,-3.2218,-3.2218,-3.2218,-3.2604,-3.326,-3.3776,-3.4653,-3.5725,-3.6214,-3.6399,-3.6399,-3.6399,-3.6131,-3.5752,-3.5741,-3.5585,-3.5353,-3.518,-3.4923,-3.4675,-3.4472,-3.4414,-3.4414,-3.4414,-3.4414,-3.4414,-3.4414,-3.4414,-3.4076,-3.2832,-3.2576,-3.2384,-3.1338,-3.1249,-3.1395,-3.1467,-3.0957,-3.0447,-3.0253,-2.9325,-2.8584,-2.8565,0.0,0.0,0.0,0.0,0.0,0.0,0.0,0.0,0.0,0.0,0.0,0.0,0.0,0.0,0.0,0.0,0.0,0.0,-3.3187,0.0,-3.5106,-3.5712,-3.7089,-3.9298,-3.9298,-4.0117,-4.1588,-4.1588,-4.1588,-4.1588,-4.1588,-4.1715,-4.1936,-4.1936,-4.2363,-4.3011,-4.3011,-4.3311,-4.3687,-4.3687,-4.3829,-4.4003,-2.9434,-2.9849,-3.0391,-3.1165,-3.1477,-3.1762,-3.2151,-3.2218,-3.2218,-3.2218,-3.2218,-3.2218,-3.2218,-3.2218,0.0,-3.2218,-3.2218,0.0,-3.2218,-3.2218,-3.2218,-3.2218,-3.2218,-3.2218,-3.2218,0.0,0.0,-3.2218,-3.2218,-3.2218,-3.2218,-3.2218,-3.2218,-3.2218,-3.2241,-3.2664,-3.3307,-3.3652,-3.4395,-3.5453,-3.5653,-3.5766,-3.5766,-3.5766,-3.5564,-3.5272,-3.5192,-3.5046,-3.4888,-3.4868,-3.4645,-3.4414,-3.4414,-3.4414,-3.4414,-3.4414,-3.4414,-3.4414,-3.4414,-3.424,-3.3804,-3.2824,-3.2467,-3.217,-3.1368,-3.1336,-3.1511,-3.1511,-3.1167,-3.0806,-3.0552,-2.9849,-2.9199,-2.8861,0.0,0.0,0.0,0.0,0.0,0.0,0.0,0.0,0.0,-2.8411,0.0,0.0,0.0,0.0,0.0,0.0,0.0,-3.2276,-3.3797,0.0,-3.5106,-3.5947,-3.737,-3.9298,-3.9881,-4.0686,-4.1588,-4.1588,-4.1588,-4.1588,-4.1588,-4.1588,-4.1588,-4.1588,-4.1857,-4.2284,-4.2284,-4.2537,-4.2916,-4.2916,-4.3105,-4.3327,-2.957,-3.0486,0.0,0.0,-3.1816,0.0,-3.2218,-3.2218,-3.2205,-3.2205,-3.2205,-3.2205,-3.2241,-3.2241,-3.2241,-3.2241,0.0,0.0,0.0,-3.2218,-3.2218,-3.2218,-3.2218,0.0,-3.2218,-3.2218,-3.2218,-3.2218,-3.2218,-3.2205,-3.2205,-3.2205,-3.2205,-3.2241,-3.2359,-3.2754,-3.3312,-3.3692,-3.42,-3.4785,-3.5008,-3.5133,-3.5156,-3.5156,-3.5215,-3.5249,-3.4897,-3.4874,-3.4963,-3.4549,-3.4414,-3.4414,-3.4414,-3.4414,-3.4414,-3.4414,-3.4414,-3.4414,-3.4414,-3.3983,-3.3376,-3.2835,-3.2225,-3.1674,-3.1367,-3.1409,-3.1511,-3.1511,-3.1511,-3.1316,-3.0687,-3.0537,-3.0158,-2.9091,-2.8949,-2.8819,-2.8314,0.0,0.0,0.0,0.0,0.0,0.0,-2.8442,-2.8473,0.0,0.0,0.0,0.0,0.0,0.0,-3.2418,-3.4352,-3.531,-3.5184,-3.6519,-3.7885,-3.9314,-4.086,-4.1588,-4.1588,-4.1588,-4.1588,-4.1588,-4.1588,-4.1588,-4.1588,-4.1588,-4.1588,-4.1588,-4.1588,-4.1588,-4.1588,-4.1588,-4.2015,-4.2616,0.0,0.0,-3.1436,-3.1897,-3.2123,-3.2218,-3.2218,-3.2218,-3.2241,-3.2322,-3.2359,-3.2431,-3.2561,-3.2561,-3.2561,-3.2561,-3.2336,-3.2218,-3.2218,-3.2218,-3.2218,-3.2218,-3.2218,-3.2218,-3.2218,-3.2218,-3.2218,-3.2218,-3.2218,-3.2241,-3.2359,-3.2359,-3.2431,-3.2561,-3.2596,-3.2786,-3.309,-3.3161,-3.3645,-3.4341,-3.4413,-3.4536,-3.4681,-3.4681,-3.4491,-3.4276,-3.4243,-3.4289,-3.4329,-3.4404,-3.4414,-3.4414,-3.4414,-3.4414,-3.4414,-3.4414,-3.4414,-3.4414,-3.4414,-3.4035,-3.351,-3.2867,-3.2058,-3.1412,-3.1453,-3.1467,-3.1511,-3.1511,-3.1511,-3.1451,-3.1286,-3.0866,-3.0402,-3.0143,-2.938,-2.8843,-2.8804,0.0,0.0,0.0,-2.8411,-2.8411,-2.8411,-2.8873,-2.9156,0.0,0.0,0.0,0.0,0.0,-3.2839,-3.3799,-3.4699,-3.5417,-3.5938,-3.6682,-3.7793,-3.9314,-4.086,-4.1588,-4.1588,-4.1588,-4.1588,-4.1588,-4.1588,-4.1588,-4.1588,-4.1588,-4.1588,-4.1588,-4.1588,-4.1588,-4.1588,-4.1588,-4.1699,-4.1841,-3.069,-3.13,-3.1789,-3.2151,-3.2218,-3.2205,-3.2264,-3.23,-3.2359,-3.2525,-3.2561,-3.2596,-3.2704,-3.2704,-3.2704,-3.2704,-3.2467,-3.23,-3.23,-3.2241,-3.2218,-3.2218,-3.2218,-3.2218,-3.2218,-3.2218,-3.2241,-3.23,-3.2372,-3.2467,-3.2561,-3.2561,-3.2596,-3.2704,-3.281,-3.2917,-3.3023,-3.3108,-3.3388,-3.3782,-3.3888,-3.3995,-3.4115,-3.4186,-3.4147,-3.4005,-3.4059,-3.4162,-3.423,-3.4346,-3.4414,-3.4414,-3.4414,-3.4414,-3.4414,-3.4414,-3.4414,-3.4341,-3.4151,-3.3682,-3.3062,-3.2248,-3.1723,-3.1409,-3.1467,-3.1511,-3.1511,-3.1511,-3.1511,-3.1511,-3.1511,-3.1197,-3.0866,-3.0552,-3.0114,-2.961,-2.9072,-2.9124,0.0,-2.8879,-2.9135,-2.9294,-2.9294,-2.9633,-2.9848,-2.9848,0.0,0.0,-3.1779,-3.2799,-3.3654,-3.4273,-3.5215,-3.5883,-3.6292,-3.721,-3.812,-3.8952,-4.0434,-4.113,-4.1146,-4.1446,-4.1588,-4.1588,-4.1588,-4.1588,-4.1588,-4.1588,-4.1588,-4.1588,-4.1588,-4.167,-4.1752,-4.1752,-4.1768,-4.1818,-3.1178,-3.1775,-3.2218,-3.2241,-3.2241,-3.2264,-3.2417,-3.2453,-3.2525,-3.2739,-3.2739,-3.2775,-3.2775,-3.2775,-3.2775,-3.2775,-3.2596,-3.2489,-3.2453,-3.2336,-3.2277,-3.2277,-3.2277,-3.2277,-3.2277,-3.2277,-3.2336,-3.2453,-3.2632,-3.2739,-3.2739,-3.2739,-3.2775,-3.281,-3.2966,-3.3072,-3.3072,-3.3276,-3.3361,-3.3361,-3.357,-3.364,-3.3709,-3.3848,-3.4005,-3.4162,-3.4162,-3.4264,-3.4414,-3.4414,-3.4414,-3.4414,-3.4414,-3.4414,-3.4385,-3.4298,-3.4269,-3.4205,-3.3817,-3.3179,-3.2423,-3.156,-3.1409,-3.1511,-3.1511,-3.1511,-3.1511,-3.1511,-3.1511,-3.1511,-3.1511,-3.1511,-3.1316,-3.079,-3.0847,-3.06,-2.9488,0.0,-3.0186,-2.9617,-3.0048,-3.0402,-3.0402,-3.0479,-3.054,-3.054,-3.1193,0.0,0.0,-3.3314,-3.4203,-3.4462,-3.5726,-3.644,-3.655,-3.7859,-3.8507,-3.8539,-3.9819,-4.0435,-4.0451,-4.102,-4.1305,-4.1321,-4.1321,-4.1401,-4.1529,-4.1529,-4.1592,-4.1687,-4.1687,-4.1768,-4.1931,-4.1931,-4.2012,-4.2109,-3.1178,-3.1775,-3.2241,-3.2359,-3.2359,-3.2417,-3.2632,-3.2668,-3.2739,-3.2917,-3.2952,-3.3037,-3.3206,-3.3206,-3.3206,-3.3206,-3.3037,-3.2846,-3.2668,-3.2632,-3.2632,-3.2632,-3.2632,-3.2632,-3.2632,-3.2632,-3.2632,-3.2668,-3.2668,-3.281,-3.2952,-3.2952,-3.3037,-3.3206,-3.3241,-3.3241,-3.3276,-3.3466,-3.3536,-3.357,-3.3793,-3.3902,-3.4025,-3.4059,-3.421,-3.4346,-3.4346,-3.438,-3.4414,-3.4414,-3.4414,-3.4414,-3.4414,-3.4414,-3.4312,-3.3808,-3.3733,-3.3787,-3.3718,-3.3015,-3.2168,-3.1603,-3.1467,-3.1511,-3.1511,-3.1511,-3.1511,-3.1511,-3.1511,-3.1511,-3.1511,-3.1511,-3.1523,-3.1592,-3.1164,-3.0849,0.0,0.0,-3.0236,-3.0248,-3.034,-3.0402,-3.0402,-3.092,-3.1228,-3.1228,-3.1983,-3.252,-3.2714,-3.4175,-3.5068,-3.5221,-3.5982,-3.6706,-3.7306,-3.8112,-3.8507,-3.8523,-3.9297,-3.9677,-3.9677,-3.9771,-3.9898,-4.0086,-4.0086,-4.0499,-4.1167,-4.1167,-4.1502,-4.2013,-4.2013,-4.2045,-4.2093,-4.2093,-4.2077,-4.2109,-3.1877,-3.2288,-3.2503,-3.2561,-3.2561,-3.2632,-3.2846,-3.2846,-3.2917,-3.3157,-3.3157,-3.3206,-3.329,-3.329,-3.329,-3.329,-3.3206,-3.3122,-3.3051,-3.281,-3.2704,-3.2704,-3.2704,-3.2704,-3.2704,-3.281,-3.2846,-3.2846,-3.2966,-3.3086,-3.3157,-3.3157,-3.3206,-3.329,-3.329,-3.3361,-3.3466,-3.357,-3.364,-3.3793,-3.3951,-3.4025,-3.4128,-3.423,-3.4312,-3.4414,-3.4414,-3.4414,-3.4414,-3.4414,-3.4414,-3.4414,-3.4414,-3.4182,-3.3881,-3.3675,-3.322,-3.279,-3.2869,-3.2375,-3.1752,-3.1541,-3.1511,-3.1511,-3.1511,-3.1511,-3.1511,-3.1511,-3.1511,-3.1539,-3.1641,-3.167,-3.1727,-3.1898,-3.1695,0.0,0.0,-3.1309,-3.1255,-3.0982,-3.1259,-3.149,-3.149,-3.1821,-3.2044,-3.2044,-3.2505,-3.2983,-3.3505,-3.4591,-3.5427,-3.5903,-3.6627,-3.7148,-3.751,-3.7796,-3.7954,-3.797,-3.8649,-3.8996,-3.9073,-3.9469,-3.9752,-3.9892,-3.9892,-4.0145,-4.0511,-4.0511,-4.091,-4.1565,-4.1565,-4.1853,-4.227,-4.227,-4.2318,-4.2365,-3.2275,-3.2593,-3.2704,-3.2775,-3.2775,-3.2846,-3.3108,-3.3143,-3.3213,-3.3417,-3.3431,-3.3431,-3.3431,-3.3431,-3.3431,-3.3431,-3.3431,-3.3431,-3.3361,-3.3086,-3.2881,-3.2846,-3.2846,-3.2846,-3.2846,-3.3002,-3.3072,-3.3072,-3.3241,-3.329,-3.329,-3.329,-3.329,-3.329,-3.3361,-3.3466,-3.3605,-3.3675,-3.3813,-3.3951,-3.4108,-3.4162,-3.4196,-3.4346,-3.4414,-3.4414,-3.4414,-3.4414,-3.4414,-3.4414,-3.4312,-3.4196,-3.423,-3.3812,-3.3307,-3.3293,-3.2601,-3.187,-3.196,-3.1752,-3.1511,-3.1511,-3.1511,-3.1511,-3.1511,-3.1539,-3.1568,-3.1568,-3.1597,-3.1655,-3.1813,-3.1841,-3.1898,-3.201,0.0,0.0,0.0,-3.202,-3.2225,-3.1744,-3.2129,-3.2453,-3.2523,-3.2621,-3.2676,-3.2676,-3.2827,-3.3286,-3.4054,-3.4832,-3.5676,-3.6614,-3.7196,-3.751,-3.751,-3.751,-3.751,-3.751,-3.8047,-3.8375,-3.8495,-3.9098,-3.9428,-3.958,-3.958,-3.9706,-3.9897,-3.9897,-4.0314,-4.0939,-4.0939,-4.1466,-4.2234,-4.2266,-4.2425,-4.2665,-3.1737,-3.2317,-3.2775,-3.2952,-3.2988,-3.3108,-3.3501,-3.357,-3.364,-3.3827,-3.3862,-3.3862,-3.3862,-3.3862,-3.3862,-3.3862,-3.3862,-3.3793,-3.3605,-3.3536,-3.3466,-3.3241,-3.3255,-3.3255,-3.3255,-3.3276,-3.3276,-3.3276,-3.3276,-3.329,-3.329,-3.329,-3.329,-3.3326,-3.3501,-3.3605,-3.3605,-3.3922,-3.4059,-3.4094,-3.4312,-3.438,-3.438,-3.438,-3.4414,-3.4414,-3.4414,-3.4414,-3.4414,-3.4414,-3.4022,-3.3594,-3.3711,-3.329,-3.2694,-3.2263,-3.1767,-3.1352,-3.1352,-3.1409,-3.1511,-3.1511,-3.1511,-3.1511,-3.1511,-3.1641,-3.1784,-3.1784,-3.1898,-3.1968,-3.1996,-3.1996,-3.2025,-3.2163,0.0,0.0,-3.2293,-3.2351,-3.2437,-3.2489,-3.2563,-3.2648,-3.2843,-3.287,-3.287,-3.287,-3.3005,-3.3395,-3.4054,-3.4916,-3.6011,-3.7399,-3.7478,-3.751,-3.751,-3.751,-3.751,-3.751,-3.7676,-3.7751,-3.778,-3.7945,-3.8152,-3.8325,-3.8325,-3.8798,-3.9528,-3.9528,-3.9933,-4.0548,-4.0548,-4.0984,-4.1677,-4.1799,-4.2283,-4.2899,-3.1528,-3.2212,-3.2609,-3.2236,-3.2625,-3.2854,-3.2587,-3.253,-3.2563,-3.2644,-3.2678,-3.2678,-3.2678,-3.2678,-3.2678,-3.2678,-3.2678,-3.2644,-3.2563,-3.253,-3.2783,-3.3283,-3.329,-3.329,-3.329,-3.329,-3.329,-3.329,-3.329,-3.329,-3.329,-3.329,-3.3361,-3.3501,-3.357,-3.3709,-3.3937,-3.4059,-3.4162,-3.4312,-3.438,-3.4414,-3.4414,-3.4414,-3.4414,-3.4414,-3.4414,-3.4167,-3.3852,-3.3937,-3.3547,-3.3039,-3.3199,-3.2805,-3.2175,-3.1708,-3.1485,-3.1409,-3.1409,-3.1467,-3.1511,-3.1511,-3.1597,-3.1698,-3.1698,-3.1813,-3.1912,-3.1912,-3.1968,-3.2025,-3.2122,-3.2107,-3.2178,-3.2287,0.0,-3.2342,-3.2398,-3.2453,-3.2551,-3.2578,-3.2718,-3.2816,-3.2897,-3.2978,-3.3032,-3.3032,-3.315,-3.3513,-3.4175,-3.5382,-3.6469,-3.7478,-3.751,-3.751,-3.751,-3.751,-3.7539,-3.7612,-3.7687,-3.7817,-3.802,-3.8049,-3.8164,-3.8307,-3.8307,-3.8497,-3.8812,-3.8812,-3.9233,-3.9894,-3.9982,-4.0434,-4.1051,-4.1232,-4.1471,-4.1716,-3.1269,-3.1962,-3.2298,-3.1857,-3.2226,-3.2454,-3.204,-3.1982,-3.2015,-3.208,-3.208,-3.208,-3.208,-3.208,-3.208,-3.208,-3.208,-3.2047,-3.2015,-3.195,-3.2288,-3.3148,-3.3155,-3.3254,-3.3501,-3.3501,-3.3501,-3.3501,-3.3501,-3.3501,-3.3501,-3.3501,-3.357,-3.3709,-3.3744,-3.3868,-3.4094,-3.4162,-3.4264,-3.4414,-3.4414,-3.4414,-3.4414,-3.4414,-3.4283,-3.4109,-3.4176,-3.3769,-3.3281,-3.3428,-3.3035,-3.2507,-3.2694,-3.2344,-3.1797,-3.1455,-3.1438,-3.1511,-3.1568,-3.1597,-3.1597,-3.1597,-3.1698,-3.1813,-3.1841,-3.1968,-3.2066,-3.2066,-3.2094,-3.2135,-3.2247,-3.2274,-3.2287,-3.2398,-3.2425,-3.2453,-3.2453,-3.2594,-3.2703,-3.2757,-3.2881,-3.2978,-3.3032,-3.3112,-3.315,-3.315,-3.3256,-3.3688,-3.4589,-3.5774,-3.6753,-3.7537,-3.7569,-3.7599,-3.7628,-3.7583,-3.7612,-3.7759,-3.7817,-3.7963,-3.8209,-3.8221,-3.8307,-3.8391,-3.8391,-3.842,-3.8448,-3.8448,-3.8768,-3.9292,-3.9377,-3.983,-4.0449,-4.0643,-4.0848,-4.1074,-3.1008,-3.1475,-3.1903,-3.1889,-3.1907,-3.1958,-3.2163,-3.2195,-3.2274,-3.2466,-3.2481,-3.2481,-3.2481,-3.2481,-3.2481,-3.2481,-3.2481,-3.2402,-3.2195,-3.2001,-3.2174,-3.2868,-3.2897,-3.3211,-3.3868,-3.3882,-3.3882,-3.3882,-3.3882,-3.3882,-3.3882,-3.3882,-3.3882,-3.3882,-3.4025,-3.4079,-3.4113,-3.4298,-3.4399,-3.4399,-3.4399,-3.4399,-3.4399,-3.4399,-3.4008,-3.3522,-3.3656,-3.3279,-3.2737,-3.2941,-3.2531,-3.2031,-3.2153,-3.1871,-3.1511,-3.1511,-3.1511,-3.1539,-3.1756,-3.1799,-3.1799,-3.1799,-3.1799,-3.1841,-3.1968,-3.2122,-3.2191,-3.2191,-3.233,-3.2398,-3.2398,-3.2398,-3.2398,-3.2398,-3.2523,-3.2594,-3.2594,-3.2773,-3.2951,-3.3069,-3.3096,-3.315,-3.3282,-3.3309,-3.3309,-3.3309,-3.3309,-3.3925,-3.5315,-3.6042,-3.6796,-3.7685,-3.77,-3.7759,-3.7905,-3.7759,-3.7759,-3.7889,-3.8107,-3.8209,-3.8209,-3.8351,-3.8391,-3.8391,-3.8391,-3.8476,-3.8588,-3.8588,-3.8683,-3.8805,-3.8805,-3.9247,-3.9914,-4.0027,-4.056,-4.1198,-3.0397,-3.096,-3.1341,-3.085,-3.1248,-3.1486,-3.1129,-3.1087,-3.1087,-3.1148,-3.1163,-3.1163,-3.1163,-3.1163,-3.1163,-3.1163,-3.1163,-3.1148,-3.1087,-3.1025,-3.1284,-3.1905,-3.2108,-3.2274,-3.2473,-3.2487,-3.2487,-3.2487,-3.2487,-3.2487,-3.2487,-3.2487,-3.2587,-3.2719,-3.2737,-3.285,-3.2981,-3.3046,-3.3061,-3.3061,-3.3061,-3.3061,-3.3079,-3.3161,-3.3095,-3.2966,-3.3125,-3.2777,-3.2234,-3.2403,-3.2019,-3.1516,-3.1678,-3.1689,-3.1698,-3.1698,-3.1769,-3.1855,-3.1912,-3.194,-3.194,-3.194,-3.2025,-3.2094,-3.215,-3.2247,-3.2342,-3.2342,-3.237,-3.2398,-3.2398,-3.248,-3.2551,-3.2551,-3.2676,-3.2816,-3.2816,-3.2951,-3.3058,-3.3112,-3.3176,-3.3256,-3.3309,-3.3309,-3.3309,-3.3309,-3.3372,-3.4096,-3.5605,-3.5876,-3.6545,-3.7799,-3.7847,-3.7934,-3.8107,-3.7934,-3.7934,-3.8107,-3.818,-3.8266,-3.8351,-3.8363,-3.8448,-3.8532,-3.8532,-3.8616,-3.8738,-3.8738,-3.875,-3.8805,-3.8914,-3.9073,-3.9298,-3.9478,-3.9681,-3.9863,-3.031,-3.0688,-3.0894,-3.0489,-3.0826,-3.1018,-3.067,-3.0598,-3.0598,-3.0598,-3.0598,-3.0598,-3.0598,-3.0598,-3.0598,-3.0598,-3.0598,-3.0598,-3.0598,-3.0598,-3.0772,-3.1134,-3.1308,-3.1628,-3.213,-3.2145,-3.2145,-3.2145,-3.2145,-3.2145,-3.2145,-3.2145,-3.2209,-3.232,-3.232,-3.2384,-3.2481,-3.2481,-3.2481,-3.2513,-3.2576,-3.2562,-3.2594,-3.2752,-3.2639,-3.2465,-3.2606,-3.2254,-3.1737,-3.1872,-3.1737,-3.1511,-3.1597,-3.1756,-3.187,-3.187,-3.1955,-3.2025,-3.2066,-3.2066,-3.2094,-3.2135,-3.2163,-3.2219,-3.2274,-3.2342,-3.2398,-3.2398,-3.2425,-3.248,-3.248,-3.2621,-3.2718,-3.2718,-3.287,-3.2978,-3.2978,-3.3096,-3.3176,-3.3176,-3.3256,-3.3335,-3.3372,-3.3372,-3.3398,-3.345,-3.3529,-3.4101,-3.5315,-3.5635,-3.6334,-3.7571,-3.7876,-3.8107,-3.8294,-3.8164,-3.8164,-3.8294,-3.8294,-3.8351,-3.8476,-3.8476,-3.856,-3.8683,-3.8683,-3.8766,-3.8887,-3.8887,-3.8914,-3.9013,-3.9094,-3.9121,-3.9121,-3.9272,-3.9299,-3.9299,-3.0598,-3.0598,-3.0598,-3.0598,-3.0598,-3.0612,-3.0612,-3.0642,-3.0642,-3.0642,-3.0642,-3.0642,-3.0642,-3.0642,-3.0642,-3.0612,-3.0598,-3.0598,-3.0598,-3.0598,-3.0598,-3.0598,-3.0598,-3.1119,-3.2292,-3.2338,-3.2338,-3.2338,-3.2338,-3.2338,-3.2338,-3.2338,-3.2338,-3.2338,-3.2338,-3.2338,-3.2353,-3.2353,-3.2353,-3.2385,-3.2514,-3.2562,-3.2562,-3.2765,-3.2473,-3.1942,-3.2079,-3.1783,-3.1351,-3.1467,-3.167,-3.1813,-3.1813,-3.1927,-3.2025,-3.2025,-3.2025,-3.2066,-3.2191,-3.2219,-3.2274,-3.2398,-3.233,-3.2274,-3.2398,-3.2425,-3.2425,-3.2425,-3.2551,-3.2621,-3.2621,-3.2773,-3.2924,-3.2924,-3.3032,-3.3123,-3.3123,-3.3229,-3.3335,-3.3335,-3.3335,-3.3372,-3.3503,-3.3529,-3.3581,-3.371,-3.372,-3.4014,-3.4718,-3.5385,-3.616,-3.7097,-3.7774,-3.823,-3.842,-3.842,-3.8391,-3.8391,-3.8391,-3.8476,-3.8588,-3.8616,-3.8683,-3.8832,-3.8832,-3.8887,-3.9023,-3.9023,-3.9121,-3.9299,-3.9299,-3.9299,-3.9299,-3.9299,-3.9299,-3.9325,-3.0612,-3.0598,-3.0598,-3.0598,-3.0702,-3.0762,-3.0762,-3.0895,-3.0984,-3.0984,-3.0984,-3.0984,-3.0984,-3.0984,-3.0925,-3.0762,-3.0672,-3.0598,-3.0598,-3.0598,-3.0598,-3.0598,-3.0598,-3.0728,-3.1019,-3.1019,-3.1019,-3.1019,-3.1019,-3.1019,-3.1019,-3.1019,-3.1019,-3.1019,-3.1019,-3.1064,-3.1155,-3.1155,-3.1245,-3.141,-3.144,-3.144,-3.1456,-3.159,-3.159,-3.1471,-3.1588,-3.1557,-3.1511,-3.167,-3.1826,-3.194,-3.194,-3.2053,-3.215,-3.215,-3.2247,-3.2315,-3.2342,-3.2441,-3.2523,-3.2551,-3.2648,-3.2718,-3.2594,-3.2551,-3.2594,-3.2746,-3.2816,-3.2843,-3.2843,-3.2951,-3.3058,-3.3058,-3.3176,-3.3256,-3.3256,-3.3372,-3.345,-3.345,-3.3555,-3.3617,-3.3642,-3.3658,-3.3694,-3.3848,-3.3848,-3.422,-3.5059,-3.5253,-3.5915,-3.7235,-3.7413,-3.7825,-3.856,-3.8576,-3.8504,-3.8391,-3.852,-3.856,-3.8588,-3.8711,-3.8832,-3.8942,-3.8942,-3.905,-3.9245,-3.9245,-3.9272,-3.9299,-3.9299,-3.9299,-3.9299,-3.9299,-3.9352,-3.9475,-3.0851,-3.0821,-3.0821,-3.0821,-3.0895,-3.0955,-3.0955,-3.1014,-3.1117,-3.1117,-3.1117,-3.1117,-3.1117,-3.1117,-3.1043,-3.0955,-3.0895,-3.0821,-3.0821,-3.0821,-3.0821,-3.0821,-3.0821,-3.0821,-3.0821,-3.0821,-3.0762,-3.0598,-3.0598,-3.0642,-3.0702,-3.0702,-3.0762,-3.0821,-3.0821,-3.0895,-3.0955,-3.0955,-3.0984,-3.1117,-3.1161,-3.119,-3.122,-3.1351,-3.1409,-3.1409,-3.1568,-3.1683,-3.1769,-3.1855,-3.1996,-3.2094,-3.2094,-3.2219,-3.2385,-3.2385,-3.2511,-3.2648,-3.2648,-3.2676,-3.2746,-3.2746,-3.2816,-3.287,-3.2773,-3.2746,-3.2773,-3.287,-3.2951,-3.3005,-3.3005,-3.3112,-3.3203,-3.3203,-3.3309,-3.3414,-3.3414,-3.3503,-3.3607,-3.3607,-3.3658,-3.3736,-3.3771,-3.3848,-3.3924,-3.4,-3.4,-3.4187,-3.4651,-3.5068,-3.563,-3.6377,-3.6771,-3.7346,-3.8161,-3.8161,-3.8313,-3.86,-3.8655,-3.8738,-3.8794,-3.886,-3.8969,-3.9148,-3.9148,-3.9202,-3.9299,-3.9299,-3.9299,-3.9299,-3.9299,-3.9325,-3.9395,-3.9395,-3.9511,-3.9694,-3.1102,-3.1117,-3.1117,-3.1117,-3.1102,-3.1132,-3.1132,-3.1132,-3.1161,-3.1161,-3.1161,-3.1161,-3.1161,-3.1146,-3.1132,-3.1132,-3.1102,-3.1117,-3.1117,-3.1117,-3.1117,-3.1117,-3.1117,-3.1117,-3.1117,-3.1117,-3.0955,-3.0702,-3.0702,-3.0732,-3.0851,-3.0851,-3.0955,-3.1117,-3.1117,-3.1102,-3.1132,-3.1132,-3.1146,-3.1161,-3.1292,-3.1351,-3.1409,-3.1511,-3.1568,-3.1597,-3.1784,-3.1912,-3.2038,-3.2038,-3.215,-3.2274,-3.2274,-3.2441,-3.2648,-3.2648,-3.2773,-3.2897,-3.2897,-3.2924,-3.2978,-3.2978,-3.2911,-3.2859,-3.2859,-3.29,-3.2924,-3.2951,-3.3058,-3.3123,-3.315,-3.3256,-3.3319,-3.3346,-3.345,-3.3529,-3.3529,-3.3658,-3.372,-3.372,-3.3745,-3.3797,-3.3924,-3.4025,-3.4101,-3.4101,-3.4126,-3.4126,-3.4126,-3.4845,-3.5312,-3.5442,-3.6084,-3.679,-3.7554,-3.7554,-3.7892,-3.8499,-3.8499,-3.8668,-3.8996,-3.9023,-3.9148,-3.9299,-3.9325,-3.9325,-3.9342,-3.9352,-3.9379,-3.9379,-3.9379,-3.9432,-3.9554,-3.9563,-3.972,-3.9901,-3.1102,-3.1117,-3.1117,-3.1117,-3.119,-3.1263,-3.1263,-3.138,-3.1453,-3.1453,-3.1453,-3.1453,-3.1453,-3.1351,-3.1263,-3.1263,-3.1161,-3.1117,-3.1117,-3.1117,-3.1117,-3.1117,-3.1117,-3.1117,-3.1117,-3.1117,-3.1087,-3.1014,-3.1014,-3.1043,-3.1043,-3.1043,-3.1087,-3.1117,-3.1117,-3.1161,-3.1263,-3.1263,-3.1351,-3.1453,-3.1482,-3.1568,-3.1727,-3.1756,-3.1826,-3.194,-3.1968,-3.2066,-3.2163,-3.2163,-3.233,-3.2566,-3.2566,-3.2691,-3.287,-3.287,-3.287,-3.2897,-3.2897,-3.3085,-3.3256,-3.3256,-3.2938,-3.2631,-3.2631,-3.285,-3.3112,-3.3229,-3.3256,-3.3309,-3.3424,-3.345,-3.3503,-3.3633,-3.3658,-3.3668,-3.3668,-3.3771,-3.3873,-3.3873,-3.3975,-3.405,-3.4075,-3.4101,-3.4101,-3.4101,-3.4201,-3.4275,-3.4275,-3.4497,-3.4914,-3.5553,-3.5676,-3.6137,-3.7004,-3.7004,-3.7122,-3.7323,-3.7323,-3.7916,-3.8996,-3.9175,-3.9272,-3.9299,-3.9422,-3.9475,-3.9484,-3.9616,-3.9651,-3.9651,-3.9651,-3.9651,-3.9677,-3.9798,-3.9875,-3.9926,-3.08,-3.1069,-3.1336,-3.1336,-3.1351,-3.1409,-3.1409,-3.1467,-3.1511,-3.1511,-3.1511,-3.1511,-3.1511,-3.1539,-3.1568,-3.1568,-3.1597,-3.1597,-3.1597,-3.1597,-3.1597,-3.1597,-3.1597,-3.1597,-3.1597,-3.1597,-3.1597,-3.1597,-3.1264,-3.1132,-3.1205,-3.1205,-3.1234,-3.1336,-3.1336,-3.1366,-3.1409,-3.1409,-3.1511,-3.167,-3.167,-3.1784,-3.1912,-3.1912,-3.194,-3.2025,-3.2178,-3.2057,-3.1886,-3.1952,-3.1827,-3.1596,-3.1596,-3.1753,-3.195,-3.195,-3.2053,-3.2155,-3.2155,-3.2257,-3.2358,-3.2358,-3.2178,-3.2054,-3.2054,-3.216,-3.2393,-3.2809,-3.2914,-3.3051,-3.3527,-3.3607,-3.3617,-3.3694,-3.3745,-3.3797,-3.3797,-3.3924,-3.4,-3.4,-3.4075,-3.4101,-3.4101,-3.4176,-3.4226,-3.4226,-3.4325,-3.4423,-3.4423,-3.4546,-3.4766,-3.5095,-3.5185,-3.558,-3.6373,-3.6389,-3.6663,-3.7219,-3.7219,-3.7501,-3.8046,-3.814,-3.8218,-3.8328,-3.8779,-3.8989,-3.9014,-3.9049,-3.9075,-3.9024,-3.8639,-3.8522,-3.8581,-3.8722,-3.8771,-3.8796]},{"header":{"parameterUnit":"m.s-1","parameterCategory":1,"la1":30.6,"la2":28.766,"lo1":-90.7593,"lo2":-88.6598,"dy":0.0162,"dx":0.0183,"nx":116,"ny":114,"refTime":"2023-07-14T12:00:00:Z","depth":0,"parameterNumber":3,"parameterNumberName":"V-component_of_WINDS"},"data":[0.0,0.0,0.0,0.0,0.0,0.0,0.0,0.0,0.0,0.0,0.0,0.0,0.0,0.0,0.0,0.0,0.0,0.0,0.0,0.0,0.0,0.0,0.0,0.0,0.0,0.0,0.0,0.0,0.0,0.0,0.0,0.0,0.0,0.0,0.0,0.0,0.0,0.0,0.0,0.0,0.0,0.0,0.0,0.0,0.0,0.0,0.0,0.0,0.0,0.0,0.0,0.0,0.0,0.0,0.0,0.0,0.0,0.0,0.0,0.0,0.0,0.0,0.0,0.0,0.0,0.0,0.0,0.0,0.0,0.0,0.0,0.0,0.0,0.0,0.0,0.0,0.0,0.0,0.0,0.0,0.0,0.0,0.0,0.0,0.0,0.0,0.0,0.0,0.0,0.0,0.0,0.0,0.0,0.0,0.0,0.0,0.0,0.0,0.0,0.0,0.0,0.0,0.0,0.0,0.0,0.0,0.0,0.0,0.0,0.0,0.0,0.0,0.0,0.0,0.0,0.0,0.0,0.0,0.0,0.0,0.0,0.0,0.0,0.0,0.0,0.0,0.0,0.0,0.0,0.0,0.0,0.0,0.0,0.0,0.0,0.0,0.0,0.0,0.0,0.0,0.0,0.0,0.0,0.0,0.0,0.0,0.0,0.0,0.0,0.0,0.0,0.0,0.0,0.0,0.0,0.0,0.0,0.0,0.0,0.0,0.0,0.0,0.0,0.0,0.0,0.0,0.0,0.0,0.0,0.0,0.0,0.0,0.0,0.0,0.0,0.0,0.0,0.0,0.0,0.0,0.0,0.0,0.0,0.0,0.0,0.0,0.0,0.0,0.0,0.0,0.0,0.0,0.0,0.0,0.0,0.0,0.0,0.0,0.0,0.0,0.0,0.0,0.0,0.0,0.0,0.0,0.0,0.0,0.0,0.0,0.0,0.0,0.0,0.0,0.0,0.0,0.0,0.0,0.0,0.0,0.0,0.0,0.0,0.0,0.0,0.0,0.0,0.0,0.0,0.0,0.0,0.0,0.0,0.0,0.0,0.0,0.0,0.0,0.0,0.0,0.0,0.0,0.0,0.0,0.0,0.0,0.0,0.0,0.0,0.0,0.0,0.0,0.0,0.0,0.0,0.0,0.0,0.0,0.0,0.0,0.0,0.0,0.0,0.0,0.0,0.0,0.0,0.0,0.0,0.0,0.0,0.0,0.0,0.0,0.0,0.0,0.0,0.0,0.0,0.0,0.0,0.0,0.0,0.0,0.0,0.0,0.0,0.0,0.0,0.0,0.0,0.0,0.0,0.0,0.0,0.0,0.0,0.0,0.0,0.0,0.0,0.0,0.0,0.0,0.0,0.0,0.0,0.0,0.0,0.0,0.0,0.0,0.0,0.0,0.0,0.0,0.0,0.0,0.0,0.0,0.0,0.0,0.0,0.0,0.0,0.0,0.0,0.0,0.0,0.0,0.0,0.0,0.0,0.0,0.0,0.0,0.0,0.0,0.0,0.0,0.0,0.0,0.0,0.0,0.0,0.0,0.0,0.0,0.0,0.0,0.0,0.0,0.0,0.0,0.0,0.0,0.0,0.0,0.0,0.0,0.0,0.0,0.0,0.0,0.0,0.0,0.0,0.0,0.0,0.0,0.0,0.0,0.0,0.0,0.0,0.0,0.0,0.0,0.0,0.0,0.0,0.0,0.0,0.0,0.0,0.0,0.0,0.0,0.0,0.0,0.0,0.0,0.0,0.0,0.0,0.0,0.0,0.0,0.0,0.0,0.0,0.0,0.0,0.0,0.0,0.0,0.0,0.0,0.0,0.0,0.0,0.0,0.0,0.0,0.0,0.0,0.0,0.0,0.0,0.0,0.0,0.0,0.0,0.0,0.0,0.0,0.0,0.0,0.0,0.0,0.0,0.0,0.0,0.0,0.0,0.0,0.0,0.0,0.0,0.0,0.0,0.0,0.0,0.0,0.0,0.0,0.0,0.0,0.0,0.0,0.0,0.0,0.0,0.0,0.0,0.0,0.0,0.0,0.0,0.0,0.0,0.0,0.0,0.0,0.0,0.0,0.0,0.0,0.0,0.0,0.0,0.0,0.0,0.0,0.0,0.0,0.0,0.0,0.0,0.0,0.0,0.0,0.0,0.0,0.0,0.0,0.0,0.0,0.0,0.0,0.0,0.0,0.0,0.0,0.0,0.0,0.0,0.0,0.0,0.0,0.0,0.0,0.0,0.0,0.0,0.0,0.0,0.0,0.0,0.0,0.0,0.0,0.0,0.0,0.0,0.0,0.0,0.0,0.0,0.0,0.0,0.0,0.0,0.0,0.0,0.0,0.0,0.0,0.0,0.0,0.0,0.0,0.0,0.0,0.0,0.0,0.0,0.0,0.0,0.0,0.0,0.0,0.0,0.0,0.0,0.0,0.0,0.0,0.0,0.0,0.0,0.0,0.0,0.0,0.0,0.0,0.0,0.0,0.0,0.0,0.0,0.0,0.0,0.0,0.0,0.0,0.0,0.0,0.0,0.0,0.0,0.0,0.0,0.0,0.0,0.0,0.0,0.0,0.0,0.0,0.0,0.0,0.0,0.0,0.0,0.0,0.0,0.0,0.0,0.0,0.0,0.0,0.0,0.0,0.0,0.0,0.0,0.0,0.0,0.0,0.0,0.0,0.0,0.0,0.0,0.0,0.0,0.0,0.0,0.0,0.0,0.0,0.0,0.0,0.0,0.0,0.0,0.0,0.0,0.0,0.0,0.0,0.0,0.0,0.0,0.0,0.0,0.0,0.0,0.0,0.0,0.0,0.0,0.0,0.0,0.0,0.0,0.0,0.0,0.0,0.0,0.0,0.0,0.0,0.0,0.0,0.0,0.0,0.0,0.0,0.0,0.0,0.0,0.0,0.0,0.0,0.0,0.0,0.0,0.0,0.0,0.0,0.0,0.0,0.0,0.0,0.0,0.0,0.0,0.0,0.0,0.0,0.0,0.0,0.0,0.0,0.0,0.0,0.0,0.0,0.0,0.0,0.0,0.0,0.0,0.0,0.0,0.0,0.0,0.0,0.0,0.0,0.0,0.0,0.0,0.0,0.0,0.0,0.0,0.0,0.0,0.0,0.0,0.0,0.0,0.0,0.0,0.0,0.0,0.0,0.0,0.0,0.0,0.0,0.0,0.0,0.0,0.0,0.0,0.0,0.0,0.0,0.0,0.0,0.0,0.0,0.0,0.0,0.0,0.0,0.0,0.0,0.0,0.0,0.0,0.0,0.0,0.0,0.0,0.0,0.0,0.0,0.0,0.0,0.0,0.0,0.0,0.0,0.0,0.0,0.0,0.0,0.0,0.0,0.0,0.0,0.0,0.0,0.0,0.0,0.0,0.0,0.0,0.0,0.0,0.0,0.0,0.0,0.0,0.0,0.0,0.0,0.0,0.0,0.0,0.0,0.0,0.0,0.0,0.0,0.0,0.0,0.0,0.0,0.0,0.0,0.0,0.0,0.0,0.0,0.0,0.0,0.0,0.0,0.0,0.0,0.0,0.0,0.0,0.0,0.0,0.0,0.0,0.0,0.0,0.0,0.0,0.0,0.0,0.0,0.0,0.0,0.0,0.0,0.0,0.0,0.0,0.0,0.0,0.0,0.0,0.0,0.0,0.0,0.0,0.0,0.0,0.0,0.0,0.0,0.0,0.0,0.0,0.0,0.0,0.0,0.0,0.0,0.0,0.0,0.0,0.0,0.0,0.0,0.0,0.0,0.0,0.0,0.0,0.0,0.0,0.0,0.0,0.0,0.0,0.0,0.0,0.0,0.0,0.0,0.0,0.0,0.0,0.0,0.0,0.0,0.0,0.0,0.0,0.0,0.0,0.0,0.0,0.0,0.0,0.0,0.0,0.0,0.0,0.0,0.0,0.0,0.0,0.0,0.0,0.0,0.0,0.0,0.0,0.0,0.0,0.0,0.0,0.0,0.0,0.0,0.0,0.0,0.0,0.0,0.0,0.0,0.0,0.0,0.0,0.0,0.0,0.0,0.0,0.0,0.0,0.0,0.0,0.0,0.0,0.0,0.0,0.0,0.0,0.0,0.0,0.0,0.0,0.0,0.0,0.0,0.0,0.0,0.0,0.0,0.0,0.0,0.0,0.0,0.0,0.0,0.0,0.0,0.0,0.0,0.0,0.0,0.0,0.0,0.0,0.0,0.0,0.0,0.0,0.0,0.0,0.0,0.0,0.0,0.0,0.0,0.0,0.0,0.0,0.0,0.0,0.0,0.0,0.0,0.0,0.0,0.0,0.0,0.0,0.0,0.0,0.0,0.0,0.0,0.0,0.0,0.0,0.0,0.0,0.0,0.0,0.0,0.0,0.0,0.0,0.0,0.0,0.0,0.0,0.0,0.0,0.0,0.0,0.0,0.0,0.0,0.0,0.0,0.0,0.0,0.0,0.0,0.0,0.0,0.0,0.0,0.0,0.0,0.0,0.0,0.0,0.0,0.0,0.0,0.0,0.0,0.0,0.0,0.0,0.0,0.0,0.0,0.0,0.0,0.0,0.0,0.0,0.0,0.0,0.0,0.0,0.0,0.0,0.0,0.0,0.0,0.0,0.0,0.0,0.0,0.0,0.0,0.0,0.0,0.0,0.0,0.0,0.0,0.0,0.0,0.0,0.0,0.0,0.0,0.0,0.0,0.0,0.0,0.0,0.0,0.0,0.0,0.0,0.0,0.0,0.0,0.0,0.0,0.0,0.0,0.0,0.0,0.0,0.0,0.0,0.0,0.0,0.0,0.0,0.0,0.0,0.0,0.0,0.0,0.0,0.0,0.0,0.0,0.0,0.0,0.0,0.0,0.0,0.0,0.0,0.0,0.0,0.0,0.0,0.0,0.0,0.0,0.0,0.0,0.0,0.0,0.0,0.0,0.0,0.0,0.0,0.0,0.0,0.0,0.0,0.0,0.0,0.0,0.0,0.0,0.0,0.0,0.0,0.0,0.0,0.0,0.0,0.0,0.0,0.0,0.0,0.0,0.0,0.0,0.0,0.0,0.0,0.0,0.0,0.0,0.0,0.0,0.0,0.0,0.0,0.0,0.0,0.0,0.0,0.0,0.0,0.0,0.0,0.0,0.0,0.0,0.0,0.0,0.0,0.0,0.0,0.0,0.0,0.0,0.0,0.0,0.0,0.0,0.0,0.0,0.0,0.0,0.0,0.0,0.0,0.0,0.0,0.0,0.0,0.0,0.0,0.0,0.0,0.0,0.0,0.0,0.0,0.0,0.0,0.0,0.0,0.0,0.0,0.0,0.0,0.0,0.0,0.0,0.0,0.0,0.0,0.0,0.0,0.0,0.0,0.0,0.0,0.0,0.0,0.0,0.0,0.0,0.0,0.0,0.0,0.0,0.0,0.0,0.0,0.0,0.0,0.0,0.0,0.0,0.0,0.0,0.0,0.0,0.0,0.0,0.0,0.0,0.0,0.0,0.0,0.0,0.0,0.0,0.0,0.0,0.0,0.0,0.0,0.0,0.0,0.0,0.0,0.0,0.0,0.0,0.0,0.0,0.0,0.0,0.0,0.0,0.0,0.0,0.0,0.0,0.0,0.0,0.0,0.0,0.0,0.0,0.0,0.0,0.0,0.0,0.0,0.0,0.0,0.0,0.0,0.0,0.0,0.0,0.0,0.0,0.0,0.0,0.0,0.0,0.0,0.0,0.0,0.0,0.0,0.0,0.0,0.0,0.0,0.0,0.0,0.0,0.0,0.0,0.0,0.0,0.0,0.0,0.0,0.0,0.0,0.0,0.0,0.0,0.0,0.0,0.0,0.0,0.0,0.0,0.0,0.0,0.0,0.0,0.0,0.0,0.0,0.0,0.0,0.0,0.0,0.0,0.0,0.0,0.0,0.0,0.0,0.0,0.0,0.0,0.0,0.0,0.0,0.0,0.0,0.0,0.0,0.0,0.0,0.0,0.0,0.0,0.0,0.0,0.0,0.0,0.0,0.0,0.0,0.0,0.0,0.0,0.0,0.0,0.0,0.0,0.0,0.0,0.0,0.0,0.0,0.0,0.0,0.0,0.0,0.0,0.0,0.0,0.0,0.0,0.0,0.0,0.0,0.0,0.0,0.0,-1.3007,0.0,0.0,0.0,0.0,0.0,0.0,0.0,0.0,0.0,0.0,0.0,0.0,0.0,0.0,0.0,0.0,0.0,0.0,0.0,0.0,0.0,0.0,0.0,0.0,0.0,0.0,0.0,0.0,0.0,0.0,0.0,0.0,0.0,0.0,0.0,0.0,0.0,0.0,0.0,0.0,0.0,0.0,0.0,0.0,0.0,0.0,0.0,0.0,0.0,0.0,0.0,0.0,0.0,0.0,0.0,0.0,0.0,0.0,0.0,0.0,0.0,0.0,0.0,0.0,0.0,0.0,0.0,0.0,0.0,0.0,0.0,0.0,0.0,0.0,0.0,0.0,0.0,0.0,0.0,0.0,0.0,0.0,0.0,0.0,0.0,0.0,0.0,0.0,0.0,0.0,0.0,0.0,0.0,0.0,0.0,0.0,0.0,0.0,0.0,0.0,0.0,0.0,0.0,0.0,0.0,0.0,0.0,0.0,0.0,0.0,0.0,0.0,0.0,0.0,0.0,0.0,-1.3854,0.0,0.0,0.0,0.0,0.0,0.0,0.0,0.0,0.0,0.0,0.0,0.0,0.0,0.0,0.0,0.0,0.0,0.0,0.0,0.0,0.0,0.0,0.0,0.0,0.0,0.0,0.0,0.0,0.0,0.0,0.0,0.0,0.0,0.0,0.0,0.0,0.0,0.0,0.0,0.0,0.0,0.0,0.0,0.0,0.0,0.0,0.0,0.0,0.0,0.0,0.0,0.0,0.0,0.0,0.0,0.0,0.0,0.0,0.0,0.0,0.0,0.0,0.0,0.0,0.0,0.0,0.0,0.0,0.0,0.0,0.0,0.0,0.0,0.0,0.0,0.0,0.0,0.0,0.0,0.0,0.0,0.0,0.0,0.0,0.0,0.0,0.0,0.0,0.0,0.0,0.0,0.0,0.0,0.0,0.0,0.0,0.0,0.0,0.0,0.0,0.0,0.0,0.0,0.0,0.0,0.0,0.0,0.0,0.0,0.0,-1.6668,-1.6752,-1.6954,-1.7215,-1.6219,-1.5692,-1.5537,0.0,0.0,0.0,0.0,0.0,0.0,0.0,0.0,0.0,0.0,0.0,0.0,0.0,0.0,0.0,0.0,0.0,0.0,0.0,0.0,0.0,0.0,0.0,0.0,0.0,0.0,0.0,0.0,0.0,0.0,0.0,0.0,0.0,0.0,0.0,0.0,0.0,0.0,0.0,-1.6024,-1.6024,-1.5999,-1.592,-1.5619,0.0,0.0,0.0,0.0,0.0,0.0,0.0,0.0,0.0,0.0,0.0,0.0,0.0,0.0,0.0,0.0,0.0,0.0,0.0,0.0,0.0,0.0,0.0,0.0,0.0,0.0,0.0,0.0,0.0,0.0,0.0,0.0,0.0,0.0,0.0,0.0,0.0,0.0,0.0,0.0,0.0,0.0,0.0,-0.8985,-0.9427,0.0,0.0,0.0,0.0,0.0,0.0,0.0,0.0,0.0,0.0,0.0,0.0,0.0,0.0,-1.6944,-1.7515,-1.7835,-1.7881,-1.8322,-1.8533,-1.8579,-1.8986,-1.9175,-1.9196,-1.8756,0.0,-1.7154,-1.6816,0.0,0.0,0.0,0.0,0.0,0.0,0.0,0.0,0.0,0.0,0.0,0.0,0.0,0.0,0.0,0.0,0.0,0.0,0.0,0.0,0.0,0.0,0.0,0.0,0.0,0.0,0.0,0.0,0.0,0.0,0.0,0.0,0.0,0.0,0.0,0.0,-1.615,-1.6661,-1.6913,-1.7151,-1.7439,-1.7688,-1.7524,-1.7062,-1.6468,-1.6401,0.0,0.0,0.0,0.0,0.0,0.0,0.0,0.0,0.0,0.0,0.0,0.0,0.0,0.0,0.0,0.0,0.0,0.0,0.0,0.0,0.0,0.0,0.0,0.0,0.0,0.0,0.0,0.0,0.0,0.0,0.0,0.0,0.0,0.0,0.0,0.0,0.0,0.0,0.0,-0.9473,-1.0153,-1.0588,-1.1072,-1.1616,0.0,0.0,0.0,0.0,0.0,0.0,0.0,0.0,0.0,-1.7049,-1.7621,-1.8094,-1.8517,-1.9159,-1.9675,-2.0011,-2.0346,-2.0427,-2.0279,-2.0471,-2.0506,-2.0448,-2.0437,-2.0275,-1.9819,-1.8676,-1.8051,-1.788,0.0,0.0,0.0,0.0,0.0,-1.8652,0.0,0.0,0.0,0.0,0.0,0.0,0.0,0.0,0.0,0.0,0.0,0.0,0.0,0.0,0.0,-1.751,0.0,0.0,0.0,0.0,0.0,0.0,0.0,0.0,0.0,0.0,0.0,-1.6626,-1.7431,-1.7892,-1.8044,-1.8355,-1.8676,-1.8998,-1.8998,-1.8278,-1.7088,-1.6995,-1.6864,0.0,0.0,0.0,0.0,0.0,0.0,0.0,0.0,0.0,0.0,0.0,0.0,0.0,0.0,0.0,0.0,0.0,0.0,0.0,0.0,0.0,0.0,0.0,0.0,0.0,0.0,0.0,0.0,0.0,0.0,0.0,0.0,0.0,0.0,0.0,0.0,0.0,0.0,-1.071,-1.1281,-1.1702,-1.2276,-1.2919,0.0,0.0,0.0,0.0,0.0,0.0,-1.7049,-1.7553,-1.8117,-1.8665,-1.9235,-1.9724,-2.0124,-2.0782,-2.1342,-2.1764,-2.2074,-2.2027,-2.1812,-2.1862,-2.1912,-2.1848,-2.1999,-2.2091,-2.2075,-2.0504,-1.9592,-1.9271,-1.9554,-1.9495,0.0,-1.9632,-1.9833,-1.9904,0.0,0.0,0.0,0.0,0.0,0.0,0.0,0.0,0.0,0.0,0.0,0.0,0.0,0.0,-1.8341,-1.8158,-1.8037,-1.7884,0.0,0.0,0.0,0.0,0.0,0.0,0.0,0.0,0.0,-1.8845,-1.8731,-1.9029,-1.9773,-1.98,-1.969,-1.9452,-1.9452,-1.9124,-1.8477,-1.8085,-1.7757,-1.7385,0.0,0.0,0.0,0.0,0.0,0.0,0.0,0.0,0.0,0.0,0.0,0.0,0.0,0.0,0.0,0.0,0.0,0.0,0.0,0.0,0.0,0.0,0.0,0.0,0.0,0.0,0.0,0.0,0.0,0.0,0.0,0.0,0.0,0.0,0.0,0.0,0.0,0.0,0.0,-1.2703,-1.3608,0.0,0.0,0.0,0.0,-1.6711,-1.7236,-1.7819,-1.8546,-1.9084,-1.9564,-1.9914,-2.1091,-2.1727,-2.1796,-2.2453,-2.2802,-2.2818,-2.3084,-2.3227,-2.321,-2.3474,-2.3729,-2.3948,-2.3608,-2.3446,-2.3255,-2.2073,-2.1344,-2.098,-2.0781,-2.0653,-2.0517,-2.0769,-2.0959,-2.1116,0.0,0.0,0.0,0.0,0.0,0.0,0.0,0.0,0.0,0.0,0.0,0.0,0.0,-1.9095,-1.9372,-1.9297,-1.968,-1.9898,-1.983,0.0,0.0,0.0,0.0,0.0,0.0,0.0,-1.9251,-1.9183,-1.976,-2.0112,-2.0278,-2.0518,-2.0536,-2.0448,-2.0448,-2.0149,-1.9505,-1.874,-1.8177,-1.7792,-1.7269,-1.6819,0.0,0.0,0.0,0.0,0.0,0.0,0.0,0.0,0.0,0.0,0.0,0.0,0.0,0.0,0.0,0.0,0.0,0.0,0.0,0.0,0.0,0.0,0.0,0.0,0.0,0.0,0.0,0.0,0.0,0.0,0.0,0.0,0.0,0.0,0.0,0.0,0.0,-1.4216,-1.4954,0.0,0.0,-1.6996,-1.7561,-1.8021,-1.8732,-1.938,-1.9911,-2.0659,-2.1206,-2.1542,-2.2405,-2.2995,-2.3242,-2.3919,-2.4387,-2.4566,-2.4602,-2.4531,-2.4292,-2.4315,-2.427,-2.4132,-2.4375,-2.445,-2.4434,-2.4373,-2.3544,-2.2354,-2.2382,-2.2472,-2.2612,-2.2891,-2.3016,-2.306,0.0,0.0,0.0,0.0,0.0,0.0,0.0,0.0,0.0,0.0,0.0,-1.8862,-1.9421,-1.9932,-2.028,-2.0375,-2.082,-2.1069,-2.0988,0.0,0.0,0.0,0.0,0.0,0.0,-1.9994,-2.0132,-2.0038,-2.0784,-2.1093,-2.1105,-2.1446,-2.1579,-2.1533,-2.1533,-2.1138,-2.0436,-1.9653,-1.8877,-1.8186,-1.7809,-1.7325,-1.6707,0.0,0.0,0.0,0.0,0.0,0.0,0.0,0.0,0.0,0.0,0.0,0.0,0.0,0.0,0.0,0.0,0.0,0.0,0.0,0.0,0.0,0.0,0.0,0.0,0.0,0.0,0.0,0.0,0.0,0.0,0.0,0.0,0.0,0.0,0.0,-1.4712,-1.5583,-1.6235,-1.6914,-1.7704,-1.8338,-1.8935,-1.929,-2.0031,-2.0704,-2.1162,-2.1993,-2.257,-2.2906,-2.372,-2.4213,-2.4519,-2.5047,-2.5398,-2.5644,-2.5571,-2.5486,-2.5349,-2.5128,-2.5025,-2.4977,-2.5236,-2.5429,-2.5512,-2.5835,-2.5316,-2.4206,-2.3973,-2.3919,-2.4059,-2.4055,-2.4146,-2.4239,0.0,0.0,0.0,0.0,0.0,0.0,0.0,0.0,0.0,0.0,-1.9041,-1.9457,-2.0322,-2.0731,-2.1045,-2.1326,-2.1344,-2.1274,-2.1066,-2.1066,0.0,0.0,0.0,0.0,-2.0654,-2.0627,-2.0929,-2.1525,-2.1636,-2.1906,-2.2355,-2.2721,-2.28,-2.2603,-2.2603,-2.2122,-2.1284,-2.0883,-1.9922,-1.8647,-1.817,-1.7826,-1.7445,0.0,0.0,0.0,0.0,0.0,0.0,0.0,0.0,0.0,0.0,0.0,0.0,0.0,0.0,0.0,0.0,0.0,0.0,0.0,0.0,0.0,0.0,0.0,0.0,0.0,0.0,0.0,0.0,0.0,0.0,0.0,0.0,0.0,-1.4747,-1.5034,-1.5612,-1.6807,-1.7465,-1.8097,-1.8716,-1.9543,-2.0229,-2.0589,-2.1141,-2.1746,-2.2395,-2.3163,-2.3738,-2.4026,-2.5001,-2.5553,-2.5553,-2.5794,-2.5919,-2.5919,-2.596,-2.6125,-2.6388,-2.6005,-2.6169,-2.6704,-2.6325,-2.6272,-2.6449,-2.643,-2.6555,-2.6564,-2.5469,-2.4927,-2.4736,-2.4331,-2.4316,-2.4492,0.0,0.0,0.0,0.0,0.0,0.0,0.0,0.0,0.0,0.0,-1.9521,-1.9775,-2.0995,-2.1396,-2.1675,-2.2001,-2.235,-2.2498,-2.2451,0.0,0.0,0.0,0.0,0.0,-2.1471,-2.1479,-2.1698,-2.213,-2.2141,-2.2327,-2.2739,-2.2858,-2.2857,-2.2809,-2.2809,-2.2595,-2.2178,-2.1609,-2.086,-2.0,-1.8895,-1.8211,-1.7826,0.0,0.0,0.0,0.0,0.0,0.0,0.0,0.0,0.0,0.0,0.0,0.0,0.0,0.0,0.0,0.0,0.0,0.0,0.0,0.0,0.0,0.0,0.0,0.0,0.0,0.0,0.0,0.0,0.0,0.0,0.0,0.0,-1.4848,-1.4977,-1.6053,-1.6961,-1.7472,-1.8641,-1.9571,-2.0027,-2.0652,-2.1202,-2.1602,-2.2407,-2.302,-2.3173,-2.4309,-2.5002,-2.506,-2.5855,-2.6219,-2.6219,-2.6619,-2.6765,-2.6756,-2.6719,-2.6757,-2.6865,-2.6876,-2.6984,-2.7146,-2.749,-2.766,-2.7698,-2.7848,-2.793,-2.7872,-2.6657,-2.623,-2.6365,-2.6248,-2.6249,-2.6299,0.0,0.0,0.0,0.0,0.0,0.0,0.0,0.0,0.0,0.0,-1.9731,-2.0064,-2.1531,-2.1751,-2.202,-2.2542,-2.2848,-2.3001,-2.3001,0.0,0.0,0.0,0.0,-2.199,-2.2371,-2.2304,-2.2378,-2.2643,-2.288,-2.3007,-2.316,-2.3325,-2.3455,-2.3455,-2.3455,-2.321,-2.2799,-2.2336,-2.1637,-2.0874,-1.9764,-1.8888,-1.8188,-1.7763,-1.7008,-1.6107,-1.5386,-1.4426,-1.3331,-1.2581,0.0,0.0,0.0,0.0,0.0,0.0,0.0,0.0,0.0,0.0,0.0,0.0,0.0,0.0,0.0,0.0,0.0,0.0,0.0,0.0,0.0,0.0,0.0,0.0,-1.5558,-1.6118,-1.6337,-1.7054,-1.7931,-1.8839,-1.971,-2.0523,-2.1113,-2.1707,-2.2242,-2.2606,-2.3456,-2.4089,-2.4318,-2.5269,-2.5822,-2.5939,-2.6474,-2.673,-2.673,-2.6961,-2.7133,-2.7297,-2.7252,-2.7386,-2.7623,-2.7575,-2.7676,0.0,-2.8133,-2.8342,-2.8606,-2.8705,-2.8822,0.0,0.0,0.0,0.0,0.0,-2.7063,-2.7206,0.0,0.0,0.0,0.0,0.0,0.0,0.0,0.0,0.0,0.0,0.0,-2.0258,-2.1857,-2.1898,-2.2112,-2.2911,-2.2962,-2.2984,0.0,0.0,0.0,-2.3094,-2.2386,-2.2361,-2.3247,-2.2998,-2.2958,-2.3144,-2.3664,-2.3807,-2.3572,-2.4036,-2.4202,-2.4202,-2.4202,-2.3861,-2.3289,-2.2943,-2.2258,-2.1319,-2.0652,-1.9701,-1.8674,-1.8,-1.754,-1.7016,-1.554,-1.4748,-1.4213,-1.3096,0.0,0.0,0.0,0.0,0.0,0.0,0.0,0.0,0.0,0.0,0.0,0.0,0.0,0.0,0.0,0.0,0.0,0.0,0.0,0.0,0.0,0.0,0.0,0.0,-1.6646,-1.7629,-1.8301,-1.8236,-1.8733,-2.0389,-2.0742,-2.116,-2.2013,-2.268,-2.3206,-2.3594,-2.4275,-2.4951,-2.5536,0.0,0.0,0.0,0.0,-2.7201,-2.7201,-2.7262,-2.7366,-2.7652,-2.7704,-2.8057,-2.8571,-2.8269,-2.8422,-2.8872,-2.8575,-2.8757,-2.9266,-2.9218,-2.9395,-2.9453,-2.8325,-2.7865,-2.7754,-2.7366,-2.7353,0.0,0.0,0.0,0.0,0.0,0.0,0.0,0.0,0.0,0.0,-1.9999,-1.9948,-2.0304,-2.1563,-2.1665,-2.1958,-2.2778,-2.2734,-2.2754,0.0,0.0,-2.3019,-2.3105,-2.2991,-2.3187,-2.3657,-2.3437,-2.3542,-2.4032,-2.3954,-2.3955,-2.4082,-2.4165,-2.4202,-2.4202,-2.4202,-2.4115,-2.3965,-2.3157,-2.2504,-2.194,-2.1095,-2.0266,-1.9401,-1.8507,-1.7853,-1.7226,-1.6154,-1.5088,-1.4096,-1.3581,-1.2828,-1.203,-1.1458,0.0,0.0,0.0,0.0,0.0,0.0,0.0,0.0,0.0,0.0,0.0,0.0,0.0,0.0,0.0,0.0,0.0,0.0,0.0,0.0,-1.681,-1.7508,-1.8447,-1.9918,-2.0082,-2.0183,-2.0557,-2.1528,-2.23,-2.2768,-2.3189,-2.3677,-2.4365,-2.5023,-2.5567,-2.5974,-2.684,0.0,-2.739,-2.7775,-2.798,-2.798,-2.8276,-2.8391,-2.8445,0.0,0.0,-2.8985,-2.9457,-2.9535,-2.9378,-2.983,-3.0025,-3.0113,-3.0053,-2.9817,-2.9567,-2.8906,-2.8672,-2.8623,-2.8426,-2.8427,-2.8522,0.0,0.0,0.0,0.0,0.0,0.0,0.0,0.0,0.0,0.0,-2.0082,-2.044,-2.1624,-2.1652,-2.1823,-2.2393,-2.2528,0.0,0.0,-2.3117,-2.3211,-2.3456,-2.3289,-2.3398,-2.3787,-2.3859,-2.3984,-2.4136,-2.4324,-2.4391,-2.4341,-2.4251,-2.4202,-2.4202,-2.4202,-2.4202,-2.4143,-2.3547,-2.2863,-2.2159,-2.1595,-2.0833,-1.9888,-1.8835,-1.8104,-1.7565,-1.6475,-1.5457,-1.4529,-1.4024,-1.3284,-1.2475,-1.2052,-1.1476,-1.0877,0.0,0.0,0.0,0.0,0.0,0.0,0.0,0.0,0.0,0.0,0.0,0.0,0.0,0.0,-1.4518,0.0,0.0,-1.7158,-1.7804,-1.8541,-1.9434,-2.0609,-2.1078,-2.1362,-2.1536,-2.2118,-2.2696,-2.3228,-2.3594,-2.4178,-2.5013,-2.5553,-2.6136,-2.6796,-2.7345,-2.7689,-2.7895,-2.8092,-2.8249,-2.8438,-2.8618,-2.8868,-2.9172,-2.9555,-2.9705,-2.9646,-3.0198,-3.027,-3.0046,-3.0522,-3.0702,-3.0626,-3.0577,-3.042,-3.0185,-2.9736,-2.9434,-2.9245,-2.9105,-2.9118,-2.9283,0.0,0.0,0.0,0.0,0.0,0.0,0.0,0.0,0.0,0.0,0.0,-2.0434,-2.1576,-2.1531,-2.1573,0.0,0.0,0.0,0.0,-2.3188,-2.3406,-2.3767,-2.3495,-2.3523,-2.3918,-2.4295,-2.437,-2.4122,-2.4659,-2.4784,-2.448,-2.4301,-2.4202,-2.4202,-2.4202,-2.4202,-2.4202,-2.3822,-2.3116,-2.2167,-2.1803,-2.1133,-2.0161,-1.9016,-1.8377,-1.7928,-1.6645,-1.5748,-1.5057,-1.4399,-1.3655,-1.2912,-1.2517,-1.2041,-1.1523,-1.1262,-1.0941,0.0,0.0,0.0,0.0,0.0,0.0,0.0,0.0,0.0,-1.386,-1.4385,-1.5142,-1.5792,-1.6094,-1.7264,-1.8311,-1.8629,-1.9511,-2.0393,-2.1016,-2.1663,-2.2242,-2.2545,-2.2649,-2.2942,-2.3578,-2.3951,-2.4598,-2.5629,-2.5984,-2.6614,-2.7525,-2.7749,-2.798,-2.8297,-2.8429,-2.8654,-2.8898,-2.9088,-2.9403,-2.9914,-2.9977,-3.0191,-3.0438,-3.0739,-3.0823,-3.0781,-3.0986,-3.1023,-3.0889,-3.0889,-3.0889,-3.085,-3.0526,-3.0231,-2.9924,-2.9699,-2.9783,-2.9974,0.0,0.0,0.0,0.0,0.0,0.0,0.0,0.0,0.0,0.0,0.0,0.0,0.0,0.0,0.0,0.0,0.0,0.0,-2.2678,-2.3268,-2.3679,-2.3807,-2.3773,-2.3963,-2.4414,-2.4645,-2.4712,-2.464,-2.4811,-2.4784,-2.448,-2.4301,-2.4202,-2.4202,-2.4202,-2.4202,-2.4183,-2.3465,-2.2817,-2.2141,-2.1523,-2.0899,-2.0215,-1.9156,-1.8629,-1.8232,-1.6734,-1.5827,-1.5288,-1.4712,-1.4147,-1.357,-1.2954,-1.2691,-1.2535,-1.2045,0.0,-1.181,-1.177,-1.2033,0.0,-1.2646,-1.2989,-1.3386,0.0,0.0,-1.4984,-1.5528,-1.6088,-1.669,-1.73,-1.7956,-1.8652,-1.9268,-2.0177,-2.104,-2.1804,-2.218,-2.2561,-2.2911,-2.3236,-2.3578,-2.4018,-2.4317,-2.4968,-2.5984,-2.6356,-2.6819,-2.7542,-2.8271,-2.8665,-2.8708,-2.9332,-2.9626,-2.9683,-3.0348,-3.068,-3.0744,-3.1057,-3.1184,-3.122,-3.1543,-3.1637,-3.1584,-3.15,-3.122,-3.0889,-3.0889,-3.0889,-3.0937,-3.1101,-3.1168,-3.1019,-3.0544,-3.0555,-3.0758,0.0,0.0,0.0,0.0,0.0,0.0,0.0,0.0,0.0,0.0,0.0,0.0,0.0,0.0,0.0,0.0,0.0,0.0,-2.27,-2.3047,-2.3388,-2.3785,-2.3814,-2.3903,-2.4102,-2.4277,-2.4323,-2.4198,-2.445,-2.4485,-2.4388,-2.4239,-2.4202,-2.4202,-2.4202,-2.4073,-2.3785,-2.3466,-2.2838,-2.2064,-2.1616,-2.0909,-2.0093,-1.9159,-1.8615,-1.8212,-1.6879,-1.5952,0.0,0.0,-1.4355,-1.3731,-1.3489,-1.3099,-1.2741,-1.2535,-1.2226,0.0,-1.2417,0.0,0.0,0.0,-1.437,-1.4809,-1.5457,-1.591,-1.6272,-1.6501,-1.7014,-1.7582,-1.8055,-1.8769,-1.9494,0.0,-2.0672,-2.1401,-2.1939,-2.2314,-2.2617,-2.2974,-2.3506,-2.3896,-2.4098,-2.4372,-2.5024,-2.6042,-2.6414,-2.696,-2.7875,-2.8477,-2.8879,-2.9085,-2.954,-2.9887,-3.0157,-3.0685,-3.1,-3.1193,-3.1515,-3.1689,-3.1649,-3.2229,-3.2378,-3.2316,-3.1746,-3.1416,-3.124,-3.0996,-3.0889,-3.0947,-3.1218,-3.1441,-3.1534,-3.1252,-3.1233,-3.1283,0.0,0.0,0.0,0.0,0.0,0.0,0.0,0.0,0.0,0.0,0.0,0.0,0.0,0.0,0.0,0.0,0.0,0.0,0.0,-2.2761,-2.3091,-2.3583,-2.3622,-2.3618,-2.3735,-2.3917,-2.3974,-2.3879,-2.4113,-2.4193,-2.4108,-2.4024,-2.392,-2.3822,-2.3822,-2.3657,-2.3325,-2.3206,-2.2737,-2.1951,-2.1552,-2.0854,-2.0,-1.9161,-1.8524,-1.7986,-1.687,-1.6117,0.0,0.0,-1.4465,-1.3935,-1.3826,-1.3489,-1.3077,-1.3006,-1.2791,-1.2692,-1.3263,0.0,0.0,-1.5042,-1.5613,-1.607,-1.6601,-1.7052,-1.7349,-1.7349,-1.7805,-1.8306,-1.8542,-1.9296,-1.9996,-2.0202,-2.1004,-2.1679,-2.1979,-2.2347,-2.2728,-2.2982,-2.3626,-2.4114,-2.4114,-2.446,-2.5129,-2.605,-2.6513,-2.7206,-2.8177,-2.8665,-2.9107,-2.943,-2.9757,-3.0157,-3.0499,-3.0879,-3.1193,-3.1377,-3.1717,-3.1919,-3.2038,-3.2731,-3.2942,-3.2764,-3.2139,-3.1738,-3.1494,-3.1191,-3.1045,-3.1054,-3.1334,-3.1614,-3.192,-3.1881,-3.1881,-3.1876,0.0,0.0,0.0,0.0,0.0,0.0,0.0,0.0,0.0,0.0,0.0,0.0,0.0,0.0,0.0,0.0,0.0,0.0,0.0,-2.2536,-2.2886,-2.3094,-2.3108,-2.3236,-2.3481,-2.3725,-2.3897,-2.4093,-2.4035,-2.3924,-2.3691,-2.3448,-2.3185,-2.295,-2.295,-2.2931,-2.2895,-2.2492,-2.2217,-2.1952,-2.113,-2.0544,-2.0009,-1.92,-1.8424,-1.7626,-1.678,0.0,0.0,0.0,-1.4678,-1.4317,-1.3935,-1.379,0.0,-1.3557,-1.3697,-1.4049,0.0,0.0,-1.5779,-1.6023,-1.656,-1.7041,-1.7092,-1.7553,-1.7951,-1.7951,-1.8391,-1.8773,-1.8781,-1.9391,-1.9917,-1.9925,-2.1095,-2.1995,-2.2011,-2.2561,-2.3006,-2.3014,-2.3626,-2.4114,0.0,-2.4682,-2.5394,-2.6075,-2.6752,-2.749,-2.8131,-2.8896,-2.9421,-2.9748,-3.0165,-3.0564,-3.0879,-3.1193,-3.1377,-3.1377,-3.1717,-3.2047,-3.2422,-3.3111,-3.3193,-3.2793,-3.2764,-3.2285,-3.1514,-3.1504,-3.1427,-3.1325,-3.1672,-3.196,-3.2305,-3.2592,-3.2649,-3.2587,0.0,0.0,0.0,0.0,0.0,0.0,0.0,0.0,0.0,0.0,0.0,0.0,0.0,0.0,0.0,0.0,0.0,0.0,0.0,-2.2126,-2.2523,-2.2945,-2.306,-2.3127,-2.3217,-2.3051,-2.306,-2.3232,-2.3227,-2.3316,-2.3494,-2.3336,-2.3242,-2.3148,-2.2998,-2.2748,-2.2483,-2.2336,-2.197,-2.137,-2.0965,-2.0377,-1.9707,-1.9116,-1.8415,-1.766,0.0,0.0,0.0,0.0,0.0,-1.4397,-1.4253,-1.4262,-1.4372,-1.4524,-1.463,-1.4879,-1.5511,0.0,-1.6206,-1.7144,-1.7528,-1.7798,-1.8151,-1.8391,-1.8523,-1.8523,-1.8656,-1.8899,-1.9145,-1.9558,-1.9988,-2.0178,-2.1247,-2.2011,-2.2011,-2.2569,-2.3101,-2.334,-2.3777,0.0,0.0,0.0,0.0,-2.6352,-2.7081,-2.7862,-2.8571,-2.9042,-2.9438,-2.9813,-3.0165,-3.0564,-3.0879,-3.1249,-3.1515,-3.1717,-3.2294,-3.2731,-3.3048,-3.3292,-3.334,-3.3193,-3.292,-3.2471,-3.1924,-3.1641,-3.1437,-3.1325,-3.1672,-3.2018,-3.2305,-3.2612,-3.2669,-3.2706,0.0,0.0,0.0,0.0,0.0,0.0,0.0,0.0,0.0,0.0,0.0,0.0,0.0,0.0,0.0,0.0,0.0,0.0,0.0,0.0,-2.2018,-2.2382,-2.2547,-2.2625,-2.2745,-2.2472,-2.2462,-2.2695,-2.2644,-2.2616,-2.2711,-2.2688,-2.2586,-2.2396,-2.2216,-2.1978,-2.1686,-2.1686,-2.1374,-2.0845,-2.058,-2.0132,-1.9552,-1.8958,-1.8254,0.0,0.0,0.0,0.0,0.0,0.0,-1.4565,-1.4574,-1.4663,-1.4874,-1.5301,-1.5478,-1.5623,-1.6388,-1.6707,-1.7028,-1.8034,-1.8283,-1.8415,-1.89,-1.8923,-1.8781,-1.8781,-1.8781,-1.8899,-1.9137,-1.9606,-1.9988,-2.017,-2.1239,-2.2011,-2.2011,-2.2672,-2.3235,-2.3457,-2.3951,0.0,0.0,0.0,0.0,-2.6541,-2.7273,-2.8031,-2.8759,-2.9241,-2.9626,-3.0018,-3.0361,-3.075,-3.1064,-3.1313,-3.1644,-3.2111,-3.2613,-3.3111,-3.3418,-3.3418,-3.3418,-3.3408,-3.3135,-3.2783,-3.2424,-3.2044,-3.1831,-3.1718,-3.1906,-3.219,-3.243,-3.2612,-3.2669,-3.2669,0.0,0.0,0.0,0.0,0.0,0.0,0.0,0.0,0.0,0.0,0.0,0.0,0.0,0.0,0.0,0.0,0.0,0.0,0.0,0.0,0.0,-2.1505,-2.1593,-2.176,-2.2027,-2.1994,-2.2139,-2.2412,-2.2217,-2.1909,-2.1502,-2.1502,-2.1275,-2.0838,-2.0838,-2.0722,-2.0521,-2.0521,-2.0503,-2.0457,-2.004,-1.9775,-1.9485,-1.8704,0.0,0.0,0.0,0.0,0.0,0.0,0.0,0.0,0.0,-1.5087,-1.5294,-1.596,-1.6167,-1.6369,-1.7313,-1.7786,-1.8159,-1.8703,-1.8821,-1.8947,-1.9296,-1.909,-1.8781,-1.8781,-1.8781,-1.8781,0.0,0.0,-1.9917,-1.9917,-2.1095,-2.2011,-2.2011,-2.2871,-2.3488,0.0,0.0,0.0,0.0,0.0,0.0,-2.6645,0.0,-2.8065,-2.8785,-2.9436,-3.0018,-3.0434,-3.075,-3.1064,-3.1377,-3.1442,-3.1772,-3.2422,-3.2794,-3.3102,-3.3418,-3.3418,-3.3418,-3.3418,-3.3418,-3.3184,-3.2825,-3.271,-3.2555,-3.2391,-3.2384,-3.2508,-3.2669,-3.2669,-3.2669,-3.2669,0.0,0.0,0.0,0.0,0.0,0.0,0.0,0.0,0.0,0.0,0.0,0.0,0.0,0.0,0.0,0.0,0.0,0.0,0.0,0.0,0.0,0.0,0.0,0.0,0.0,0.0,0.0,0.0,-2.1263,-2.136,-2.1802,-2.1585,-2.146,-2.1326,-2.1159,-2.095,-2.0713,-2.0713,-2.0463,-2.0031,0.0,-1.9518,-1.8882,0.0,0.0,0.0,0.0,0.0,0.0,0.0,0.0,0.0,0.0,-1.6063,-1.6393,-1.6841,-1.7191,-1.753,-1.8285,-1.8537,-1.8751,-1.9447,-1.9415,-1.9256,-1.9399,-1.909,-1.8781,-1.8781,-1.8781,-1.8781,0.0,0.0,0.0,-1.9917,-2.1095,0.0,-2.2011,-2.2871,0.0,-2.4246,0.0,-2.5225,-2.5789,-2.6549,0.0,0.0,-2.8082,-2.8841,-2.9535,-2.9705,-3.0083,-3.075,-3.0879,-3.1064,-3.1377,-3.1901,-3.2348,-3.2794,-3.3111,-3.3301,-3.3418,-3.3418,-3.3418,-3.3418,-3.3418,-3.3309,-3.3154,-3.3168,-3.2955,-3.2774,-3.272,-3.2717,-3.2669,-3.2669,-3.2669,-3.2669,0.0,0.0,0.0,0.0,0.0,0.0,0.0,0.0,0.0,0.0,0.0,0.0,0.0,0.0,0.0,0.0,0.0,0.0,0.0,0.0,0.0,0.0,0.0,0.0,0.0,0.0,0.0,0.0,0.0,0.0,-2.0752,-2.0585,-2.0507,-2.0388,-2.027,-2.0112,-1.9865,-1.9865,0.0,0.0,0.0,0.0,0.0,0.0,0.0,0.0,0.0,0.0,0.0,0.0,0.0,-1.6231,-1.6349,-1.6786,-1.7262,-1.762,0.0,-1.8359,-1.8915,-1.9169,-1.9415,-1.9955,-1.9781,-1.9455,-1.9606,-1.9193,-1.8781,-1.8781,-1.8781,0.0,0.0,0.0,0.0,0.0,0.0,0.0,-2.2172,-2.3336,-2.4306,0.0,-2.5226,0.0,-2.6466,-2.7026,-2.7592,0.0,-2.8593,-2.9125,-2.9796,-2.9952,-3.0287,-3.0879,-3.1064,-3.1258,-3.1644,-3.2166,-3.2549,-3.2921,-3.3238,-3.3418,-3.3418,-3.3418,-3.3481,-3.3607,0.0,-3.3658,-3.3793,-3.3737,-3.366,-3.3462,-3.3241,-3.3049,-3.2985,-3.2799,-3.2669,-3.2669,0.0,0.0,0.0,0.0,0.0,0.0,0.0,0.0,0.0,0.0,0.0,0.0,0.0,0.0,0.0,0.0,0.0,0.0,0.0,0.0,0.0,0.0,0.0,0.0,0.0,0.0,0.0,0.0,0.0,0.0,0.0,0.0,0.0,0.0,0.0,0.0,0.0,0.0,0.0,0.0,0.0,0.0,0.0,0.0,0.0,0.0,0.0,0.0,0.0,0.0,-1.6812,-1.7106,-1.6868,-1.7278,-1.7914,-1.8263,-1.8621,-1.8994,-1.9399,-1.9765,-2.0068,-2.0377,-1.9948,-1.9558,-1.9845,-1.9288,-1.8756,-1.8756,0.0,-1.8802,-1.8802,0.0,-1.9958,-2.0006,0.0,-2.2384,-2.2424,-2.39,-2.4994,-2.5061,-2.5689,-2.6408,-2.7092,-2.7525,-2.8095,-2.8815,-2.8884,-2.9241,-2.987,-3.023,-3.0629,-3.0944,-3.1313,-3.1644,-3.1983,-3.2294,-3.2603,-3.2985,-3.3228,-3.3418,-3.3418,-3.3418,-3.3607,-3.3922,0.0,0.0,-3.4455,-3.439,-3.434,-3.4216,-3.3723,-3.3399,-3.3244,-3.2871,-3.2669,-3.2669,0.0,0.0,0.0,0.0,0.0,0.0,0.0,0.0,0.0,0.0,0.0,0.0,0.0,0.0,0.0,0.0,0.0,0.0,0.0,0.0,0.0,0.0,0.0,0.0,0.0,0.0,0.0,0.0,0.0,0.0,0.0,0.0,0.0,0.0,0.0,0.0,0.0,0.0,0.0,0.0,0.0,0.0,0.0,0.0,0.0,0.0,0.0,0.0,0.0,0.0,-1.689,-1.7311,-1.7406,-1.7816,-1.8279,-1.8629,-1.8994,-1.9415,-2.0043,-2.0257,-2.0384,-2.0742,-2.0297,-1.9845,-1.9901,-1.9098,0.0,0.0,-1.8685,-1.8775,-1.8938,-1.9565,0.0,-2.0514,0.0,0.0,0.0,0.0,-2.5111,0.0,0.0,0.0,0.0,0.0,0.0,0.0,0.0,0.0,-3.0296,-3.062,-3.0935,-3.1313,-3.1653,-3.1974,-3.2294,-3.2667,-3.2985,-3.3292,-3.3355,-3.3418,-3.3418,-3.367,-3.3859,-3.3922,0.0,0.0,-3.4787,-3.4778,-3.4554,-3.4106,-3.401,-3.3492,-3.283,-3.2758,-3.2669,-3.2669,0.0,0.0,0.0,0.0,0.0,0.0,0.0,0.0,0.0,0.0,0.0,0.0,0.0,0.0,0.0,0.0,0.0,0.0,0.0,0.0,0.0,0.0,0.0,0.0,0.0,0.0,0.0,0.0,0.0,0.0,0.0,0.0,0.0,0.0,0.0,0.0,0.0,0.0,0.0,0.0,0.0,0.0,0.0,0.0,0.0,0.0,0.0,0.0,0.0,0.0,-1.7299,-1.7763,-1.7847,-1.8185,-1.8645,-1.9002,-1.936,-1.9789,-2.0257,-2.0527,-2.0662,-2.0647,-2.0249,-1.9861,-1.983,0.0,0.0,0.0,-1.8648,-1.8619,-1.894,0.0,0.0,0.0,0.0,0.0,0.0,0.0,0.0,0.0,0.0,0.0,0.0,0.0,0.0,0.0,0.0,0.0,0.0,-3.1,-3.1322,-3.1644,-3.1846,-3.2166,-3.2676,-3.2794,-3.3048,-3.3418,-3.3418,-3.3418,-3.3418,-3.3733,-3.3985,-3.4173,0.0,0.0,-3.5149,-3.4923,-3.4696,-3.4443,-3.3955,-3.3441,-3.3037,-3.282,-3.2669,-3.2737,0.0,0.0,0.0,0.0,0.0,0.0,0.0,0.0,0.0,0.0,0.0,0.0,0.0,0.0,0.0,0.0,0.0,0.0,0.0,0.0,0.0,0.0,0.0,0.0,0.0,0.0,0.0,0.0,0.0,0.0,0.0,0.0,0.0,0.0,0.0,0.0,0.0,0.0,0.0,0.0,0.0,0.0,0.0,0.0,0.0,0.0,0.0,0.0,0.0,0.0,-1.7655,-1.8179,-1.8138,-1.8419,-1.885,-1.9288,-1.9654,-2.0045,-2.0396,-2.0748,-2.0982,-2.0688,-2.0327,-1.9999,-1.9714,-1.9112,0.0,0.0,-1.8591,-1.85,-1.8968,0.0,0.0,0.0,0.0,0.0,0.0,0.0,0.0,0.0,0.0,0.0,0.0,0.0,0.0,0.0,0.0,0.0,0.0,-3.1258,-3.158,-3.1919,-3.1983,-3.2294,-3.2921,-3.2985,-3.3111,-3.3418,-3.3418,-3.3418,-3.3418,-3.3796,-3.4173,-3.4423,0.0,0.0,0.0,-3.4941,-3.4764,-3.4588,-3.3758,-3.3317,-3.3203,-3.2851,-3.2669,-3.2727,0.0,0.0,0.0,0.0,0.0,0.0,0.0,0.0,0.0,0.0,0.0,0.0,0.0,0.0,0.0,0.0,0.0,0.0,0.0,0.0,0.0,0.0,0.0,0.0,0.0,0.0,0.0,0.0,0.0,0.0,0.0,0.0,0.0,0.0,0.0,0.0,0.0,0.0,0.0,0.0,0.0,0.0,0.0,0.0,0.0,0.0,0.0,0.0,0.0,0.0,0.0,-1.8179,-1.8171,-1.8395,-1.872,-1.9271,0.0,0.0,-2.0694,-2.1202,-2.1541,-2.1196,-2.0884,-2.0431,-1.9685,0.0,0.0,-1.8305,-1.8297,-1.8482,-1.9067,-1.9451,-2.0056,0.0,0.0,-2.2416,0.0,0.0,0.0,0.0,0.0,0.0,0.0,0.0,0.0,0.0,0.0,0.0,0.0,-3.1377,-3.158,-3.1919,-3.2166,-3.2549,-3.2921,-3.3175,-3.3355,-3.3418,-3.3418,-3.3418,-3.3418,-3.4047,-3.436,-3.4423,0.0,0.0,0.0,-3.4941,-3.4577,-3.4142,-3.3575,-3.3141,-3.2789,-3.2747,-3.2669,-3.2727,0.0,0.0,0.0,0.0,0.0,0.0,0.0,0.0,0.0,0.0,0.0,0.0,0.0,0.0,0.0,0.0,0.0,0.0,0.0,0.0,0.0,0.0,0.0,0.0,0.0,0.0,0.0,0.0,0.0,0.0,0.0,0.0,0.0,0.0,0.0,0.0,0.0,0.0,0.0,0.0,0.0,0.0,0.0,0.0,0.0,0.0,0.0,0.0,0.0,0.0,0.0,0.0,-1.8112,-1.8287,0.0,0.0,-1.9807,-2.0261,-2.0573,-2.0868,-2.0941,-2.0636,-2.0429,-2.0179,-1.9587,0.0,0.0,-1.8456,-1.8252,-1.8368,-1.9221,-1.9497,-2.0095,-2.1616,0.0,0.0,0.0,0.0,0.0,0.0,0.0,0.0,0.0,0.0,0.0,0.0,0.0,0.0,0.0,0.0,-3.1846,-3.2166,-3.2549,-3.2858,-3.3175,-3.3355,-3.3418,-3.3418,-3.3418,-3.3418,-3.3418,-3.411,-3.4423,0.0,0.0,0.0,0.0,-3.4588,-3.4132,-3.3606,-3.3161,-3.2882,-3.2669,-3.2669,-3.2841,-3.3022,0.0,0.0,0.0,0.0,0.0,0.0,0.0,0.0,0.0,0.0,0.0,0.0,0.0,0.0,0.0,0.0,0.0,0.0,0.0,0.0,0.0,0.0,0.0,0.0,0.0,0.0,0.0,0.0,0.0,0.0,0.0,0.0,0.0,0.0,0.0,0.0,0.0,0.0,0.0,0.0,0.0,0.0,0.0,0.0,0.0,0.0,0.0,0.0,0.0,0.0,0.0,0.0,0.0,0.0,0.0,0.0,-1.9662,-2.0118,-2.0475,-2.0706,-2.0745,-2.0434,-2.0259,-2.0029,0.0,0.0,0.0,-1.8585,-1.8342,-1.8434,-1.9407,-1.9589,-2.014,-2.1768,0.0,-2.2952,0.0,0.0,0.0,0.0,0.0,0.0,0.0,0.0,0.0,0.0,0.0,0.0,0.0,0.0,-3.2294,-3.2549,-3.2794,-3.3048,-3.3418,-3.3418,-3.3418,-3.3418,-3.3418,-3.3418,-3.3418,-3.411,-3.4423,0.0,0.0,0.0,0.0,-3.4318,-3.3793,-3.3327,-3.2903,-3.2669,-3.2669,-3.2669,-3.2898,-3.325,0.0,0.0,0.0,0.0,0.0,0.0,0.0,0.0,0.0,0.0,0.0,0.0,0.0,0.0,0.0,0.0,0.0,0.0,0.0,0.0,0.0,0.0,0.0,0.0,0.0,0.0,0.0,-1.6317,-1.6586,0.0,0.0,0.0,0.0,0.0,0.0,0.0,0.0,0.0,0.0,0.0,0.0,0.0,0.0,0.0,0.0,0.0,0.0,0.0,0.0,0.0,0.0,0.0,0.0,0.0,0.0,0.0,-1.9417,-1.9966,-2.0374,-2.0933,-2.1328,-2.0968,-2.0583,-2.0103,0.0,0.0,0.0,-1.844,-1.8402,-1.8679,-1.9627,-1.9811,-2.02,-2.1423,-2.1928,0.0,0.0,0.0,0.0,0.0,0.0,0.0,0.0,0.0,0.0,0.0,0.0,0.0,0.0,0.0,-3.2858,-3.2921,-3.2921,-3.3048,-3.3418,-3.3418,-3.3418,-3.3418,-3.3418,-3.3418,-3.3418,-3.411,0.0,0.0,0.0,0.0,0.0,-3.4318,-3.3793,-3.3327,-3.2903,-3.2669,-3.2669,-3.2669,-3.2898,-3.325,0.0,0.0,0.0,0.0,0.0,0.0,0.0,0.0,0.0,0.0,0.0,0.0,0.0,0.0,0.0,0.0,0.0,0.0,0.0,0.0,0.0,0.0,0.0,0.0,0.0,0.0,-1.6128,-1.6586,-1.666,-1.7077,-1.7812,0.0,0.0,0.0,0.0,0.0,0.0,0.0,0.0,0.0,0.0,0.0,0.0,0.0,0.0,0.0,0.0,0.0,0.0,0.0,0.0,0.0,0.0,0.0,0.0,-1.8219,0.0,0.0,-1.9587,-1.9742,-1.9855,-1.9744,-1.9624,-1.9436,-1.9065,0.0,0.0,-1.8651,-1.8612,-1.889,-1.988,-2.0065,-2.0494,-2.1862,-2.2443,0.0,0.0,0.0,0.0,0.0,0.0,0.0,0.0,0.0,0.0,0.0,0.0,0.0,0.0,0.0,0.0,-3.2921,-3.3111,-3.3292,-3.3418,-3.3418,-3.3418,-3.3418,-3.3418,-3.3418,-3.3418,0.0,0.0,0.0,0.0,0.0,0.0,-3.4194,-3.3617,-3.2923,-3.2789,-3.2669,-3.2669,-3.2669,-3.3012,-3.3466,0.0,0.0,0.0,0.0,0.0,0.0,0.0,0.0,0.0,0.0,0.0,0.0,0.0,0.0,0.0,0.0,0.0,0.0,0.0,0.0,0.0,0.0,0.0,0.0,0.0,-1.5943,-1.6118,-1.6547,-1.665,-1.7058,-1.7773,-1.7939,-1.8008,0.0,0.0,0.0,0.0,0.0,0.0,0.0,0.0,0.0,-1.8008,0.0,0.0,0.0,0.0,0.0,0.0,0.0,0.0,0.0,0.0,0.0,0.0,0.0,-1.8403,-1.883,0.0,-1.9213,-1.9213,-1.9299,-1.9195,0.0,0.0,0.0,0.0,0.0,0.0,-1.9245,-2.0258,-2.053,-2.1001,-2.2362,-2.2954,0.0,0.0,0.0,0.0,0.0,0.0,0.0,0.0,0.0,0.0,0.0,0.0,0.0,0.0,0.0,0.0,-3.3111,-3.3301,-3.3418,-3.3418,-3.3418,-3.3418,-3.3418,-3.3418,-3.3418,-3.3418,0.0,0.0,0.0,0.0,0.0,0.0,-3.4132,-3.3544,-3.2669,-3.2669,-3.2669,-3.2737,-3.2841,-3.3182,-3.3625,0.0,0.0,0.0,0.0,0.0,0.0,0.0,0.0,0.0,0.0,0.0,0.0,0.0,0.0,0.0,0.0,0.0,0.0,0.0,0.0,0.0,0.0,0.0,0.0,0.0,-1.5961,-1.6057,-1.6356,-1.6596,-1.6941,-1.7432,-1.7832,-1.8008,-1.8008,-1.8008,0.0,0.0,0.0,0.0,0.0,0.0,0.0,0.0,0.0,0.0,0.0,0.0,0.0,0.0,0.0,0.0,0.0,0.0,0.0,0.0,0.0,0.0,0.0,0.0,-1.9161,0.0,0.0,0.0,0.0,0.0,0.0,0.0,0.0,0.0,0.0,-2.0749,-2.1057,-2.1641,-2.2903,-2.3453,0.0,0.0,0.0,0.0,0.0,0.0,0.0,0.0,0.0,0.0,0.0,0.0,0.0,0.0,0.0,0.0,0.0,-3.3418,-3.3418,-3.3418,-3.3418,-3.3418,-3.3418,-3.3418,-3.3418,-3.3418,0.0,0.0,0.0,0.0,0.0,0.0,-3.409,-3.3513,-3.2669,-3.2669,-3.2669,-3.2737,-3.3079,-3.3353,-3.3625,0.0,0.0,0.0,0.0,0.0,0.0,0.0,0.0,0.0,0.0,0.0,0.0,0.0,0.0,0.0,0.0,0.0,0.0,0.0,0.0,0.0,0.0,0.0,0.0,0.0,-1.5961,-1.6207,-1.6853,-1.6743,-1.7087,-1.7871,-1.7969,-1.8008,-1.8008,-1.8008,-1.8008,0.0,0.0,0.0,0.0,0.0,0.0,0.0,0.0,0.0,0.0,-1.7716,-1.7554,0.0,0.0,0.0,0.0,0.0,0.0,0.0,0.0,-1.7619,-1.8151,-1.8307,0.0,-1.8845,-1.8885,-1.8815,-1.8793,0.0,0.0,0.0,0.0,0.0,0.0,0.0,-2.1182,-2.1641,-2.2903,0.0,0.0,0.0,0.0,0.0,0.0,0.0,0.0,0.0,0.0,0.0,0.0,0.0,0.0,0.0,0.0,0.0,0.0,-3.3418,-3.3418,-3.3418,-3.3418,-3.3418,-3.3418,-3.3418,-3.3418,0.0,0.0,0.0,0.0,0.0,0.0,0.0,-3.3689,-3.3223,-3.2669,-3.2669,-3.2669,-3.2737,-3.3079,-3.3353,-3.3625,0.0,0.0,0.0,0.0,0.0,0.0,0.0,0.0,0.0,0.0,0.0,0.0,0.0,0.0,0.0,0.0,0.0,0.0,0.0,0.0,0.0,0.0,0.0,0.0,-1.6239,-1.6077,-1.6336,-1.7096,-1.6918,-1.7233,-1.8008,-1.8008,-1.8008,-1.8008,-1.8008,-1.8008,0.0,0.0,0.0,0.0,0.0,0.0,0.0,0.0,0.0,0.0,-1.7784,-1.7647,0.0,-1.7382,-1.7176,-1.7003,0.0,0.0,0.0,0.0,-1.777,-1.8191,-1.8528,-1.8665,-1.874,-1.8812,-1.8851,-1.8891,-1.9201,0.0,0.0,0.0,0.0,0.0,0.0,0.0,0.0,0.0,0.0,0.0,0.0,0.0,0.0,0.0,0.0,0.0,0.0,0.0,0.0,0.0,0.0,0.0,0.0,0.0,0.0,0.0,0.0,-3.3418,-3.3418,-3.3418,-3.3418,-3.3418,-3.3418,-3.3481,0.0,0.0,0.0,0.0,0.0,0.0,-3.3789,-3.3472,-3.312,-3.2669,-3.2669,-3.2669,-3.2784,-3.3182,-3.3466,-3.3681,0.0,0.0,0.0,0.0,0.0,0.0,0.0,0.0,0.0,0.0,0.0,0.0,0.0,0.0,0.0,0.0,0.0,0.0,0.0,0.0,0.0,0.0,0.0,-1.6413,-1.6413,-1.6282,-1.6545,-1.7263,-1.7135,-1.7421,-1.8042,-1.8008,-1.8008,-1.8008,-1.8008,-1.8008,0.0,0.0,0.0,0.0,-1.8008,0.0,0.0,0.0,0.0,0.0,0.0,0.0,0.0,-1.7564,-1.7539,-1.7505,-1.7505,0.0,0.0,0.0,0.0,0.0,-1.9023,-1.9003,-1.8859,-1.9063,-1.9161,-1.924,-1.9557,0.0,0.0,0.0,0.0,0.0,0.0,-2.2483,0.0,0.0,0.0,0.0,0.0,0.0,0.0,0.0,0.0,0.0,0.0,0.0,0.0,0.0,0.0,0.0,0.0,0.0,0.0,0.0,0.0,0.0,-3.3348,-3.3359,-3.3389,-3.3393,-3.3393,-3.3542,-3.3776,-3.3778,0.0,0.0,0.0,0.0,-3.3368,-3.3306,-3.3058,-3.2669,-3.2669,-3.2669,-3.2784,-3.3409,-3.3625,-3.3681,0.0,0.0,0.0,0.0,0.0,0.0,0.0,0.0,0.0,0.0,0.0,0.0,0.0,0.0,0.0,0.0,0.0,0.0,0.0,0.0,0.0,0.0,-1.6413,-1.6413,-1.6413,-1.659,-1.6951,-1.744,-1.7498,-1.7774,-1.8236,-1.8076,-1.8008,-1.8008,-1.8008,-1.8008,-1.8008,-1.8008,-1.8008,-1.8008,-1.8008,0.0,0.0,0.0,0.0,0.0,0.0,0.0,0.0,-1.7672,-1.7588,-1.7505,-1.7505,0.0,0.0,0.0,0.0,0.0,-1.8654,-1.8986,-1.9285,-1.9661,-1.9745,-1.9784,-1.9824,-2.0029,0.0,0.0,0.0,0.0,0.0,0.0,0.0,0.0,0.0,0.0,0.0,0.0,0.0,0.0,0.0,0.0,0.0,0.0,0.0,0.0,0.0,0.0,0.0,0.0,0.0,0.0,0.0,0.0,0.0,-3.3306,-3.3368,-3.3325,-3.3325,-3.3311,-3.3246,-3.3487,-3.3637,0.0,0.0,0.0,-3.3348,-3.2985,-3.2789,-3.2669,-3.2669,-3.2669,-3.2784,-3.3409,-3.3625,-3.3681,0.0,0.0,0.0,0.0,0.0,0.0,0.0,0.0,0.0,0.0,0.0,0.0,0.0,0.0,0.0,0.0,0.0,0.0,0.0,0.0,0.0,-1.663,-1.6563,-1.6477,-1.6413,-1.672,-1.7113,-1.7502,-1.775,-1.8031,-1.8303,-1.8076,-1.8008,-1.8008,-1.8008,-1.8008,-1.8008,-1.8008,-1.8008,-1.8008,0.0,0.0,0.0,0.0,0.0,0.0,0.0,0.0,0.0,0.0,-1.7837,-1.7779,-1.7779,0.0,0.0,0.0,0.0,0.0,-1.8848,-1.9176,-1.9484,-2.0265,-2.0186,-1.9998,-2.0345,-2.0641,-2.1005,0.0,0.0,0.0,0.0,0.0,0.0,0.0,0.0,0.0,0.0,0.0,0.0,0.0,0.0,0.0,0.0,0.0,0.0,0.0,0.0,0.0,0.0,0.0,0.0,0.0,0.0,0.0,0.0,-3.3203,-3.3241,-3.3174,-3.3174,-3.3246,-3.3395,-3.327,-3.3336,0.0,0.0,-3.3027,-3.3016,-3.282,-3.2669,-3.2669,-3.2669,-3.2669,-3.2784,-3.3409,-3.3794,-3.4132,0.0,0.0,0.0,0.0,0.0,0.0,0.0,0.0,0.0,0.0,0.0,0.0,0.0,0.0,0.0,0.0,0.0,0.0,0.0,0.0,-1.6835,-1.6818,-1.6694,-1.6581,-1.6459,-1.6922,-1.7286,-1.7543,-1.8022,-1.8296,-1.8337,-1.8178,-1.8076,-1.8076,-1.8008,-1.8008,-1.8008,-1.8042,-1.8076,-1.8076,0.0,0.0,0.0,0.0,0.0,0.0,0.0,0.0,0.0,0.0,0.0,0.0,0.0,0.0,0.0,-1.811,-1.811,-1.8296,-1.9206,-1.9442,-1.9686,-2.0726,-2.0615,-2.0446,-2.1013,-2.1379,-2.1778,0.0,0.0,0.0,0.0,0.0,0.0,0.0,0.0,0.0,0.0,0.0,0.0,0.0,0.0,0.0,0.0,0.0,0.0,0.0,0.0,0.0,0.0,0.0,0.0,0.0,0.0,0.0,0.0,-3.2982,-3.3032,-3.3064,-3.3064,-3.3192,-3.3387,-3.3028,-3.2991,-3.3213,-3.2871,-3.2669,-3.2669,-3.2669,-3.2669,-3.2669,-3.2669,-3.2784,-3.2955,-3.3523,-3.4076,-3.4524,0.0,0.0,0.0,0.0,0.0,0.0,0.0,0.0,0.0,0.0,0.0,0.0,0.0,0.0,0.0,0.0,0.0,0.0,0.0,0.0,-1.6937,-1.6807,-1.6779,-1.6722,-1.6581,-1.7282,-1.7668,-1.7709,-1.8404,-1.8643,-1.8482,-1.8337,-1.8269,-1.8269,-1.8076,-1.8008,-1.8008,-1.8212,-1.8269,-1.8303,-1.8414,0.0,0.0,0.0,0.0,0.0,0.0,0.0,0.0,0.0,0.0,0.0,0.0,0.0,-1.8448,-1.8448,-1.8448,-1.8672,-1.961,-1.9851,-2.0062,-2.0956,-2.135,-2.1531,-2.1779,-2.2161,-2.2664,-2.3296,0.0,0.0,0.0,0.0,0.0,0.0,0.0,0.0,0.0,0.0,0.0,0.0,0.0,0.0,0.0,0.0,0.0,0.0,0.0,0.0,0.0,0.0,0.0,0.0,0.0,0.0,0.0,0.0,-3.2796,-3.2893,-3.2893,-3.2864,-3.2762,-3.2731,-3.2721,-3.2778,-3.269,-3.2669,-3.2669,-3.2669,-3.2669,-3.2669,-3.2669,-3.3069,-3.3579,-3.3918,-3.4255,-3.4524,0.0,0.0,0.0,0.0,0.0,0.0,0.0,0.0,0.0,0.0,0.0,0.0,0.0,0.0,0.0,0.0,0.0,0.0,0.0,0.0,-1.7145,-1.7099,-1.7004,-1.6909,-1.6842,-1.7483,-1.7947,-1.8133,-1.8568,-1.8741,-1.8674,-1.8516,-1.8414,-1.8414,-1.8347,-1.8313,-1.8313,-1.8381,-1.8414,-1.8448,-1.8617,-1.8684,0.0,0.0,0.0,0.0,0.0,0.0,0.0,0.0,-1.8516,-1.8516,0.0,-1.8516,-1.8516,-1.8516,-1.8717,-1.9068,-1.9716,-2.0088,-2.0558,-2.1551,-2.2109,0.0,0.0,-2.2746,-2.344,-2.4358,-2.4771,0.0,0.0,0.0,0.0,0.0,0.0,0.0,0.0,0.0,0.0,0.0,0.0,0.0,0.0,0.0,0.0,0.0,0.0,0.0,0.0,0.0,0.0,0.0,0.0,0.0,0.0,0.0,-3.2762,-3.2802,-3.2802,-3.2777,-3.2669,-3.2669,-3.2669,-3.2669,-3.2669,-3.2669,-3.2669,-3.2669,-3.2669,-3.2737,-3.2908,-3.3239,-3.3625,-3.3974,-3.4255,-3.4524,0.0,0.0,0.0,0.0,0.0,0.0,0.0,0.0,0.0,0.0,0.0,0.0,0.0,0.0,0.0,0.0,0.0,0.0,0.0,-1.7306,-1.7306,-1.7306,-1.7172,-1.7114,-1.7226,-1.7637,-1.7986,-1.8228,-1.8532,-1.866,-1.866,-1.8471,-1.8371,-1.8371,-1.8455,-1.8516,-1.8516,-1.8583,-1.8583,-1.8617,-1.8808,-1.8908,0.0,0.0,0.0,0.0,0.0,0.0,0.0,0.0,-1.8852,-1.8852,0.0,0.0,0.0,0.0,-1.9168,-1.9663,-2.0124,-2.0575,-2.1203,-2.2234,0.0,0.0,-2.3145,-2.368,-2.4414,-2.5242,-2.5872,-2.6583,-2.76,0.0,0.0,0.0,0.0,0.0,0.0,0.0,0.0,0.0,0.0,0.0,0.0,0.0,0.0,0.0,0.0,0.0,0.0,0.0,0.0,0.0,0.0,0.0,0.0,0.0,-3.2669,-3.2669,-3.2669,-3.2669,-3.2669,-3.2669,-3.2669,-3.2669,-3.2669,-3.2669,-3.2669,-3.2669,-3.2669,-3.2727,-3.3182,-3.3466,-3.3625,-3.4086,-3.4367,-3.4524,0.0,0.0,0.0,0.0,0.0,0.0,0.0,0.0,0.0,0.0,0.0,0.0,0.0,0.0,0.0,0.0,0.0,0.0,0.0,-1.7306,-1.7306,-1.7306,-1.7306,-1.7429,-1.7682,-1.7693,-1.7781,-1.7883,-1.8217,-1.8403,-1.8403,-1.8189,-1.8092,-1.8112,-1.8371,-1.8516,-1.8516,-1.8707,-1.8808,-1.8808,-1.9008,-1.9175,-1.9318,0.0,0.0,0.0,0.0,0.0,0.0,0.0,-1.9605,-1.9605,0.0,0.0,0.0,0.0,-1.9956,-2.039,-2.0867,-2.136,-2.1924,0.0,0.0,0.0,-2.4402,-2.5062,-2.5651,-2.5869,-2.6892,-2.7915,-2.8669,0.0,0.0,0.0,0.0,0.0,0.0,0.0,0.0,0.0,0.0,0.0,0.0,0.0,0.0,0.0,0.0,0.0,0.0,0.0,0.0,0.0,0.0,0.0,0.0,0.0,-3.2669,-3.2669,-3.2669,-3.2669,-3.2669,-3.2669,-3.2669,-3.2669,-3.2669,-3.2669,-3.2669,-3.2669,-3.2669,-3.2784,-3.3342,-3.3625,-3.3681,-3.43,-3.4524,-3.4524,0.0,0.0,0.0,0.0,0.0,0.0,0.0,0.0,0.0,0.0,0.0,0.0,0.0,0.0,0.0,0.0,0.0,0.0,0.0,-1.7306,-1.7306,-1.7306,-1.7306,-1.7344,-1.7418,-1.759,-1.7781,-1.7883,-1.7916,-1.7895,-1.7895,-1.7864,-1.7997,-1.8317,-1.8397,-1.86,-1.8942,-1.8975,-1.9075,-1.9152,-1.9218,-1.9341,-1.9506,0.0,0.0,0.0,0.0,0.0,0.0,0.0,0.0,0.0,0.0,0.0,0.0,-1.9605,-2.0179,-2.0814,-2.0952,-2.1594,0.0,-2.3381,0.0,0.0,0.0,-2.5797,0.0,0.0,-2.7885,-2.8645,0.0,0.0,0.0,0.0,0.0,0.0,0.0,0.0,0.0,0.0,0.0,0.0,0.0,0.0,0.0,0.0,0.0,0.0,0.0,0.0,0.0,0.0,0.0,0.0,0.0,0.0,0.0,-3.2669,-3.2669,-3.2669,-3.2669,-3.2669,-3.2669,-3.2669,-3.2669,-3.2669,-3.2669,-3.2669,-3.2669,-3.2784,-3.3342,-3.3625,-3.3681,-3.43,-3.4524,-3.4524,0.0,0.0,0.0,0.0,0.0,0.0,0.0,0.0,0.0,0.0,0.0,0.0,0.0,0.0,0.0,0.0,0.0,0.0,0.0,0.0,-1.7306,-1.7306,-1.7306,-1.7306,-1.7306,-1.7387,-1.7466,-1.7548,-1.7599,-1.7582,-1.7541,-1.7541,-1.7656,-1.7864,-1.8216,-1.8601,-1.8958,-1.9102,-1.9274,-1.9417,-1.9417,-1.9539,-1.9704,0.0,0.0,0.0,0.0,0.0,0.0,0.0,0.0,0.0,0.0,0.0,0.0,-1.9813,-2.0524,-2.1347,-2.1347,-2.2168,0.0,-2.3971,-2.4277,-2.4805,-2.6454,0.0,0.0,0.0,0.0,0.0,0.0,0.0,0.0,0.0,0.0,0.0,0.0,0.0,0.0,0.0,0.0,0.0,0.0,0.0,0.0,0.0,0.0,0.0,0.0,0.0,0.0,0.0,0.0,0.0,0.0,0.0,0.0,-3.2199,-3.2199,-3.2282,-3.2401,-3.2587,-3.2669,-3.2669,-3.2669,-3.2669,-3.2669,-3.2669,-3.2669,-3.2784,-3.3342,-3.3625,-3.3681,-3.43,-3.4524,-3.4524,0.0,0.0,0.0,0.0,0.0,0.0,0.0,0.0,0.0,0.0,-1.7783,0.0,0.0,0.0,0.0,0.0,0.0,0.0,0.0,0.0,-1.7306,-1.7306,-1.7306,-1.7306,-1.7306,-1.7106,-1.7039,-1.7039,-1.7291,-1.7368,-1.724,-1.724,-1.7172,-1.7077,-1.7926,-1.8479,-1.8733,-1.911,-1.9408,-1.9638,-1.9638,-1.9736,-1.99,-1.99,0.0,0.0,0.0,0.0,0.0,0.0,0.0,0.0,-2.014,-2.014,-2.014,-2.014,-2.0996,-2.194,-2.194,0.0,0.0,0.0,0.0,0.0,0.0,0.0,0.0,0.0,0.0,0.0,0.0,0.0,0.0,0.0,0.0,0.0,0.0,0.0,0.0,0.0,0.0,0.0,0.0,0.0,0.0,0.0,0.0,0.0,0.0,0.0,0.0,0.0,0.0,0.0,0.0,0.0,0.0,0.0,-3.1425,-3.1588,-3.1936,-3.2457,-3.2638,-3.2669,-3.2669,-3.2669,-3.2669,-3.2669,-3.2669,-3.2784,-3.3342,-3.3625,-3.3681,-3.43,-3.4524,-3.4524,0.0,0.0,0.0,0.0,0.0,0.0,0.0,0.0,0.0,0.0,0.0,0.0,0.0,0.0,0.0,0.0,0.0,0.0,0.0,0.0,-1.7306,-1.7306,-1.7306,-1.7306,-1.7306,-1.7267,-1.7239,-1.7239,-1.7027,-1.6938,-1.691,-1.691,-1.7072,-1.7413,-1.7603,-1.813,-1.885,-1.8945,-1.9297,-1.9835,-1.9835,-1.99,-2.0042,-2.0042,-2.0074,0.0,0.0,0.0,0.0,0.0,0.0,0.0,-2.0572,-2.0572,-2.0572,-2.0572,-2.1297,-2.2056,0.0,-2.3165,0.0,0.0,0.0,0.0,0.0,0.0,0.0,0.0,0.0,0.0,0.0,0.0,0.0,0.0,0.0,0.0,0.0,0.0,0.0,0.0,0.0,0.0,0.0,0.0,0.0,0.0,0.0,0.0,0.0,0.0,0.0,0.0,0.0,0.0,0.0,-3.1993,-3.1797,0.0,-3.148,-3.1422,-3.1536,-3.1981,-3.2328,-3.2669,-3.2669,-3.2669,-3.2669,-3.2669,-3.2669,-3.2784,-3.3342,-3.3625,-3.3681,-3.43,-3.4524,-3.4524,0.0,0.0,0.0,0.0,0.0,0.0,0.0,0.0,0.0,0.0,0.0,0.0,0.0,0.0,0.0,0.0,0.0,0.0,0.0,0.0,0.0,0.0,-1.7407,-1.7434,-1.7501,-1.7501,-1.7501,-1.7501,-1.7323,-1.7117,-1.6909,-1.6909,-1.6992,-1.7172,-1.7648,-1.8146,-1.873,-1.918,-1.9609,-2.0009,-2.0009,-2.0107,-2.0237,-2.0237,-2.0302,-2.0378,-2.0378,0.0,0.0,0.0,0.0,0.0,0.0,0.0,-2.0746,-2.097,-2.1599,-2.2308,0.0,0.0,0.0,0.0,0.0,0.0,0.0,0.0,0.0,0.0,0.0,0.0,0.0,0.0,0.0,0.0,0.0,0.0,0.0,0.0,0.0,0.0,0.0,0.0,0.0,0.0,0.0,0.0,0.0,0.0,0.0,0.0,0.0,0.0,0.0,0.0,-3.1952,-3.1551,-3.1232,-3.1126,-3.0869,-3.0833,-3.1071,-3.1733,-3.2235,-3.2669,-3.2669,-3.2669,-3.2669,-3.2669,-3.2784,-3.2965,-3.3409,-3.3681,-3.3918,-3.4356,-3.4524,-3.4524,0.0,0.0,0.0,0.0,0.0,0.0,0.0,0.0,0.0,0.0,0.0,0.0,0.0,0.0,0.0,0.0,0.0,0.0,0.0,0.0,0.0,0.0,-1.7523,-1.759,-1.7711,-1.7711,-1.7711,-1.7711,0.0,0.0,0.0,-1.727,-1.7168,-1.7081,-1.7967,-1.8468,-1.8711,-1.9511,-1.9966,-2.014,-2.0183,-2.0302,-2.0443,-2.0443,-2.0572,-2.0701,-2.0701,-2.0701,-2.0733,-2.0733,0.0,0.0,0.0,0.0,-2.0888,-2.1339,-2.1924,-2.2571,0.0,0.0,0.0,0.0,0.0,0.0,0.0,0.0,0.0,0.0,0.0,0.0,0.0,0.0,0.0,0.0,0.0,0.0,0.0,0.0,0.0,0.0,0.0,0.0,0.0,0.0,0.0,0.0,0.0,0.0,0.0,0.0,0.0,0.0,0.0,0.0,-3.1281,-3.0983,-3.0713,-3.0453,-3.0141,-3.0243,-3.0708,-3.1464,-3.2039,-3.2556,-3.2638,-3.2669,-3.2669,-3.2669,-3.2908,-3.325,-3.3523,-3.3805,-3.4142,-3.4412,-3.4524,-3.4524,0.0,0.0,0.0,0.0,0.0,0.0,0.0,0.0,0.0,0.0,0.0,0.0,0.0,0.0,0.0,0.0,0.0,0.0,-1.7673,0.0,0.0,-1.7673,-1.7673,-1.7684,-1.7711,-1.7711,-1.7711,-1.7711,0.0,0.0,0.0,0.0,0.0,-1.8045,-1.8625,-1.905,-1.93,-1.9588,-1.998,-2.0378,-2.054,-2.0637,-2.0669,-2.0669,-2.0669,-2.0701,-2.0701,-2.0754,-2.0871,-2.0871,-2.0999,0.0,0.0,0.0,-2.1241,-2.1712,-2.2216,-2.2754,0.0,0.0,0.0,0.0,0.0,0.0,0.0,0.0,0.0,0.0,0.0,0.0,0.0,0.0,0.0,0.0,0.0,0.0,0.0,0.0,0.0,0.0,0.0,0.0,0.0,0.0,0.0,0.0,0.0,0.0,0.0,0.0,0.0,0.0,0.0,0.0,-3.1578,-3.1281,-3.1034,-3.0724,-3.0256,-3.0243,-3.0688,-3.0812,-3.1329,-3.2101,-3.2494,-3.2669,-3.2669,-3.2669,-3.2908,-3.325,-3.3523,-3.3805,-3.4142,-3.4412,-3.4524,-3.4524,0.0,0.0,0.0,0.0,0.0,0.0,0.0,0.0,0.0,0.0,0.0,0.0,0.0,0.0,0.0,-1.8193,-1.803,-1.7893,-1.781,-1.7728,-1.7739,-1.781,-1.781,-1.7838,-1.792,-1.8041,-1.8096,0.0,0.0,0.0,0.0,-1.9482,-1.939,0.0,0.0,-1.9571,-1.9701,-2.0083,-2.0371,-2.0572,-2.0669,-2.0765,-2.0818,-2.0818,-2.0882,-2.0978,-2.0978,-2.101,-2.1063,-2.1063,-2.1126,-2.1279,-2.1631,0.0,0.0,0.0,-2.3223,0.0,-2.4386,0.0,0.0,0.0,0.0,0.0,0.0,0.0,0.0,0.0,0.0,0.0,0.0,0.0,0.0,0.0,0.0,0.0,0.0,0.0,0.0,0.0,0.0,0.0,0.0,0.0,0.0,0.0,0.0,0.0,0.0,-3.2443,-3.2128,-3.1823,-3.1669,0.0,-3.1618,-3.1322,-3.0972,-3.0557,-3.0203,-3.0098,-3.0315,-3.0563,-3.1184,-3.1998,-3.2194,-3.2432,-3.2669,-3.2669,-3.3022,-3.3466,-3.3568,-3.3907,-3.4367,-3.4468,-3.4524,-3.4524,0.0,0.0,0.0,0.0,0.0,0.0,0.0,0.0,0.0,0.0,0.0,0.0,0.0,0.0,0.0,0.0,-1.8302,-1.8154,-1.8045,-1.7893,-1.7838,-1.7936,-1.7991,-1.8073,-1.8166,-1.8367,0.0,0.0,0.0,0.0,-1.9611,-2.0387,-2.0407,0.0,-2.0053,-2.0149,-2.014,-2.0565,-2.0765,-2.0754,-2.085,-2.1014,-2.1257,-2.1289,-2.1466,-2.1742,-2.1742,-2.1742,-2.1742,-2.1742,-2.1742,-2.1811,-2.2337,-2.2498,0.0,0.0,0.0,0.0,0.0,0.0,0.0,0.0,0.0,0.0,0.0,0.0,0.0,0.0,0.0,0.0,0.0,0.0,0.0,0.0,0.0,0.0,0.0,0.0,0.0,0.0,0.0,0.0,0.0,0.0,0.0,0.0,0.0,0.0,0.0,-3.2284,-3.2012,-3.1661,-3.146,-3.1308,-3.1218,-3.1084,-3.0854,-3.0505,-3.0245,-3.0047,-3.0005,-3.0356,-3.0946,-3.1712,-3.1884,-3.2184,-3.2561,-3.2742,-3.3126,-3.3625,-3.3681,-3.4019,-3.4524,-3.4524,-3.4524,-3.4524,0.0,0.0,0.0,0.0,0.0,0.0,0.0,0.0,0.0,0.0,0.0,0.0,-1.8587,-1.8587,-1.8587,-1.8587,-1.8587,-1.8518,-1.8394,-1.8193,-1.8084,-1.8084,-1.8275,0.0,-1.8394,-1.8518,0.0,0.0,0.0,0.0,-2.0088,-2.0629,-2.1146,-2.1553,-2.1049,-2.0773,-2.0667,0.0,-2.0903,-2.0935,-2.1242,-2.167,-2.2155,-2.2329,-2.2733,-2.3189,-2.3189,-2.3189,-2.3189,-2.3189,-2.3189,-2.3201,-2.3225,-2.3236,-2.3342,0.0,0.0,0.0,0.0,0.0,0.0,0.0,0.0,0.0,0.0,0.0,0.0,0.0,0.0,0.0,0.0,0.0,0.0,0.0,0.0,0.0,0.0,0.0,0.0,0.0,0.0,0.0,0.0,0.0,0.0,0.0,0.0,0.0,-3.1391,-3.1391,-3.115,-3.0714,-3.0666,-3.0519,-3.0286,-3.0424,-3.0625,-3.0776,-3.0505,-3.0245,-2.9994,-3.0025,-3.0294,-3.0801,-3.1661,-3.1998,-3.2116,-3.2845,-3.3353,-3.3625,-3.3974,-3.4255,-3.4524,-3.4524,-3.4524,-3.4524,0.0,0.0,0.0,0.0,0.0,0.0,0.0,0.0,0.0,0.0,0.0,0.0,0.0,-1.8786,-1.8744,-1.8744,-1.8652,-1.8587,-1.8545,-1.8464,-1.8425,-1.8425,-1.8491,-1.8545,-1.8545,-1.8652,0.0,0.0,0.0,-2.0377,-2.0581,-2.1356,-2.1851,-2.2011,-2.1592,-2.1371,-2.1351,-2.1403,0.0,0.0,0.0,-2.2421,-2.2889,-2.3001,-2.3152,0.0,0.0,0.0,0.0,-2.3305,-2.3305,-2.3364,-2.3819,-2.3925,-2.4066,-2.467,-2.4956,0.0,0.0,0.0,0.0,0.0,0.0,0.0,0.0,0.0,0.0,0.0,0.0,0.0,0.0,0.0,0.0,0.0,0.0,0.0,0.0,0.0,0.0,0.0,0.0,0.0,0.0,0.0,0.0,0.0,0.0,0.0,-3.1611,-3.1408,-3.1157,-3.0879,-3.0685,-3.0453,-3.0209,-3.0089,-3.0263,-3.0625,-3.0166,-3.0067,-3.0245,-3.0099,-3.0087,-3.0274,-3.1056,-3.1769,-3.2333,-3.2612,-3.3201,-3.3918,-3.403,-3.4255,-3.4524,-3.4524,-3.4524,-3.4524,0.0,0.0,0.0,0.0,0.0,0.0,0.0,0.0,0.0,-1.9275,0.0,0.0,0.0,0.0,-1.8905,-1.8866,-1.8732,-1.8679,-1.8679,-1.8614,-1.8587,-1.8587,-1.864,-1.8706,-1.8721,-1.8866,-1.8958,0.0,0.0,0.0,0.0,-2.1904,-2.2383,-2.234,-2.2135,-2.1917,0.0,0.0,0.0,-2.2518,0.0,0.0,-2.3734,0.0,0.0,0.0,0.0,0.0,0.0,0.0,0.0,-2.4043,-2.4491,-2.4633,-2.4728,-2.518,-2.5312,0.0,-2.5312,0.0,0.0,0.0,0.0,0.0,0.0,0.0,0.0,0.0,0.0,0.0,0.0,0.0,0.0,0.0,0.0,0.0,0.0,0.0,0.0,0.0,0.0,0.0,0.0,0.0,0.0,0.0,0.0,0.0,-3.1249,-3.105,-3.0803,-3.0519,-3.0233,-3.0035,-2.9969,-2.9775,-2.9867,-3.0281,-3.0051,-3.0081,-3.0274,-3.0287,-3.0256,-3.0276,-3.079,-3.1506,-3.2269,-3.2638,-3.3266,-3.4086,-3.4199,-3.4367,-3.4524,-3.4524,-3.4524,-3.4524,0.0,0.0,0.0,0.0,0.0,0.0,0.0,0.0,-1.942,-1.942,0.0,0.0,0.0,0.0,0.0,-1.9025,-1.8893,-1.8825,-1.8825,-1.8706,-1.8614,-1.8614,-1.8732,-1.8866,-1.9013,-1.9143,-1.9275,0.0,0.0,0.0,0.0,0.0,-2.2708,-2.2708,-2.2708,-2.2352,-2.1788,0.0,-2.2551,-2.2622,0.0,-2.4008,-2.4613,0.0,0.0,0.0,-2.5407,-2.5348,0.0,-2.5336,0.0,0.0,0.0,-2.5312,-2.5312,-2.5312,-2.5312,-2.5312,0.0,0.0,0.0,0.0,0.0,0.0,0.0,0.0,0.0,0.0,0.0,0.0,0.0,0.0,0.0,0.0,0.0,0.0,0.0,0.0,0.0,0.0,0.0,0.0,0.0,0.0,0.0,0.0,0.0,0.0,-3.0216,-3.017,-2.9988,-2.9531,-2.922,-2.922,-2.9456,-2.9467,-2.9574,-2.9817,-3.0259,-3.0335,-3.0136,-3.0604,-3.0765,-3.0786,-3.0827,-3.1201,-3.1862,-3.2853,-3.3612,-3.4121,-3.4412,-3.4524,-3.4524,-3.4524,-3.4524,-3.4524,0.0,0.0,0.0,0.0,0.0,0.0,0.0,-1.9772,-1.9656,0.0,0.0,0.0,-1.9394,-1.9368,-1.9316,-1.9289,-1.9263,-1.9237,-1.9237,-1.921,-1.9184,-1.9184,-1.921,-1.9237,-1.9289,-1.9316,0.0,0.0,0.0,0.0,0.0,0.0,0.0,0.0,-2.306,-2.304,-2.3142,-2.3194,0.0,0.0,-2.4582,-2.4993,0.0,0.0,0.0,0.0,0.0,-2.6469,-2.6627,0.0,-2.5997,-2.5853,0.0,-2.5418,-2.5347,-2.5453,-2.5418,-2.5312,-2.5312,0.0,0.0,0.0,0.0,0.0,0.0,0.0,0.0,0.0,0.0,0.0,0.0,0.0,0.0,0.0,0.0,0.0,0.0,0.0,0.0,0.0,0.0,0.0,0.0,0.0,0.0,0.0,0.0,-3.0216,-3.0216,-3.0057,-2.9817,-2.9531,-2.922,-2.9055,-2.9,-2.9,-2.9205,-2.9589,-2.9537,-2.9801,-3.0367,-3.0304,-3.0457,-3.0827,-3.1034,-3.1408,-3.1934,-3.2588,-3.3291,-3.3922,-3.4326,-3.4524,-3.4524,-3.4524,-3.4524,-3.4524,0.0,0.0,0.0,0.0,0.0,0.0,-2.0105,-2.0029,-1.9914,0.0,0.0,0.0,-1.9499,-1.9486,-1.9473,-1.9394,-1.9394,-1.9394,-1.9394,-1.9394,-1.9394,-1.9394,-1.9615,-1.9752,-1.9871,-2.0135,0.0,0.0,0.0,0.0,0.0,0.0,0.0,0.0,0.0,0.0,0.0,0.0,0.0,0.0,-2.5345,0.0,0.0,-2.6277,-2.661,0.0,0.0,0.0,-2.7299,-2.6968,-2.6615,0.0,0.0,0.0,0.0,0.0,-2.5535,-2.5418,-2.5312,-2.5312,-2.5312,0.0,0.0,0.0,0.0,0.0,0.0,0.0,0.0,0.0,0.0,0.0,0.0,0.0,0.0,0.0,0.0,0.0,0.0,0.0,0.0,0.0,0.0,0.0,0.0,0.0,-2.9584,-2.9584,-2.9584,-2.9385,-2.9263,-2.9172,-2.8909,-2.8826,-2.8803,-2.8803,-2.8946,-2.923,-2.9248,-2.9651,-3.0376,-3.0421,-3.0675,-3.1127,-3.1281,-3.1525,-3.1828,-3.2575,-3.3258,-3.3846,-3.4338,-3.4524,-3.4524,-3.4524,-3.4524,-3.4524,0.0,0.0,0.0,0.0,0.0,0.0,0.0,-2.0233,-2.0182,0.0,-2.0016,-1.9939,-1.9682,-1.9668,-1.9641,-1.9559,-1.9571,-1.9596,-1.9619,-1.9645,-1.9658,-1.9658,-2.014,-2.0481,-2.0669,-2.1242,0.0,0.0,0.0,0.0,0.0,0.0,0.0,0.0,0.0,0.0,0.0,0.0,0.0,-2.537,-2.5914,-2.6514,0.0,0.0,-2.7346,0.0,-2.7718,-2.7681,-2.7718,-2.7619,-2.7189,0.0,0.0,0.0,0.0,0.0,-2.5641,-2.5571,-2.5382,-2.5312,-2.5312,0.0,0.0,0.0,-2.5312,-2.5397,0.0,0.0,0.0,0.0,0.0,0.0,0.0,0.0,0.0,0.0,0.0,0.0,0.0,0.0,0.0,0.0,0.0,0.0,0.0,-2.87,-2.87,-2.87,-2.8657,-2.8507,-2.8461,-2.8567,-2.8454,-2.8506,-2.8716,-2.8771,-2.8803,-2.8814,-2.9241,-2.9652,-3.0144,-3.0614,-3.1083,-3.1542,-3.1597,-3.1618,-3.1695,-3.2612,-3.3278,-3.377,-3.4316,-3.4524,-3.4524,-3.4524,-3.4579,-3.4579,-2.0888,0.0,0.0,0.0,0.0,0.0,0.0,-2.0436,-2.0372,-2.0182,-2.0156,-2.0131,-2.0105,-2.008,-2.0219,-2.0569,-2.0606,-2.0729,-2.1059,-2.1182,-2.1237,-2.1237,-2.1515,-2.1674,-2.1701,-2.1831,0.0,0.0,0.0,0.0,0.0,0.0,0.0,0.0,0.0,0.0,0.0,0.0,0.0,-2.6693,-2.7287,0.0,-2.7755,-2.7974,-2.8419,-2.8899,-2.8687,-2.8811,-2.8957,0.0,-2.752,-2.6697,0.0,0.0,0.0,-2.6062,0.0,0.0,0.0,0.0,0.0,0.0,0.0,0.0,-2.5312,-2.523,0.0,0.0,0.0,0.0,0.0,0.0,0.0,0.0,0.0,0.0,0.0,0.0,0.0,0.0,0.0,0.0,0.0,0.0,0.0,-2.87,-2.87,-2.8626,-2.8475,-2.8432,-2.826,-2.7922,-2.8232,-2.8306,-2.8178,-2.856,-2.8803,-2.8803,-2.8902,-2.9197,-2.9642,-3.0122,-3.0603,-3.1061,-3.1455,-3.1618,-3.1673,-3.2274,-3.2787,-3.33,-3.4185,-3.4524,-3.4524,-3.4813,-3.4869,-3.4924,-2.0961,0.0,0.0,0.0,0.0,0.0,0.0,0.0,-2.0625,-2.0372,-2.0528,-2.0643,-2.0643,-2.0912,-2.118,-2.1433,-2.1458,-2.1546,-2.1731,-2.1799,-2.1854,-2.1854,-2.2206,-2.2388,-2.2388,-2.2812,-2.3052,0.0,0.0,0.0,0.0,0.0,0.0,0.0,0.0,0.0,0.0,0.0,-2.7269,-2.8007,-2.795,0.0,-2.8331,-2.8773,-2.9298,-2.9782,-2.9568,-2.9528,-2.9485,-2.881,-2.8226,0.0,0.0,-2.6916,-2.6536,0.0,-2.598,-2.5723,0.0,0.0,0.0,-2.5312,0.0,0.0,0.0,-2.5218,0.0,0.0,0.0,0.0,0.0,0.0,0.0,0.0,0.0,0.0,0.0,0.0,0.0,0.0,0.0,0.0,0.0,0.0,-2.7208,-2.7208,-2.7438,-2.7504,-2.7254,-2.742,-2.7456,-2.7302,-2.7415,-2.7645,-2.7991,-2.8276,-2.8517,-2.8803,-2.8803,-2.9066,-2.95,-2.9991,-3.0461,-3.0919,-3.1411,-3.1618,-3.1662,-3.2175,-3.2761,-3.3351,-3.4087,-3.4527,-3.4813,-3.5091,-3.5202,-3.5202,-2.1057,0.0,0.0,0.0,0.0,0.0,0.0,0.0,-2.0864,-2.0743,-2.0979,-2.1223,-2.1339,-2.1803,-2.2098,-2.2187,-2.2187,-2.2238,-2.2298,-2.2326,-2.2395,-2.2409,-2.2848,-2.3121,-2.315,-2.3848,-2.42,0.0,0.0,0.0,0.0,0.0,0.0,0.0,0.0,0.0,0.0,0.0,0.0,-2.8958,0.0,-2.8557,-2.9101,-2.9558,-3.0021,-3.0444,-3.0228,-3.0049,-2.9793,-2.929,0.0,-2.8712,-2.7758,-2.7369,0.0,0.0,0.0,0.0,0.0,0.0,0.0,0.0,0.0,-2.5312,0.0,0.0,0.0,0.0,0.0,0.0,0.0,0.0,0.0,0.0,0.0,0.0,0.0,0.0,0.0,0.0,0.0,0.0,0.0,0.0,0.0,-2.5716,-2.6094,-2.6233,-2.5933,-2.6258,-2.6459,-2.6554,-2.6604,-2.6955,-2.7718,-2.7903,-2.8233,-2.8661,-2.876,-2.9011,-2.9358,-2.9947,-3.0417,-3.0799,-3.1367,-3.1618,-3.1651,-3.2118,-3.2768,-3.3531,-3.4029,-3.4537,-3.5102,-3.5368,-3.5478,-3.5467,-2.1204,-2.118,0.0,0.0,0.0,0.0,0.0,0.0,-2.1133,-2.1522,-2.1498,-2.1655,-2.2189,-2.2308,-2.2488,-2.2868,-2.2879,0.0,-2.3398,0.0,-2.3755,-2.3858,-2.4029,-2.42,-2.4399,-2.4494,-2.4534,-2.4534,0.0,0.0,0.0,0.0,0.0,0.0,-2.6507,0.0,0.0,0.0,-2.8392,0.0,-2.9449,-2.983,0.0,-3.0487,-3.0608,-3.066,-3.0444,-3.0228,-3.0075,0.0,-2.9492,-2.8787,0.0,-2.767,-2.7168,0.0,0.0,0.0,0.0,0.0,0.0,0.0,-2.5312,0.0,0.0,0.0,0.0,0.0,0.0,0.0,0.0,0.0,0.0,0.0,0.0,0.0,0.0,0.0,0.0,0.0,0.0,0.0,0.0,0.0,0.0,0.0,-2.5761,-2.5629,-2.5239,-2.5632,-2.5732,-2.5409,-2.6179,-2.6639,-2.6748,-2.7576,-2.8023,-2.8078,-2.8549,-2.8825,-2.8913,-2.9794,-3.0242,-3.0341,-3.1236,-3.1618,-3.1629,-3.1929,-3.2605,-3.3531,-3.4029,-3.4691,-3.5368,-3.5632,-3.5742,-3.5797,-2.1326,-2.1326,-2.1302,0.0,0.0,0.0,0.0,0.0,0.0,-2.1795,-2.2313,-2.2759,0.0,0.0,0.0,-2.4158,0.0,-2.4861,0.0,0.0,-2.5159,-2.4889,-2.4908,-2.4837,-2.4591,-2.4677,-2.4734,-2.4734,-2.4778,0.0,0.0,0.0,0.0,0.0,-2.7243,0.0,-2.8056,0.0,0.0,0.0,0.0,0.0,0.0,-3.1119,-3.1107,-3.1164,-3.1074,-3.0933,-3.0701,0.0,-2.9986,0.0,0.0,0.0,0.0,0.0,0.0,0.0,0.0,0.0,0.0,0.0,0.0,0.0,-2.5347,0.0,-2.4725,0.0,0.0,0.0,0.0,0.0,0.0,0.0,0.0,0.0,0.0,0.0,0.0,0.0,0.0,0.0,0.0,0.0,0.0,0.0,0.0,-2.477,-2.4635,-2.5128,-2.532,-2.5204,-2.5568,-2.6059,-2.6584,-2.7238,-2.7718,-2.8002,-2.8528,-2.8803,-2.8836,-2.9773,-3.0209,-3.0264,-3.1214,-3.1618,-3.1618,-3.1863,-3.2538,-3.3384,-3.4034,-3.4879,-3.5687,-3.5961,-3.6114,-3.6114,-2.152,-2.1447,-2.1399,0.0,0.0,0.0,0.0,0.0,0.0,0.0,0.0,0.0,-2.3995,-2.4672,0.0,0.0,-2.5854,-2.6153,0.0,0.0,-2.6152,0.0,0.0,0.0,0.0,-2.5304,-2.5391,-2.542,0.0,0.0,0.0,0.0,0.0,0.0,0.0,-2.832,-2.8692,0.0,0.0,-3.0425,-3.088,-3.1496,-3.2095,-3.166,-3.1638,-3.1811,-3.1811,-3.1604,-3.1215,-3.0843,-3.0458,0.0,-2.8994,0.0,0.0,0.0,0.0,0.0,-2.6201,0.0,0.0,0.0,0.0,0.0,0.0,0.0,0.0,0.0,0.0,0.0,0.0,0.0,0.0,0.0,0.0,0.0,0.0,0.0,0.0,0.0,0.0,0.0,0.0,0.0,0.0,0.0,-2.3707,0.0,-2.388,-2.4534,-2.4842,-2.481,-2.5073,-2.5513,-2.6223,-2.6824,-2.7326,-2.7805,-2.8331,-2.8672,-2.8836,-2.9773,-3.0209,-3.0264,-3.1214,-3.1618,-3.1721,-3.2026,-3.257,-3.3393,-3.4202,-3.4983,-3.5768,-3.6165,-3.632,-3.632,-2.1793,-2.1592,0.0,0.0,0.0,0.0,0.0,0.0,0.0,0.0,0.0,0.0,0.0,0.0,0.0,0.0,0.0,-2.6294,-2.6294,0.0,-2.6386,0.0,0.0,-2.66,0.0,0.0,-2.6829,0.0,0.0,0.0,0.0,0.0,0.0,0.0,0.0,-2.8958,-2.8821,-2.9455,-2.9969,-3.0459,-3.1056,-3.1884,-3.2737,0.0,-3.2318,-3.2659,-3.2659,0.0,0.0,-3.1474,-3.0997,0.0,0.0,0.0,0.0,0.0,0.0,0.0,0.0,0.0,0.0,-2.5945,0.0,0.0,0.0,0.0,-2.4386,0.0,0.0,0.0,0.0,0.0,-2.1792,-2.1486,-2.14,0.0,0.0,0.0,0.0,0.0,0.0,0.0,0.0,0.0,0.0,0.0,-2.3144,0.0,-2.2874,-2.3802,-2.4149,-2.3777,-2.4683,-2.5226,-2.5259,-2.6168,-2.6835,-2.7337,-2.7783,-2.8309,-2.8836,-2.9773,-3.0209,-3.0264,-3.1214,-3.1772,-3.2015,-3.2342,-3.2938,-3.3651,-3.4486,-3.5106,-3.5546,-3.6082,-3.632,-3.632,-2.1793,-2.1722,0.0,0.0,0.0,0.0,0.0,-2.3061,0.0,0.0,0.0,0.0,0.0,0.0,-2.6654,0.0,0.0,-2.7632,-2.7632,-2.7754,0.0,0.0,0.0,-2.7216,0.0,0.0,0.0,0.0,0.0,0.0,0.0,0.0,0.0,0.0,0.0,-2.9288,0.0,0.0,0.0,0.0,0.0,-3.283,-3.3265,0.0,0.0,-3.3475,-3.3327,-3.2855,0.0,-3.1837,-3.1228,-3.0506,-2.9888,-2.9468,-2.9102,-2.849,-2.7844,0.0,0.0,0.0,-2.6361,-2.6166,0.0,0.0,0.0,0.0,0.0,0.0,0.0,0.0,0.0,-2.1999,-2.1862,-2.1757,-2.1288,-2.0912,0.0,0.0,0.0,0.0,0.0,0.0,0.0,0.0,0.0,-2.2157,-2.2307,0.0,0.0,-2.3178,-2.3475,-2.3902,-2.4456,-2.4909,-2.5215,-2.6136,-2.6824,-2.7315,-2.7762,-2.8287,-2.8825,-2.9434,-2.9904,-3.0253,-3.1036,-3.1638,-3.2026,-3.2555,-3.292,-3.3226,-3.3971,-3.459,-3.5141,-3.5967,-3.632,-3.632,-2.1949,0.0,0.0,0.0,0.0,0.0,0.0,0.0,0.0,0.0,-2.5788,0.0,-2.6927,0.0,-2.7784,0.0,-2.8662,-2.9045,-2.9045,-2.9224,0.0,-2.8434,-2.8489,0.0,0.0,0.0,0.0,0.0,0.0,-2.8271,0.0,0.0,0.0,0.0,0.0,0.0,0.0,0.0,-3.1062,0.0,0.0,-3.3341,0.0,0.0,-3.3807,0.0,0.0,-3.3459,-3.2633,-3.2267,-3.1512,-3.0746,-3.0357,-2.9986,-2.9606,-2.9196,-2.861,-2.8052,-2.7707,-2.7249,0.0,0.0,-2.6236,0.0,-2.5875,0.0,0.0,0.0,0.0,0.0,0.0,0.0,-2.1987,-2.1894,-2.1301,-2.0679,0.0,-1.9755,0.0,0.0,0.0,0.0,0.0,0.0,-2.1032,-2.1332,-2.1688,-2.2114,0.0,0.0,-2.3095,-2.3471,-2.4029,-2.4522,-2.4964,-2.571,-2.6518,-2.7315,-2.7632,-2.8123,-2.8814,-2.9365,-2.9906,-3.0378,-3.1108,-3.1795,-3.2342,-3.2729,-3.2942,-3.3088,-3.377,-3.4211,-3.4636,-3.5634,-3.6117,-3.632,0.0,0.0,0.0,0.0,-2.2439,0.0,0.0,0.0,-2.549,0.0,-2.6587,-2.7094,-2.7732,-2.8302,-2.8872,-2.9502,-3.0066,0.0,-3.0405,-3.061,0.0,0.0,-2.9953,-2.9762,-2.9154,0.0,0.0,0.0,0.0,0.0,0.0,0.0,0.0,0.0,-2.9602,0.0,-3.0373,-3.076,-3.1192,-3.176,-3.2754,-3.3457,-3.3977,-3.4416,0.0,-3.4797,-3.4797,-3.3882,-3.2685,-3.2685,-3.1927,-3.0986,-3.0986,-3.062,-3.0103,-2.993,-2.9492,-2.885,-2.7943,-2.7659,-2.7411,-2.6732,0.0,0.0,0.0,0.0,-2.4694,0.0,0.0,0.0,0.0,0.0,0.0,-2.1968,-2.1443,-2.0618,-1.926,0.0,0.0,0.0,0.0,0.0,0.0,-2.0102,-2.0389,-2.0412,-2.1275,-2.1771,0.0,0.0,0.0,-2.2637,-2.3541,-2.4167,-2.4526,-2.4986,-2.5895,-2.7315,-2.7315,-2.7818,-2.8814,-2.9543,-3.0123,-3.0659,-3.1381,-3.2133,-3.2891,-3.2891,-3.3081,-3.3327,-3.3786,-3.3981,-3.4119,-3.5141,-3.5818,-3.6286,-2.2774,-2.3277,-2.3716,0.0,-2.4313,-2.4625,0.0,0.0,0.0,0.0,-2.7523,-2.7966,-2.8945,-2.919,-2.9496,-3.012,-3.0446,0.0,0.0,0.0,0.0,-3.0606,-3.064,-3.045,-3.0002,-3.0002,0.0,-2.954,0.0,0.0,-2.9602,0.0,0.0,0.0,0.0,0.0,-3.118,-3.1135,-3.1792,-3.2887,-3.3492,-3.4043,0.0,0.0,-3.5224,-3.5003,-3.4839,-3.3882,-3.2685,-3.2685,-3.1927,-3.0986,-3.0986,-3.0882,-3.0764,-3.0727,-3.0162,-2.9559,-2.9308,-2.8423,-2.7548,-2.7373,-2.687,-2.6361,0.0,0.0,0.0,0.0,0.0,0.0,0.0,0.0,0.0,-2.2123,-2.1254,-2.016,0.0,0.0,0.0,0.0,0.0,0.0,0.0,0.0,-2.0021,-2.0377,-2.0653,0.0,0.0,0.0,0.0,-2.2971,-2.3642,-2.4194,-2.4629,-2.5004,-2.5895,-2.7315,-2.7315,-2.7908,-2.9035,-2.9214,-2.9886,-3.0927,-3.1315,-3.2026,-3.2942,-3.3142,-3.3242,-3.3292,-3.3419,-3.3683,-3.4119,-3.5141,-3.56,-3.5715,-2.3473,0.0,0.0,-2.5302,0.0,0.0,-2.6134,0.0,0.0,-2.8436,-2.8701,0.0,-2.9948,-3.0296,-3.0631,-3.0896,-3.1329,0.0,0.0,0.0,0.0,-3.1439,-3.1513,-3.1336,-3.0834,-3.0541,0.0,-3.001,0.0,0.0,-2.9602,0.0,0.0,0.0,0.0,-3.0305,0.0,-3.1742,-3.2406,-3.3325,-3.374,0.0,0.0,-3.5493,-3.544,-3.5086,-3.4962,-3.3963,-3.2685,-3.2685,-3.1927,-3.0986,-3.0986,-3.0986,-3.0986,-3.0986,-3.0677,-3.0253,-2.9883,-2.9014,-2.8091,-2.7707,-2.7097,-2.6521,-2.6361,-2.627,-2.5896,0.0,0.0,0.0,0.0,0.0,0.0,-2.159,-2.0924,0.0,0.0,0.0,0.0,0.0,0.0,0.0,0.0,0.0,0.0,0.0,0.0,0.0,0.0,0.0,0.0,0.0,-2.354,-2.4241,-2.4854,-2.5074,-2.5967,-2.7613,-2.7613,-2.8176,-2.9266,-2.9416,-3.0092,-3.1179,-3.1479,-3.2156,-3.3092,-3.3242,-3.3281,-3.3281,-3.3281,-3.3453,-3.3786,-3.4567,-3.5003,-3.5198,0.0,0.0,0.0,0.0,0.0,0.0,0.0,-2.7911,0.0,-2.9425,0.0,-3.0323,-3.0788,-3.1433,-3.1764,-3.1748,0.0,-3.2739,-3.2739,-3.2917,-3.2814,-3.2263,-3.2422,-3.2244,-3.1626,-3.1064,-3.0652,0.0,0.0,0.0,0.0,0.0,0.0,0.0,0.0,0.0,0.0,-3.2374,-3.2982,0.0,-3.3767,-3.4314,-3.4965,-3.552,-3.548,-3.5113,-3.5127,-3.4138,-3.2803,-3.2725,-3.198,-3.1091,-3.1013,-3.0986,-3.0986,-3.0986,-3.0986,-3.0831,-3.0138,-2.9544,-2.8902,-2.8004,-2.7303,-2.6781,-2.658,-2.6361,-2.6074,-2.5535,-2.4822,0.0,0.0,0.0,0.0,0.0,0.0,0.0,0.0,0.0,0.0,0.0,0.0,0.0,0.0,0.0,0.0,0.0,0.0,0.0,0.0,0.0,0.0,0.0,-2.3307,0.0,-2.515,0.0,-2.6069,-2.8007,-2.8007,-2.8533,-2.9542,-2.9783,-3.0454,-3.134,-3.1695,-3.2354,-3.3178,-3.3258,-3.3281,-3.3281,-3.3281,-3.3281,-3.3338,-3.3752,-3.4199,-3.4613,0.0,0.0,0.0,0.0,0.0,-2.8366,-2.8366,-2.894,-2.9565,-3.0085,-3.0633,0.0,-3.155,-3.1702,-3.1999,-3.2475,-3.2791,0.0,0.0,0.0,0.0,-3.3087,-3.3122,-3.2876,-3.2258,-3.2131,-3.1569,0.0,0.0,0.0,0.0,0.0,0.0,0.0,0.0,0.0,-3.2252,-3.2555,0.0,-3.4276,-3.402,-3.4558,-3.5574,-3.5683,-3.5562,-3.5318,-3.5154,-3.4402,-3.3365,-3.2868,-3.2241,-3.1575,-3.113,-3.0986,-3.0986,-3.0986,-3.0986,-3.096,-3.0818,-3.0251,-2.952,-2.8915,-2.81,-2.7319,-2.6793,-2.6555,-2.6233,-2.5523,-2.4934,-2.4303,-2.3587,0.0,0.0,0.0,0.0,0.0,0.0,0.0,0.0,0.0,0.0,0.0,0.0,0.0,0.0,0.0,0.0,0.0,0.0,0.0,0.0,0.0,0.0,0.0,0.0,0.0,0.0,-2.8007,-2.8007,-2.8622,-2.984,-2.9886,-3.0307,-3.1075,-3.1593,-3.2135,-3.2661,-3.3097,-3.3281,-3.3281,-3.3281,-3.3281,-3.3292,-3.3373,-3.3465,-3.3614,0.0,0.0,0.0,0.0,0.0,0.0,0.0,-3.0178,0.0,-3.0881,-3.1455,-3.1969,-3.2382,-3.2535,-3.2646,-3.2854,-3.3037,-3.3157,-3.3157,-3.3241,-3.329,-3.329,-3.329,0.0,-3.289,-3.2567,-3.2117,-3.1499,0.0,0.0,-3.008,0.0,0.0,0.0,0.0,-3.1836,0.0,0.0,0.0,-3.4506,-3.4401,-3.4897,-3.571,-3.571,-3.5602,-3.5358,-3.5154,-3.4735,-3.4052,-3.3039,-3.2319,-3.1706,-3.1169,-3.0986,-3.0986,-3.0986,-3.0986,-3.0986,-3.0986,-3.0494,-2.9798,-2.9178,-2.8431,-2.7655,-2.6887,-2.6658,-2.648,-2.6067,-2.5298,-2.4377,-2.3374,-2.2757,0.0,0.0,0.0,0.0,0.0,0.0,0.0,0.0,0.0,0.0,0.0,0.0,0.0,0.0,0.0,0.0,0.0,0.0,0.0,0.0,0.0,0.0,0.0,0.0,0.0,-2.8355,-2.8355,-2.8976,-3.0057,-3.0057,-3.0377,-3.1031,-3.1272,-3.18,-3.2523,-3.3063,-3.3281,-3.3281,-3.3281,-3.3281,-3.3281,-3.3281,-3.3281,-3.3315,0.0,-2.7537,0.0,0.0,-2.89,0.0,0.0,-3.119,-3.1682,-3.1682,-3.2216,-3.2709,-3.3017,-3.3206,-3.3241,-3.3072,-3.3206,-3.329,-3.329,-3.329,-3.329,-3.329,-3.329,-3.329,-3.329,-3.2848,-3.2539,0.0,0.0,0.0,0.0,0.0,0.0,0.0,0.0,0.0,0.0,0.0,-3.3965,-3.4534,-3.4714,-3.5141,-3.571,-3.571,-3.5602,-3.544,-3.5236,-3.5044,-3.4667,-3.3237,-3.2437,-3.1863,-3.1209,-3.0986,-3.0986,-3.0986,-3.0986,-3.0986,-3.0986,-3.066,-3.01,-2.9288,-2.8662,-2.8005,-2.6981,-2.6726,-2.6658,-2.6521,-2.5586,-2.4455,-2.3269,-2.277,0.0,0.0,0.0,0.0,0.0,0.0,0.0,0.0,0.0,0.0,0.0,0.0,0.0,0.0,0.0,0.0,0.0,0.0,0.0,0.0,0.0,0.0,-2.5693,0.0,-2.6714,0.0,-2.87,-2.9228,-3.0216,-3.0216,-3.0445,-3.0847,-3.0962,-3.157,-3.2523,-3.2948,-3.3178,-3.3281,-3.3281,-3.3281,-3.3281,-3.3281,-3.3281,-3.3281,0.0,0.0,0.0,0.0,0.0,0.0,0.0,-3.1541,-3.2328,-3.2328,-3.2848,-3.322,-3.3276,-3.329,-3.329,-3.3276,-3.329,-3.329,-3.329,-3.329,-3.329,-3.329,-3.329,-3.329,-3.329,-3.322,-3.296,0.0,0.0,0.0,0.0,0.0,0.0,0.0,0.0,0.0,0.0,-3.3476,-3.3965,-3.4534,-3.4714,-3.5141,-3.571,-3.571,-3.5669,-3.5642,-3.544,-3.5236,-3.4858,-3.3437,-3.2804,-3.2424,-3.1326,-3.0986,-3.0986,-3.0986,-3.0986,-3.0986,-3.0986,-3.0947,-3.0647,-2.9549,-2.908,-2.8566,-2.7255,-2.6829,-2.6658,-2.6521,-2.5586,-2.4568,-2.3766,-2.3213,-2.2744,0.0,0.0,0.0,0.0,0.0,0.0,0.0,0.0,0.0,0.0,0.0,0.0,0.0,0.0,0.0,0.0,0.0,0.0,0.0,0.0,-2.3707,-2.5693,-2.5716,0.0,-2.87,-2.87,-2.9228,-3.0216,-3.0216,-3.025,-3.0319,-3.0801,-3.157,-3.2489,-3.2535,-3.2845,-3.3281,-3.3281,-3.3281,-3.3281,-3.3281,-3.3281,-3.3281,0.0,0.0,0.0,0.0,0.0,0.0,0.0,-3.2075,-3.2539,-3.2904,-3.3136,-3.329,-3.329,-3.329,-3.329,-3.329,-3.329,-3.329,-3.329,-3.329,-3.329,-3.329,-3.329,-3.329,-3.329,-3.329,-3.3164,0.0,0.0,0.0,0.0,0.0,0.0,0.0,0.0,-3.3262,-3.3844,-3.4044,-3.4503,-3.5071,-3.5245,-3.5506,-3.571,-3.571,-3.571,-3.5669,-3.548,-3.5062,-3.4393,-3.3357,-3.2883,-3.2489,-3.1339,-3.0986,-3.0986,-3.0986,-3.0986,-3.0986,-3.0986,-3.0986,-3.0749,-2.9562,-2.9239,-2.8785,-2.7349,-2.6943,-2.6807,-2.6568,-2.5586,-2.4612,-2.3998,-2.3343,-2.2818,0.0,0.0,0.0,0.0,0.0,0.0,0.0,0.0,0.0,0.0,0.0,0.0,0.0,0.0,0.0,0.0,0.0,0.0,-2.2696,0.0,-2.3971,-2.5693,-2.5716,-2.6714,-2.87,-2.87,-2.9228,-3.0216,-3.0216,-3.0216,-3.025,-3.0778,-3.1237,-3.1628,-3.1926,-3.2351,-3.2799,-3.2799,-3.3005,-3.3281,-3.3281,-3.3281,-3.3281,-2.8956,0.0,-3.001,0.0,-3.0792,-3.134,-3.2272,-3.2553,-3.2834,-3.322,-3.329,-3.329,-3.329,-3.329,-3.329,-3.329,-3.329,-3.329,-3.329,-3.329,-3.329,-3.329,-3.329,0.0,-3.329,-3.329,-3.329,-3.329,-3.289,0.0,0.0,0.0,0.0,0.0,-3.3094,-3.3627,-3.4209,-3.4404,-3.4861,-3.543,-3.5639,-3.571,-3.571,-3.571,-3.571,-3.5656,-3.5278,-3.4714,-3.4047,-3.3093,-3.2633,-3.2267,-3.13,-3.0986,-3.0986,-3.0986,-3.0986,-3.0986,-3.0986,-3.0986,-3.0749,-2.9562,-2.931,-2.8904,-2.7349,-2.699,-2.6909,-2.6568,-2.5711,-2.4883,-2.4343,-2.3685,-2.3107,0.0,0.0,0.0,0.0,0.0,0.0,0.0,0.0,0.0,0.0,0.0,0.0,0.0,0.0,0.0,0.0,0.0,0.0,0.0,0.0,0.0,0.0,0.0,-2.6944,-2.8786,-2.8786,-2.9272,-3.0216,-3.0216,-3.0216,-3.0239,-3.0618,-3.087,-3.1042,-3.1398,-3.1834,-3.2271,-3.2271,-3.2549,-3.2833,-3.2833,-3.2925,-3.3051,-2.9602,-3.0048,-3.0484,-3.0498,-3.1555,-3.2384,-3.2412,-3.2918,-3.3276,-3.329,-3.329,-3.329,-3.329,-3.329,-3.329,-3.329,-3.329,-3.329,-3.329,-3.329,-3.329,0.0,0.0,-3.329,-3.329,-3.329,-3.329,-3.329,0.0,0.0,-3.3276,0.0,0.0,-3.3276,-3.329,-3.3627,-3.4209,-3.4404,-3.4861,-3.543,-3.5639,-3.571,-3.571,-3.571,-3.571,-3.5602,-3.482,-3.438,-3.3993,-3.2656,-3.2016,-3.1706,-3.1169,-3.0986,-3.0986,-3.0986,-3.0986,-3.0986,-3.0986,-3.0986,-3.0749,-2.9562,-2.931,-2.8904,-2.7349,-2.699,-2.6909,-2.6568,-2.6021,-2.5423,-2.4876,-2.4356,-2.371,-2.2825,0.0,0.0,0.0,0.0,0.0,0.0,0.0,0.0,0.0,0.0,0.0,0.0,0.0,0.0,0.0,0.0,0.0,-2.2696,-2.3661,0.0,-2.5965,-2.6511,-2.7545,-2.9013,-2.9013,-2.9415,-3.0216,-3.0216,-3.0216,-3.0216,-3.0227,-3.0526,-3.1019,-3.1019,-3.1329,-3.1825,-3.1825,-3.1825,-3.1836,-3.1836,-3.2135,-3.2489,-3.0119,-3.0357,-3.0764,-3.1654,-3.2131,-3.2553,-3.296,-3.3164,-3.329,-3.329,-3.329,-3.329,-3.329,-3.329,-3.329,0.0,-3.329,-3.329,0.0,-3.329,-3.329,-3.329,-3.329,-3.329,-3.329,-3.329,-3.329,-3.329,0.0,0.0,0.0,-3.329,-3.329,-3.329,-3.329,-3.3542,-3.3994,-3.3924,-3.4427,-3.526,-3.5124,-3.5073,-3.5073,-3.5073,-3.4816,-3.445,-3.4065,-3.3548,-3.2968,-3.2378,-3.1792,-3.1222,-3.1039,-3.0986,-3.0986,-3.0986,-3.0986,-3.0986,-3.0986,-3.0986,-3.0749,-2.9562,-2.9203,-2.8714,-2.7302,-2.6807,-2.6636,-2.6521,-2.6034,-2.5548,-2.5385,-2.4607,-2.3879,-2.3443,0.0,0.0,0.0,0.0,0.0,0.0,0.0,0.0,0.0,0.0,0.0,0.0,0.0,0.0,0.0,0.0,0.0,0.0,-2.4334,0.0,-2.5977,-2.6667,-2.7696,-2.9013,-2.9013,-2.9415,-3.0216,-3.0216,-3.0216,-3.0216,-3.0216,-3.0308,-3.0468,-3.0468,-3.0778,-3.1249,-3.1249,-3.1467,-3.1813,-3.1813,-3.1917,-3.2043,-3.0413,-3.0909,-3.1471,-3.2272,-3.2595,-3.289,-3.322,-3.329,-3.329,-3.329,-3.329,-3.329,-3.329,-3.329,0.0,-3.329,-3.329,0.0,-3.329,-3.329,-3.329,-3.329,-3.329,-3.329,-3.329,0.0,0.0,-3.329,-3.329,-3.329,-3.329,-3.329,-3.329,-3.329,-3.3241,-3.3457,-3.3893,-3.3578,-3.4022,-3.484,-3.458,-3.4463,-3.4463,-3.4463,-3.4194,-3.3765,-3.3396,-3.2896,-3.2321,-3.1881,-3.1401,-3.0986,-3.0986,-3.0986,-3.0986,-3.0986,-3.0986,-3.0986,-3.0986,-3.083,-3.0438,-2.9425,-2.8915,-2.8337,-2.7148,-2.6705,-2.6499,-2.6499,-2.621,-2.585,-2.5636,-2.5046,-2.4392,-2.3791,0.0,0.0,0.0,0.0,0.0,0.0,0.0,0.0,0.0,-2.2197,0.0,0.0,0.0,0.0,0.0,0.0,0.0,-2.3396,-2.4724,0.0,-2.5977,-2.6843,-2.7842,-2.9013,-2.9309,-2.9696,-3.0216,-3.0216,-3.0216,-3.0216,-3.0216,-3.0216,-3.0216,-3.0216,-3.0411,-3.0721,-3.0721,-3.0905,-3.118,-3.118,-3.1318,-3.1479,-3.0554,-3.1569,0.0,0.0,-3.2946,0.0,-3.329,-3.329,-3.3276,-3.3276,-3.3276,-3.3276,-3.3241,-3.3241,-3.3241,-3.3241,0.0,0.0,0.0,-3.329,-3.329,-3.329,-3.329,0.0,-3.329,-3.329,-3.329,-3.329,-3.329,-3.3276,-3.3276,-3.3276,-3.3276,-3.3241,-3.3072,-3.3259,-3.3751,-3.3399,-3.3608,-3.4183,-3.3955,-3.3853,-3.3801,-3.3801,-3.3711,-3.345,-3.2684,-3.2308,-3.2038,-3.1245,-3.0986,-3.0986,-3.0986,-3.0986,-3.0986,-3.0986,-3.0986,-3.0986,-3.0986,-3.0531,-2.992,-2.9178,-2.8511,-2.7777,-2.6909,-2.6589,-2.6499,-2.6499,-2.6499,-2.6336,-2.5749,-2.5624,-2.5194,-2.4034,-2.3652,-2.3285,-2.2573,0.0,0.0,0.0,0.0,0.0,0.0,-2.2221,-2.2246,0.0,0.0,0.0,0.0,0.0,0.0,-2.3499,-2.4958,-2.5831,-2.6035,-2.7023,-2.8033,-2.9024,-2.9823,-3.0216,-3.0216,-3.0216,-3.0216,-3.0216,-3.0216,-3.0216,-3.0216,-3.0216,-3.0216,-3.0216,-3.0216,-3.0216,-3.0216,-3.0216,-3.0526,-3.0962,0.0,0.0,-3.2553,-3.3031,-3.3192,-3.329,-3.329,-3.329,-3.3241,-3.3108,-3.3072,-3.3002,-3.2846,-3.2846,-3.2846,-3.2846,-3.3122,-3.329,-3.329,-3.329,-3.329,-3.329,-3.329,-3.329,-3.329,-3.329,-3.329,-3.329,-3.329,-3.3241,-3.3072,-3.3072,-3.3002,-3.2846,-3.281,-3.2786,-3.2731,-3.2659,-3.2919,-3.338,-3.3305,-3.3206,-3.3055,-3.3055,-3.2659,-3.2033,-3.1724,-3.1558,-3.1457,-3.1114,-3.0986,-3.0986,-3.0986,-3.0986,-3.0986,-3.0986,-3.0986,-3.0986,-3.0986,-3.0444,-2.9712,-2.9142,-2.7991,-2.6947,-2.6627,-2.6521,-2.6499,-2.6499,-2.6499,-2.6449,-2.6311,-2.59,-2.5511,-2.5181,-2.4327,-2.3566,-2.3273,0.0,0.0,0.0,-2.2197,-2.2197,-2.2197,-2.2558,-2.283,0.0,0.0,0.0,0.0,0.0,-2.4411,-2.4556,-2.5442,-2.6147,-2.6593,-2.7392,-2.8222,-2.9024,-2.9823,-3.0216,-3.0216,-3.0216,-3.0216,-3.0216,-3.0216,-3.0216,-3.0216,-3.0216,-3.0216,-3.0216,-3.0216,-3.0216,-3.0216,-3.0216,-3.0296,-3.0399,-3.178,-3.2412,-3.2918,-3.322,-3.329,-3.3276,-3.3192,-3.3157,-3.3072,-3.2881,-3.2846,-3.281,-3.2704,-3.2704,-3.2704,-3.2704,-3.2966,-3.3157,-3.3157,-3.3241,-3.329,-3.329,-3.329,-3.329,-3.329,-3.329,-3.3241,-3.3157,-3.3086,-3.2966,-3.2846,-3.2846,-3.281,-3.2704,-3.2596,-3.2489,-3.2381,-3.2322,-3.2454,-3.2694,-3.2583,-3.2472,-3.2374,-3.23,-3.1913,-3.1434,-3.1347,-3.1235,-3.1161,-3.1061,-3.0986,-3.0986,-3.0986,-3.0986,-3.0986,-3.0986,-3.0986,-3.0921,-3.0548,-2.993,-2.9186,-2.8219,-2.7274,-2.6589,-2.6521,-2.6499,-2.6499,-2.6499,-2.6499,-2.6499,-2.6499,-2.6235,-2.59,-2.5636,-2.488,-2.4139,-2.3594,-2.3218,0.0,-2.2614,-2.2763,-2.2939,-2.2939,-2.3204,-2.3372,-2.3372,0.0,0.0,-2.4001,-2.466,-2.5016,-2.49,-2.5762,-2.6371,-2.6672,-2.7534,-2.8143,-2.8561,-2.9445,-2.9883,-2.9894,-3.0112,-3.0216,-3.0216,-3.0216,-3.0216,-3.0216,-3.0216,-3.0216,-3.0216,-3.0216,-3.0136,-3.0057,-3.0057,-3.0,-2.9897,-3.2286,-3.2904,-3.329,-3.3241,-3.3241,-3.3192,-3.2988,-3.2952,-3.2881,-3.2668,-3.2668,-3.2632,-3.2632,-3.2632,-3.2632,-3.2632,-3.281,-3.2917,-3.2952,-3.3122,-3.3206,-3.3206,-3.3206,-3.3206,-3.3206,-3.3206,-3.3122,-3.2952,-3.2775,-3.2668,-3.2668,-3.2668,-3.2632,-3.2596,-3.2467,-3.2359,-3.2359,-3.2205,-3.2146,-3.2146,-3.1927,-3.1853,-3.178,-3.1633,-3.1434,-3.1235,-3.1235,-3.1123,-3.0986,-3.0986,-3.0986,-3.0986,-3.0986,-3.0986,-3.096,-3.0882,-3.0856,-3.0664,-2.9984,-2.929,-2.8434,-2.7014,-2.6589,-2.6499,-2.6499,-2.6499,-2.6499,-2.6499,-2.6499,-2.6499,-2.6499,-2.6499,-2.6336,-2.5778,-2.5372,-2.4779,-2.3825,0.0,-2.3637,-2.3192,-2.3529,-2.3806,-2.3806,-2.3866,-2.3914,-2.3914,-2.4316,0.0,0.0,-2.5047,-2.5424,-2.5038,-2.5957,-2.6536,-2.6616,-2.7506,-2.7977,-2.8,-2.893,-2.9378,-2.9389,-2.9802,-2.9941,-2.9953,-2.9953,-2.9942,-2.9965,-2.9965,-3.0011,-3.008,-3.008,-3.0,-2.984,-2.984,-2.9691,-2.9485,-3.2286,-3.2904,-3.3241,-3.3072,-3.3072,-3.2988,-3.2775,-3.2739,-3.2668,-3.2489,-3.2453,-3.2395,-3.2277,-3.2277,-3.2277,-3.2277,-3.2395,-3.2561,-3.2739,-3.2775,-3.2775,-3.2775,-3.2775,-3.2775,-3.2775,-3.2775,-3.2775,-3.2739,-3.2739,-3.2596,-3.2453,-3.2453,-3.2395,-3.2277,-3.2241,-3.2241,-3.2205,-3.2036,-3.1963,-3.1927,-3.172,-3.1545,-3.1384,-3.1347,-3.1211,-3.1061,-3.1061,-3.1024,-3.0986,-3.0986,-3.0986,-3.0986,-3.0986,-3.0986,-3.0895,-3.0375,-3.0108,-2.9958,-2.9831,-2.8826,-2.7596,-2.6754,-2.6521,-2.6499,-2.6499,-2.6499,-2.6499,-2.6499,-2.6499,-2.6499,-2.6499,-2.6499,-2.6393,-2.6158,-2.5633,-2.5093,0.0,0.0,-2.389,-2.3685,-2.3758,-2.3806,-2.3806,-2.4157,-2.4398,-2.4398,-2.4764,-2.4898,-2.4708,-2.5462,-2.5831,-2.5589,-2.6203,-2.6668,-2.7105,-2.769,-2.7977,-2.7989,-2.8551,-2.8827,-2.8827,-2.8896,-2.8854,-2.8659,-2.8659,-2.8821,-2.9026,-2.9026,-2.9263,-2.9623,-2.9623,-2.9577,-2.9542,-2.9542,-2.9531,-2.9485,-3.2368,-3.2785,-3.2931,-3.2846,-3.2846,-3.2775,-3.2561,-3.2561,-3.2489,-3.23,-3.23,-3.2277,-3.2218,-3.2218,-3.2218,-3.2218,-3.2277,-3.2336,-3.2408,-3.2596,-3.2704,-3.2704,-3.2704,-3.2704,-3.2704,-3.2596,-3.2561,-3.2561,-3.2467,-3.2372,-3.23,-3.23,-3.2277,-3.2218,-3.2218,-3.2146,-3.2036,-3.1927,-3.1853,-3.172,-3.1522,-3.1384,-3.1272,-3.1161,-3.1099,-3.0986,-3.0986,-3.0986,-3.0986,-3.0986,-3.0986,-3.0986,-3.0986,-3.0777,-3.044,-3.0056,-2.9391,-2.8756,-2.8636,-2.7834,-2.694,-2.6584,-2.6499,-2.6499,-2.6499,-2.6499,-2.6499,-2.6499,-2.6499,-2.6465,-2.6374,-2.6339,-2.627,-2.6062,-2.5724,0.0,0.0,-2.4737,-2.4585,-2.4206,-2.4422,-2.4602,-2.4602,-2.4749,-2.4811,-2.4811,-2.4886,-2.4967,-2.502,-2.5655,-2.6035,-2.6145,-2.6611,-2.699,-2.719,-2.7461,-2.7575,-2.7587,-2.808,-2.8268,-2.8128,-2.8414,-2.8421,-2.8258,-2.8258,-2.8306,-2.8432,-2.8432,-2.8712,-2.9104,-2.9104,-2.917,-2.9255,-2.9255,-2.922,-2.9117,-3.2275,-3.2593,-3.2704,-3.2632,-3.2632,-3.2561,-3.2322,-3.2286,-3.2214,-3.2059,-3.2073,-3.2073,-3.2073,-3.2073,-3.2073,-3.2073,-3.2073,-3.2073,-3.2146,-3.2372,-3.2525,-3.2561,-3.2561,-3.2561,-3.2561,-3.2431,-3.2359,-3.2359,-3.2241,-3.2218,-3.2218,-3.2218,-3.2218,-3.2218,-3.2146,-3.2036,-3.189,-3.1817,-3.1669,-3.1522,-3.1323,-3.1235,-3.1198,-3.1061,-3.0986,-3.0986,-3.0986,-3.0986,-3.0986,-3.0986,-3.0895,-3.079,-3.0753,-3.0312,-2.9793,-2.9455,-2.8527,-2.7582,-2.7418,-2.694,-2.6499,-2.6499,-2.6499,-2.6499,-2.6499,-2.6465,-2.643,-2.643,-2.6396,-2.6327,-2.6166,-2.6131,-2.6062,-2.5863,0.0,0.0,0.0,-2.5129,-2.512,-2.4689,-2.4989,-2.5241,-2.5182,-2.5087,-2.5016,-2.5016,-2.4849,-2.4856,-2.5199,-2.5657,-2.6158,-2.6662,-2.7024,-2.719,-2.719,-2.719,-2.719,-2.719,-2.758,-2.7626,-2.7459,-2.7824,-2.7865,-2.765,-2.765,-2.7674,-2.7742,-2.7742,-2.8032,-2.8467,-2.8467,-2.8632,-2.8824,-2.8778,-2.8751,-2.871,-3.1737,-3.2317,-3.2632,-3.2453,-3.2417,-3.2322,-3.2,-3.1927,-3.1853,-3.1683,-3.1646,-3.1646,-3.1646,-3.1646,-3.1646,-3.1646,-3.1646,-3.172,-3.189,-3.1963,-3.2036,-3.2241,-3.2255,-3.2255,-3.2255,-3.2205,-3.2205,-3.2205,-3.2205,-3.2218,-3.2218,-3.2218,-3.2218,-3.2182,-3.2,-3.189,-3.189,-3.1495,-3.1347,-3.131,-3.1099,-3.1024,-3.1024,-3.1024,-3.0986,-3.0986,-3.0986,-3.0986,-3.0986,-3.0986,-3.0634,-3.0116,-2.9956,-2.9518,-2.8925,-2.8232,-2.7433,-2.6777,-2.6777,-2.6649,-2.6499,-2.6499,-2.6499,-2.6499,-2.6499,-2.6374,-2.6201,-2.6201,-2.6062,-2.5945,-2.591,-2.591,-2.5875,-2.5641,0.0,0.0,-2.5287,-2.5276,-2.5229,-2.5099,-2.5099,-2.5052,-2.4861,-2.4825,-2.4825,-2.4825,-2.4646,-2.4711,-2.5199,-2.5543,-2.6163,-2.711,-2.7167,-2.719,-2.719,-2.719,-2.719,-2.719,-2.706,-2.6989,-2.6948,-2.6817,-2.659,-2.634,-2.634,-2.6479,-2.6725,-2.6725,-2.6998,-2.7414,-2.7414,-2.7709,-2.8045,-2.7863,-2.8053,-2.8395,-3.0781,-3.1311,-3.149,-3.1062,-3.1163,-3.1178,-3.0722,-3.0668,-3.0632,-3.0575,-3.0539,-3.0539,-3.0539,-3.0539,-3.0539,-3.0539,-3.0539,-3.0575,-3.0632,-3.0668,-3.111,-3.2141,-3.2218,-3.2218,-3.2218,-3.2218,-3.2218,-3.2218,-3.2218,-3.2218,-3.2218,-3.2218,-3.2146,-3.2,-3.1927,-3.178,-3.1508,-3.1347,-3.1235,-3.1099,-3.1024,-3.0986,-3.0986,-3.0986,-3.0986,-3.0986,-3.0986,-3.0764,-3.0414,-3.029,-2.9876,-2.9359,-2.9179,-2.8769,-2.8154,-2.7382,-2.6891,-2.6589,-2.6589,-2.6521,-2.6499,-2.6499,-2.6396,-2.6305,-2.6305,-2.6166,-2.6015,-2.6015,-2.5945,-2.5875,-2.5723,-2.5711,-2.5653,-2.5453,0.0,-2.5382,-2.5312,-2.5241,-2.5147,-2.5111,-2.4992,-2.4897,-2.479,-2.4682,-2.461,-2.461,-2.4418,-2.4517,-2.5001,-2.5766,-2.6496,-2.7167,-2.719,-2.719,-2.719,-2.719,-2.7149,-2.7015,-2.6944,-2.6727,-2.6437,-2.6396,-2.6229,-2.6021,-2.6021,-2.6089,-2.6179,-2.6179,-2.6463,-2.6846,-2.6715,-2.6953,-2.7365,-2.7162,-2.719,-2.735,-2.9868,-3.0331,-3.0516,-3.01,-3.0249,-3.0264,-2.9877,-2.9824,-2.9789,-2.9719,-2.9719,-2.9719,-2.9719,-2.9719,-2.9719,-2.9719,-2.9719,-2.9754,-2.9789,-2.9859,-3.044,-3.1663,-3.1739,-3.1834,-3.2,-3.2,-3.2,-3.2,-3.2,-3.2,-3.2,-3.2,-3.1927,-3.178,-3.1743,-3.1582,-3.131,-3.1235,-3.1123,-3.0986,-3.0986,-3.0986,-3.0986,-3.0986,-3.0869,-3.0712,-3.0637,-3.0272,-2.9704,-2.951,-2.9099,-2.8634,-2.8421,-2.7931,-2.7338,-2.6806,-2.6555,-2.6499,-2.643,-2.6396,-2.6396,-2.6396,-2.6305,-2.6166,-2.6131,-2.5945,-2.5793,-2.5793,-2.5758,-2.5676,-2.5535,-2.55,-2.5453,-2.5312,-2.5276,-2.5241,-2.5241,-2.5123,-2.4981,-2.4909,-2.4778,-2.4682,-2.461,-2.4502,-2.4418,-2.4418,-2.4273,-2.4476,-2.513,-2.5991,-2.6703,-2.7085,-2.7108,-2.7067,-2.7026,-2.7056,-2.7015,-2.6809,-2.6727,-2.652,-2.6199,-2.6146,-2.6021,-2.5895,-2.5895,-2.5853,-2.5812,-2.5812,-2.5965,-2.613,-2.6002,-2.6238,-2.6646,-2.6457,-2.6464,-2.6547,-2.8979,-2.948,-2.988,-2.9867,-2.9819,-2.9736,-2.9601,-2.9566,-2.9509,-2.9297,-2.931,-2.931,-2.931,-2.931,-2.931,-2.931,-2.931,-2.9368,-2.9566,-2.9776,-3.0134,-3.065,-3.0677,-3.097,-3.1582,-3.1596,-3.1596,-3.1596,-3.1596,-3.1596,-3.1596,-3.1596,-3.1596,-3.1596,-3.1384,-3.1296,-3.1259,-3.1086,-3.0973,-3.0973,-3.0973,-3.0973,-3.0973,-3.0973,-3.062,-3.0051,-2.9842,-2.9443,-2.8964,-2.8762,-2.8341,-2.7844,-2.7643,-2.7101,-2.6499,-2.6499,-2.6499,-2.6465,-2.6236,-2.6213,-2.6213,-2.6213,-2.6213,-2.6131,-2.5945,-2.5723,-2.5606,-2.5606,-2.543,-2.5312,-2.5312,-2.5312,-2.5312,-2.5312,-2.5182,-2.5123,-2.5123,-2.4921,-2.4718,-2.4526,-2.449,-2.4418,-2.4236,-2.42,-2.42,-2.42,-2.42,-2.4648,-2.5658,-2.6186,-2.6611,-2.688,-2.6891,-2.6809,-2.6603,-2.6809,-2.6809,-2.6592,-2.6313,-2.6199,-2.6199,-2.599,-2.5895,-2.5895,-2.5895,-2.577,-2.5601,-2.5601,-2.5422,-2.52,-2.52,-2.5487,-2.5859,-2.5684,-2.5902,-2.6246,-2.8345,-2.8744,-2.8908,-2.8518,-2.8633,-2.8662,-2.8213,-2.8114,-2.8114,-2.8046,-2.8059,-2.8059,-2.8059,-2.8059,-2.8059,-2.8059,-2.8059,-2.8046,-2.8114,-2.8182,-2.8478,-2.9044,-2.9746,-3.0228,-3.0414,-3.0428,-3.0428,-3.0428,-3.0428,-3.0428,-3.0428,-3.0428,-3.0321,-3.0179,-3.013,-3.0036,-2.9892,-2.982,-2.9833,-2.9833,-2.9833,-2.9833,-2.9784,-2.9663,-2.9473,-2.9295,-2.9114,-2.8682,-2.8206,-2.7982,-2.7529,-2.7036,-2.6876,-2.659,-2.6305,-2.6305,-2.6188,-2.6084,-2.6015,-2.598,-2.598,-2.598,-2.5875,-2.5758,-2.5688,-2.5535,-2.5382,-2.5382,-2.5347,-2.5312,-2.5312,-2.5206,-2.5147,-2.5147,-2.5016,-2.4897,-2.4897,-2.4718,-2.4574,-2.4502,-2.4381,-2.4273,-2.42,-2.42,-2.42,-2.42,-2.408,-2.4377,-2.5221,-2.5413,-2.5887,-2.6652,-2.6685,-2.6561,-2.6313,-2.6561,-2.6561,-2.6313,-2.624,-2.6115,-2.599,-2.5937,-2.5812,-2.5686,-2.5686,-2.5559,-2.5338,-2.5338,-2.5285,-2.52,-2.5031,-2.5072,-2.5156,-2.4909,-2.4916,-2.503,-2.7835,-2.8059,-2.8123,-2.7755,-2.7878,-2.7928,-2.7555,-2.749,-2.749,-2.749,-2.749,-2.749,-2.749,-2.749,-2.749,-2.749,-2.749,-2.749,-2.749,-2.749,-2.7646,-2.8033,-2.8626,-2.9172,-2.9636,-2.9649,-2.9649,-2.9649,-2.9649,-2.9649,-2.9649,-2.9649,-2.9579,-2.9487,-2.9487,-2.9416,-2.931,-2.931,-2.931,-2.9274,-2.9203,-2.919,-2.9155,-2.8977,-2.875,-2.8534,-2.8344,-2.7915,-2.7407,-2.7221,-2.6867,-2.6499,-2.6396,-2.6236,-2.6097,-2.6097,-2.5992,-2.5875,-2.5793,-2.5793,-2.5758,-2.5676,-2.5641,-2.5571,-2.55,-2.5382,-2.5312,-2.5312,-2.5276,-2.5206,-2.5206,-2.5087,-2.4992,-2.4992,-2.4825,-2.4682,-2.4682,-2.449,-2.4381,-2.4381,-2.4273,-2.4164,-2.408,-2.408,-2.4043,-2.397,-2.3861,-2.41,-2.4785,-2.501,-2.5441,-2.6125,-2.6337,-2.6313,-2.6074,-2.6229,-2.6229,-2.6074,-2.6074,-2.599,-2.577,-2.577,-2.5644,-2.5422,-2.5422,-2.5295,-2.5073,-2.5073,-2.5031,-2.4914,-2.4786,-2.4743,-2.4743,-2.454,-2.4497,-2.4497,-2.749,-2.749,-2.749,-2.749,-2.749,-2.7503,-2.7503,-2.7469,-2.7469,-2.7469,-2.7469,-2.7469,-2.7469,-2.7469,-2.7469,-2.7503,-2.749,-2.749,-2.749,-2.749,-2.749,-2.749,-2.749,-2.802,-2.914,-2.9118,-2.9118,-2.9118,-2.9118,-2.9118,-2.9118,-2.9118,-2.9118,-2.9118,-2.9118,-2.9118,-2.9131,-2.9131,-2.9131,-2.9095,-2.8892,-2.8808,-2.8808,-2.8607,-2.8228,-2.7767,-2.758,-2.7145,-2.6658,-2.6521,-2.6339,-2.6166,-2.6166,-2.6027,-2.5875,-2.5875,-2.5875,-2.5793,-2.5606,-2.5571,-2.55,-2.5312,-2.543,-2.55,-2.5312,-2.5276,-2.5276,-2.5276,-2.5147,-2.5087,-2.5087,-2.4921,-2.4754,-2.4754,-2.461,-2.4454,-2.4454,-2.4309,-2.4164,-2.4164,-2.4164,-2.408,-2.3897,-2.3861,-2.3787,-2.3604,-2.3556,-2.3817,-2.431,-2.4719,-2.5144,-2.5437,-2.5901,-2.603,-2.5853,-2.5853,-2.5895,-2.5895,-2.5895,-2.577,-2.5601,-2.5559,-2.5422,-2.5158,-2.5158,-2.5073,-2.4861,-2.4861,-2.4743,-2.4497,-2.4497,-2.4497,-2.4497,-2.4497,-2.4497,-2.4454,-2.7503,-2.749,-2.749,-2.749,-2.7403,-2.7335,-2.7335,-2.7214,-2.7113,-2.7113,-2.7113,-2.7113,-2.7113,-2.7113,-2.718,-2.7335,-2.7436,-2.749,-2.749,-2.749,-2.749,-2.749,-2.749,-2.7607,-2.7868,-2.7868,-2.7868,-2.7868,-2.7868,-2.7868,-2.7868,-2.7868,-2.7868,-2.7868,-2.7868,-2.7848,-2.7746,-2.7746,-2.7644,-2.7486,-2.7451,-2.7451,-2.7404,-2.722,-2.704,-2.6938,-2.6801,-2.6656,-2.6499,-2.6339,-2.6119,-2.598,-2.598,-2.584,-2.5688,-2.5688,-2.5535,-2.5418,-2.5382,-2.5288,-2.5182,-2.5147,-2.5052,-2.4992,-2.5123,-2.5147,-2.5123,-2.4957,-2.4897,-2.4861,-2.4861,-2.4718,-2.4574,-2.4574,-2.4381,-2.4273,-2.4273,-2.408,-2.397,-2.397,-2.3824,-2.3703,-2.3666,-2.3677,-2.3593,-2.3372,-2.3372,-2.3519,-2.3815,-2.3947,-2.4397,-2.5234,-2.5355,-2.5513,-2.5644,-2.5654,-2.5728,-2.5895,-2.5738,-2.5644,-2.5601,-2.538,-2.5158,-2.4988,-2.4988,-2.4818,-2.4583,-2.4583,-2.454,-2.4497,-2.4497,-2.4497,-2.4497,-2.4497,-2.4411,-2.4249,-2.7235,-2.7268,-2.7268,-2.7268,-2.7214,-2.7146,-2.7146,-2.7079,-2.699,-2.699,-2.699,-2.699,-2.699,-2.699,-2.7045,-2.7146,-2.7214,-2.7268,-2.7268,-2.7268,-2.7268,-2.7268,-2.7268,-2.7268,-2.7268,-2.7268,-2.7335,-2.749,-2.749,-2.7469,-2.7403,-2.7403,-2.7335,-2.7268,-2.7268,-2.7214,-2.7146,-2.7146,-2.7113,-2.699,-2.6909,-2.6875,-2.6841,-2.6658,-2.6589,-2.6589,-2.643,-2.6292,-2.6188,-2.6084,-2.591,-2.5758,-2.5758,-2.5571,-2.5359,-2.5359,-2.523,-2.5052,-2.5052,-2.5016,-2.4957,-2.4957,-2.4897,-2.4825,-2.4921,-2.4957,-2.4921,-2.4825,-2.4718,-2.4646,-2.4646,-2.4502,-2.4345,-2.4345,-2.42,-2.4055,-2.4055,-2.3897,-2.3751,-2.3751,-2.3677,-2.3567,-2.3482,-2.3372,-2.3261,-2.315,-2.315,-2.3222,-2.3372,-2.3487,-2.3807,-2.4306,-2.4454,-2.4719,-2.5079,-2.5079,-2.5239,-2.5549,-2.5464,-2.5338,-2.5253,-2.5115,-2.4946,-2.47,-2.47,-2.4615,-2.4497,-2.4497,-2.4497,-2.4497,-2.4497,-2.4454,-2.4378,-2.4378,-2.4153,-2.3851,-2.6977,-2.699,-2.699,-2.699,-2.6977,-2.6943,-2.6943,-2.6943,-2.6909,-2.6909,-2.6909,-2.6909,-2.6909,-2.6956,-2.6943,-2.6943,-2.6977,-2.699,-2.699,-2.699,-2.699,-2.699,-2.699,-2.699,-2.699,-2.699,-2.7146,-2.7403,-2.7403,-2.7369,-2.7235,-2.7235,-2.7146,-2.699,-2.699,-2.6977,-2.6943,-2.6943,-2.6956,-2.6909,-2.6726,-2.6658,-2.6589,-2.6499,-2.643,-2.6396,-2.6201,-2.6015,-2.5828,-2.5828,-2.5688,-2.55,-2.55,-2.5288,-2.5052,-2.5052,-2.4921,-2.479,-2.479,-2.4754,-2.4682,-2.4682,-2.4576,-2.4481,-2.4481,-2.4623,-2.4754,-2.4718,-2.4574,-2.4454,-2.4418,-2.4273,-2.4152,-2.4116,-2.397,-2.3861,-2.3861,-2.3677,-2.3556,-2.3556,-2.3519,-2.3446,-2.3261,-2.3113,-2.3001,-2.3001,-2.2964,-2.2964,-2.2964,-2.3118,-2.3262,-2.3348,-2.3545,-2.3892,-2.4329,-2.4329,-2.449,-2.4882,-2.4882,-2.4872,-2.4903,-2.4861,-2.47,-2.4497,-2.4454,-2.4454,-2.4464,-2.4411,-2.4368,-2.4368,-2.4368,-2.4282,-2.412,-2.4067,-2.3807,-2.3503,-2.6977,-2.699,-2.699,-2.699,-2.6875,-2.676,-2.676,-2.6624,-2.6568,-2.6568,-2.6568,-2.6568,-2.6568,-2.6658,-2.676,-2.676,-2.6909,-2.699,-2.699,-2.699,-2.699,-2.699,-2.699,-2.699,-2.699,-2.699,-2.7024,-2.7079,-2.7079,-2.7045,-2.7045,-2.7045,-2.7024,-2.699,-2.699,-2.6909,-2.676,-2.676,-2.6658,-2.6568,-2.6533,-2.643,-2.627,-2.6236,-2.6119,-2.598,-2.5945,-2.5793,-2.5641,-2.5641,-2.543,-2.5159,-2.5159,-2.5028,-2.4825,-2.4825,-2.4825,-2.479,-2.479,-2.4538,-2.4273,-2.4273,-2.3712,-2.3168,-2.3168,-2.3867,-2.4502,-2.4309,-2.4273,-2.42,-2.4007,-2.397,-2.3897,-2.3714,-2.3677,-2.3629,-2.3629,-2.3482,-2.3335,-2.3335,-2.3187,-2.3075,-2.3038,-2.3001,-2.3001,-2.3001,-2.2852,-2.274,-2.274,-2.2617,-2.2728,-2.3143,-2.3168,-2.3356,-2.3631,-2.3631,-2.3592,-2.3492,-2.3492,-2.3981,-2.4903,-2.4658,-2.454,-2.4497,-2.4335,-2.4249,-2.4196,-2.398,-2.3884,-2.3884,-2.3884,-2.3884,-2.3841,-2.3677,-2.3547,-2.346,-2.619,-2.6477,-2.6705,-2.6705,-2.6658,-2.6589,-2.6589,-2.6521,-2.6499,-2.6499,-2.6499,-2.6499,-2.6499,-2.6465,-2.643,-2.643,-2.6396,-2.6396,-2.6396,-2.6396,-2.6396,-2.6396,-2.6396,-2.6396,-2.6396,-2.6396,-2.6396,-2.6396,-2.682,-2.6943,-2.6829,-2.6829,-2.6794,-2.6705,-2.6705,-2.6671,-2.6589,-2.6589,-2.6499,-2.6339,-2.6339,-2.6201,-2.6015,-2.6015,-2.598,-2.5875,-2.5653,-2.5272,-2.4856,-2.474,-2.4422,-2.4081,-2.4081,-2.3873,-2.3642,-2.3642,-2.3502,-2.3362,-2.3362,-2.3222,-2.3081,-2.3081,-2.2794,-2.2496,-2.2496,-2.2887,-2.3266,-2.3457,-2.3478,-2.3521,-2.3694,-2.3751,-2.3703,-2.3593,-2.3519,-2.3446,-2.3446,-2.3261,-2.315,-2.315,-2.3038,-2.3001,-2.3001,-2.2889,-2.2815,-2.2815,-2.2665,-2.2515,-2.2515,-2.2327,-2.2309,-2.252,-2.2415,-2.2558,-2.295,-2.296,-2.2965,-2.3032,-2.3032,-2.332,-2.3774,-2.366,-2.3535,-2.343,-2.359,-2.3659,-2.3616,-2.3521,-2.3478,-2.3448,-2.3217,-2.3032,-2.2896,-2.2695,-2.2611,-2.2568]}]]